<?xml version="1.0" encoding="UTF-8" standalone="no" ?>
<gpx xmlns="http://www.topografix.com/GPX/1/1" xmlns:xsi="http://www.w3.org/2001/XMLSchema-instance" xsi:schemaLocation="http://www.topografix.com/GPX/1/1 http://www.topografix.com/GPX/1/1/gpx.xsd" version="1.1" creator="VisuGPX - https://www.visugpx.com">
  <metadata>
    <name>Col de Barrancq .... et un peu plus (Lhers 64)</name>
    <desc><![CDATA[Très belle sortie en ski de randonnée dans les arbres pour les jours de fort risque d'avalanche.]]></desc>
  </metadata>
  <trk>
    <name><![CDATA[SityTrail - Col de Barrancq .... et un peu plus (Lhers 64)]]></name>
    <trkseg>
      <trkpt lat="42.91418" lon="-0.61583">
        <ele>1018</ele>
        <time>2021-12-08T08:24:45.999Z</time>
      </trkpt>
      <trkpt lat="42.91435" lon="-0.61578">
        <ele>1016</ele>
        <time>2021-12-08T08:26:54.999Z</time>
      </trkpt>
      <trkpt lat="42.91435" lon="-0.61579">
        <ele>1016</ele>
        <time>2021-12-08T08:26:59.999Z</time>
      </trkpt>
      <trkpt lat="42.91435" lon="-0.61577">
        <ele>1016</ele>
        <time>2021-12-08T08:27:04.999Z</time>
      </trkpt>
      <trkpt lat="42.91435" lon="-0.61577">
        <ele>1016</ele>
        <time>2021-12-08T08:27:08.999Z</time>
      </trkpt>
      <trkpt lat="42.91436" lon="-0.61576">
        <ele>1016</ele>
        <time>2021-12-08T08:27:13.999Z</time>
      </trkpt>
      <trkpt lat="42.91442" lon="-0.61567">
        <ele>1019</ele>
        <time>2021-12-08T08:36:30.999Z</time>
      </trkpt>
      <trkpt lat="42.91442" lon="-0.61567">
        <ele>1019</ele>
        <time>2021-12-08T08:36:35.999Z</time>
      </trkpt>
      <trkpt lat="42.91443" lon="-0.61566">
        <ele>1019</ele>
        <time>2021-12-08T08:36:40.999Z</time>
      </trkpt>
      <trkpt lat="42.91443" lon="-0.61566">
        <ele>1019</ele>
        <time>2021-12-08T08:36:44.999Z</time>
      </trkpt>
      <trkpt lat="42.91443" lon="-0.61565">
        <ele>1019</ele>
        <time>2021-12-08T08:36:49.999Z</time>
      </trkpt>
      <trkpt lat="42.91443" lon="-0.61564">
        <ele>1019</ele>
        <time>2021-12-08T08:36:54.999Z</time>
      </trkpt>
      <trkpt lat="42.91443" lon="-0.61563">
        <ele>1019</ele>
        <time>2021-12-08T08:36:59.999Z</time>
      </trkpt>
      <trkpt lat="42.91446" lon="-0.6156">
        <ele>1019</ele>
        <time>2021-12-08T08:37:04.999Z</time>
      </trkpt>
      <trkpt lat="42.9145" lon="-0.6156">
        <ele>1019</ele>
        <time>2021-12-08T08:37:09.999Z</time>
      </trkpt>
      <trkpt lat="42.91454" lon="-0.61558">
        <ele>1019</ele>
        <time>2021-12-08T08:37:14.999Z</time>
      </trkpt>
      <trkpt lat="42.91459" lon="-0.61553">
        <ele>1018</ele>
        <time>2021-12-08T08:37:23.999Z</time>
      </trkpt>
      <trkpt lat="42.9146" lon="-0.61551">
        <ele>1018</ele>
        <time>2021-12-08T08:37:28.999Z</time>
      </trkpt>
      <trkpt lat="42.91461" lon="-0.61549">
        <ele>1018</ele>
        <time>2021-12-08T08:37:32.999Z</time>
      </trkpt>
      <trkpt lat="42.91462" lon="-0.61547">
        <ele>1018</ele>
        <time>2021-12-08T08:37:37.999Z</time>
      </trkpt>
      <trkpt lat="42.91464" lon="-0.61545">
        <ele>1018</ele>
        <time>2021-12-08T08:37:41.999Z</time>
      </trkpt>
      <trkpt lat="42.91468" lon="-0.61537">
        <ele>1024</ele>
        <time>2021-12-08T08:38:06.999Z</time>
      </trkpt>
      <trkpt lat="42.91467" lon="-0.61535">
        <ele>1024</ele>
        <time>2021-12-08T08:38:11.999Z</time>
      </trkpt>
      <trkpt lat="42.91466" lon="-0.61534">
        <ele>1024</ele>
        <time>2021-12-08T08:38:16.999Z</time>
      </trkpt>
      <trkpt lat="42.91464" lon="-0.6153">
        <ele>1024</ele>
        <time>2021-12-08T08:38:21.999Z</time>
      </trkpt>
      <trkpt lat="42.91465" lon="-0.61526">
        <ele>1024</ele>
        <time>2021-12-08T08:38:26.999Z</time>
      </trkpt>
      <trkpt lat="42.91462" lon="-0.61521">
        <ele>1024</ele>
        <time>2021-12-08T08:38:31.999Z</time>
      </trkpt>
      <trkpt lat="42.91459" lon="-0.61518">
        <ele>1024</ele>
        <time>2021-12-08T08:38:36.999Z</time>
      </trkpt>
      <trkpt lat="42.91456" lon="-0.61515">
        <ele>1023</ele>
        <time>2021-12-08T08:38:41.999Z</time>
      </trkpt>
      <trkpt lat="42.91455" lon="-0.61512">
        <ele>1028</ele>
        <time>2021-12-08T08:38:46.999Z</time>
      </trkpt>
      <trkpt lat="42.91452" lon="-0.61508">
        <ele>1028</ele>
        <time>2021-12-08T08:38:51.999Z</time>
      </trkpt>
      <trkpt lat="42.91449" lon="-0.61506">
        <ele>1028</ele>
        <time>2021-12-08T08:38:55.999Z</time>
      </trkpt>
      <trkpt lat="42.91446" lon="-0.61503">
        <ele>1028</ele>
        <time>2021-12-08T08:39:00.999Z</time>
      </trkpt>
      <trkpt lat="42.91444" lon="-0.615">
        <ele>1028</ele>
        <time>2021-12-08T08:39:05.999Z</time>
      </trkpt>
      <trkpt lat="42.91441" lon="-0.61497">
        <ele>1028</ele>
        <time>2021-12-08T08:39:10.999Z</time>
      </trkpt>
      <trkpt lat="42.91439" lon="-0.61495">
        <ele>1028</ele>
        <time>2021-12-08T08:39:15.999Z</time>
      </trkpt>
      <trkpt lat="42.91438" lon="-0.61493">
        <ele>1028</ele>
        <time>2021-12-08T08:39:19.999Z</time>
      </trkpt>
      <trkpt lat="42.91436" lon="-0.61491">
        <ele>1028</ele>
        <time>2021-12-08T08:39:24.999Z</time>
      </trkpt>
      <trkpt lat="42.91435" lon="-0.61488">
        <ele>1028</ele>
        <time>2021-12-08T08:39:29.999Z</time>
      </trkpt>
      <trkpt lat="42.91433" lon="-0.61486">
        <ele>1035</ele>
        <time>2021-12-08T08:39:34.999Z</time>
      </trkpt>
      <trkpt lat="42.91431" lon="-0.61483">
        <ele>1035</ele>
        <time>2021-12-08T08:39:39.999Z</time>
      </trkpt>
      <trkpt lat="42.91429" lon="-0.6148">
        <ele>1035</ele>
        <time>2021-12-08T08:39:43.999Z</time>
      </trkpt>
      <trkpt lat="42.91425" lon="-0.61477">
        <ele>1035</ele>
        <time>2021-12-08T08:39:48.999Z</time>
      </trkpt>
      <trkpt lat="42.91421" lon="-0.61476">
        <ele>1035</ele>
        <time>2021-12-08T08:39:57.999Z</time>
      </trkpt>
      <trkpt lat="42.91419" lon="-0.61475">
        <ele>1035</ele>
        <time>2021-12-08T08:40:02.999Z</time>
      </trkpt>
      <trkpt lat="42.91417" lon="-0.61474">
        <ele>1035</ele>
        <time>2021-12-08T08:40:07.999Z</time>
      </trkpt>
      <trkpt lat="42.91415" lon="-0.61473">
        <ele>1035</ele>
        <time>2021-12-08T08:40:12.999Z</time>
      </trkpt>
      <trkpt lat="42.91412" lon="-0.61471">
        <ele>1035</ele>
        <time>2021-12-08T08:40:17.999Z</time>
      </trkpt>
      <trkpt lat="42.91409" lon="-0.61467">
        <ele>1035</ele>
        <time>2021-12-08T08:40:27.999Z</time>
      </trkpt>
      <trkpt lat="42.91408" lon="-0.61465">
        <ele>1035</ele>
        <time>2021-12-08T08:40:32.999Z</time>
      </trkpt>
      <trkpt lat="42.91406" lon="-0.61463">
        <ele>1035</ele>
        <time>2021-12-08T08:40:37.999Z</time>
      </trkpt>
      <trkpt lat="42.91403" lon="-0.61463">
        <ele>1035</ele>
        <time>2021-12-08T08:40:42.999Z</time>
      </trkpt>
      <trkpt lat="42.91402" lon="-0.61463">
        <ele>1037</ele>
        <time>2021-12-08T08:40:47.999Z</time>
      </trkpt>
      <trkpt lat="42.91402" lon="-0.61457">
        <ele>1039</ele>
        <time>2021-12-08T08:40:57.999Z</time>
      </trkpt>
      <trkpt lat="42.91404" lon="-0.61454">
        <ele>1043</ele>
        <time>2021-12-08T08:41:02.999Z</time>
      </trkpt>
      <trkpt lat="42.91402" lon="-0.61452">
        <ele>1039</ele>
        <time>2021-12-08T08:41:07.999Z</time>
      </trkpt>
      <trkpt lat="42.91399" lon="-0.61449">
        <ele>1039</ele>
        <time>2021-12-08T08:41:12.999Z</time>
      </trkpt>
      <trkpt lat="42.91396" lon="-0.61445">
        <ele>1039</ele>
        <time>2021-12-08T08:41:17.999Z</time>
      </trkpt>
      <trkpt lat="42.91393" lon="-0.61442">
        <ele>1039</ele>
        <time>2021-12-08T08:41:22.999Z</time>
      </trkpt>
      <trkpt lat="42.91391" lon="-0.6144">
        <ele>1039</ele>
        <time>2021-12-08T08:41:26.999Z</time>
      </trkpt>
      <trkpt lat="42.91389" lon="-0.61439">
        <ele>1039</ele>
        <time>2021-12-08T08:41:31.999Z</time>
      </trkpt>
      <trkpt lat="42.91387" lon="-0.6144">
        <ele>1039</ele>
        <time>2021-12-08T08:41:36.999Z</time>
      </trkpt>
      <trkpt lat="42.91383" lon="-0.61439">
        <ele>1039</ele>
        <time>2021-12-08T08:41:41.999Z</time>
      </trkpt>
      <trkpt lat="42.91381" lon="-0.61436">
        <ele>1039</ele>
        <time>2021-12-08T08:41:46.999Z</time>
      </trkpt>
      <trkpt lat="42.91377" lon="-0.61435">
        <ele>1039</ele>
        <time>2021-12-08T08:41:51.999Z</time>
      </trkpt>
      <trkpt lat="42.91375" lon="-0.61434">
        <ele>1041</ele>
        <time>2021-12-08T08:41:56.999Z</time>
      </trkpt>
      <trkpt lat="42.91373" lon="-0.61433">
        <ele>1041</ele>
        <time>2021-12-08T08:42:01.999Z</time>
      </trkpt>
      <trkpt lat="42.91371" lon="-0.61431">
        <ele>1041</ele>
        <time>2021-12-08T08:42:06.999Z</time>
      </trkpt>
      <trkpt lat="42.91368" lon="-0.61426">
        <ele>1046</ele>
        <time>2021-12-08T08:42:16.999Z</time>
      </trkpt>
      <trkpt lat="42.91367" lon="-0.61424">
        <ele>1046</ele>
        <time>2021-12-08T08:42:21.999Z</time>
      </trkpt>
      <trkpt lat="42.91365" lon="-0.61423">
        <ele>1046</ele>
        <time>2021-12-08T08:42:25.999Z</time>
      </trkpt>
      <trkpt lat="42.91365" lon="-0.6142">
        <ele>1046</ele>
        <time>2021-12-08T08:42:30.999Z</time>
      </trkpt>
      <trkpt lat="42.91363" lon="-0.61418">
        <ele>1046</ele>
        <time>2021-12-08T08:42:35.999Z</time>
      </trkpt>
      <trkpt lat="42.91362" lon="-0.61415">
        <ele>1046</ele>
        <time>2021-12-08T08:42:40.999Z</time>
      </trkpt>
      <trkpt lat="42.9136" lon="-0.61414">
        <ele>1046</ele>
        <time>2021-12-08T08:42:45.999Z</time>
      </trkpt>
      <trkpt lat="42.91358" lon="-0.61411">
        <ele>1046</ele>
        <time>2021-12-08T08:42:50.999Z</time>
      </trkpt>
      <trkpt lat="42.91355" lon="-0.61407">
        <ele>1046</ele>
        <time>2021-12-08T08:42:55.999Z</time>
      </trkpt>
      <trkpt lat="42.91354" lon="-0.61407">
        <ele>1046</ele>
        <time>2021-12-08T08:43:00.999Z</time>
      </trkpt>
      <trkpt lat="42.91352" lon="-0.61407">
        <ele>1046</ele>
        <time>2021-12-08T08:43:09.999Z</time>
      </trkpt>
      <trkpt lat="42.91354" lon="-0.61404">
        <ele>1046</ele>
        <time>2021-12-08T08:43:13.999Z</time>
      </trkpt>
      <trkpt lat="42.91356" lon="-0.61402">
        <ele>1060</ele>
        <time>2021-12-08T08:43:18.999Z</time>
      </trkpt>
      <trkpt lat="42.91358" lon="-0.614">
        <ele>1060</ele>
        <time>2021-12-08T08:43:23.999Z</time>
      </trkpt>
      <trkpt lat="42.9136" lon="-0.61396">
        <ele>1060</ele>
        <time>2021-12-08T08:43:28.999Z</time>
      </trkpt>
      <trkpt lat="42.91363" lon="-0.61394">
        <ele>1060</ele>
        <time>2021-12-08T08:43:32.999Z</time>
      </trkpt>
      <trkpt lat="42.91365" lon="-0.61391">
        <ele>1060</ele>
        <time>2021-12-08T08:43:37.999Z</time>
      </trkpt>
      <trkpt lat="42.91365" lon="-0.61387">
        <ele>1060</ele>
        <time>2021-12-08T08:43:42.999Z</time>
      </trkpt>
      <trkpt lat="42.91363" lon="-0.61384">
        <ele>1060</ele>
        <time>2021-12-08T08:43:47.999Z</time>
      </trkpt>
      <trkpt lat="42.91359" lon="-0.61381">
        <ele>1060</ele>
        <time>2021-12-08T08:43:52.999Z</time>
      </trkpt>
      <trkpt lat="42.91355" lon="-0.61378">
        <ele>1060</ele>
        <time>2021-12-08T08:44:02.999Z</time>
      </trkpt>
      <trkpt lat="42.91356" lon="-0.61376">
        <ele>1060</ele>
        <time>2021-12-08T08:44:07.999Z</time>
      </trkpt>
      <trkpt lat="42.91358" lon="-0.61374">
        <ele>1073</ele>
        <time>2021-12-08T08:44:11.999Z</time>
      </trkpt>
      <trkpt lat="42.91361" lon="-0.61373">
        <ele>1073</ele>
        <time>2021-12-08T08:44:16.999Z</time>
      </trkpt>
      <trkpt lat="42.91363" lon="-0.6137">
        <ele>1073</ele>
        <time>2021-12-08T08:44:21.999Z</time>
      </trkpt>
      <trkpt lat="42.91363" lon="-0.61368">
        <ele>1073</ele>
        <time>2021-12-08T08:44:26.999Z</time>
      </trkpt>
      <trkpt lat="42.91361" lon="-0.61366">
        <ele>1073</ele>
        <time>2021-12-08T08:44:31.999Z</time>
      </trkpt>
      <trkpt lat="42.91357" lon="-0.61362">
        <ele>1073</ele>
        <time>2021-12-08T08:44:36.999Z</time>
      </trkpt>
      <trkpt lat="42.91353" lon="-0.61361">
        <ele>1073</ele>
        <time>2021-12-08T08:44:41.999Z</time>
      </trkpt>
      <trkpt lat="42.91348" lon="-0.61357">
        <ele>1073</ele>
        <time>2021-12-08T08:44:51.999Z</time>
      </trkpt>
      <trkpt lat="42.91346" lon="-0.61359">
        <ele>1074</ele>
        <time>2021-12-08T08:44:56.999Z</time>
      </trkpt>
      <trkpt lat="42.91344" lon="-0.6136">
        <ele>1074</ele>
        <time>2021-12-08T08:45:00.999Z</time>
      </trkpt>
      <trkpt lat="42.91342" lon="-0.61361">
        <ele>1074</ele>
        <time>2021-12-08T08:45:05.999Z</time>
      </trkpt>
      <trkpt lat="42.9134" lon="-0.61362">
        <ele>1074</ele>
        <time>2021-12-08T08:45:09.999Z</time>
      </trkpt>
      <trkpt lat="42.91338" lon="-0.61361">
        <ele>1074</ele>
        <time>2021-12-08T08:45:14.999Z</time>
      </trkpt>
      <trkpt lat="42.91336" lon="-0.61358">
        <ele>1074</ele>
        <time>2021-12-08T08:45:19.999Z</time>
      </trkpt>
      <trkpt lat="42.91334" lon="-0.61357">
        <ele>1074</ele>
        <time>2021-12-08T08:45:23.999Z</time>
      </trkpt>
      <trkpt lat="42.91332" lon="-0.61354">
        <ele>1074</ele>
        <time>2021-12-08T08:45:28.999Z</time>
      </trkpt>
      <trkpt lat="42.91331" lon="-0.61351">
        <ele>1074</ele>
        <time>2021-12-08T08:45:33.999Z</time>
      </trkpt>
      <trkpt lat="42.91329" lon="-0.61348">
        <ele>1074</ele>
        <time>2021-12-08T08:45:38.999Z</time>
      </trkpt>
      <trkpt lat="42.91328" lon="-0.61346">
        <ele>1081</ele>
        <time>2021-12-08T08:45:43.999Z</time>
      </trkpt>
      <trkpt lat="42.91326" lon="-0.61344">
        <ele>1081</ele>
        <time>2021-12-08T08:45:48.999Z</time>
      </trkpt>
      <trkpt lat="42.91325" lon="-0.6134">
        <ele>1081</ele>
        <time>2021-12-08T08:45:53.999Z</time>
      </trkpt>
      <trkpt lat="42.91322" lon="-0.61337">
        <ele>1081</ele>
        <time>2021-12-08T08:45:58.999Z</time>
      </trkpt>
      <trkpt lat="42.91318" lon="-0.61329">
        <ele>1084</ele>
        <time>2021-12-08T08:46:12.999Z</time>
      </trkpt>
      <trkpt lat="42.91318" lon="-0.61327">
        <ele>1084</ele>
        <time>2021-12-08T08:46:16.999Z</time>
      </trkpt>
      <trkpt lat="42.91322" lon="-0.61325">
        <ele>1081</ele>
        <time>2021-12-08T08:46:21.999Z</time>
      </trkpt>
      <trkpt lat="42.91325" lon="-0.61323">
        <ele>1081</ele>
        <time>2021-12-08T08:46:26.999Z</time>
      </trkpt>
      <trkpt lat="42.91328" lon="-0.61322">
        <ele>1081</ele>
        <time>2021-12-08T08:46:31.999Z</time>
      </trkpt>
      <trkpt lat="42.91333" lon="-0.6132">
        <ele>1081</ele>
        <time>2021-12-08T08:46:40.999Z</time>
      </trkpt>
      <trkpt lat="42.91333" lon="-0.61317">
        <ele>1088</ele>
        <time>2021-12-08T08:46:45.999Z</time>
      </trkpt>
      <trkpt lat="42.91329" lon="-0.61316">
        <ele>1088</ele>
        <time>2021-12-08T08:46:50.999Z</time>
      </trkpt>
      <trkpt lat="42.91328" lon="-0.61314">
        <ele>1088</ele>
        <time>2021-12-08T08:46:55.999Z</time>
      </trkpt>
      <trkpt lat="42.91326" lon="-0.6131">
        <ele>1088</ele>
        <time>2021-12-08T08:47:00.999Z</time>
      </trkpt>
      <trkpt lat="42.91324" lon="-0.61306">
        <ele>1088</ele>
        <time>2021-12-08T08:47:05.999Z</time>
      </trkpt>
      <trkpt lat="42.91325" lon="-0.61304">
        <ele>1088</ele>
        <time>2021-12-08T08:47:10.999Z</time>
      </trkpt>
      <trkpt lat="42.91329" lon="-0.61304">
        <ele>1088</ele>
        <time>2021-12-08T08:47:15.999Z</time>
      </trkpt>
      <trkpt lat="42.91333" lon="-0.61302">
        <ele>1088</ele>
        <time>2021-12-08T08:47:20.999Z</time>
      </trkpt>
      <trkpt lat="42.91337" lon="-0.61303">
        <ele>1088</ele>
        <time>2021-12-08T08:47:29.999Z</time>
      </trkpt>
      <trkpt lat="42.91339" lon="-0.61301">
        <ele>1088</ele>
        <time>2021-12-08T08:47:34.999Z</time>
      </trkpt>
      <trkpt lat="42.91338" lon="-0.61297">
        <ele>1088</ele>
        <time>2021-12-08T08:47:39.999Z</time>
      </trkpt>
      <trkpt lat="42.91336" lon="-0.61294">
        <ele>1088</ele>
        <time>2021-12-08T08:47:44.999Z</time>
      </trkpt>
      <trkpt lat="42.91333" lon="-0.6129">
        <ele>1096</ele>
        <time>2021-12-08T08:47:49.999Z</time>
      </trkpt>
      <trkpt lat="42.91327" lon="-0.6128">
        <ele>1096</ele>
        <time>2021-12-08T08:48:08.999Z</time>
      </trkpt>
      <trkpt lat="42.91332" lon="-0.61278">
        <ele>1096</ele>
        <time>2021-12-08T08:48:13.999Z</time>
      </trkpt>
      <trkpt lat="42.91334" lon="-0.61278">
        <ele>1096</ele>
        <time>2021-12-08T08:48:18.999Z</time>
      </trkpt>
      <trkpt lat="42.91334" lon="-0.61274">
        <ele>1096</ele>
        <time>2021-12-08T08:48:23.999Z</time>
      </trkpt>
      <trkpt lat="42.91331" lon="-0.61271">
        <ele>1096</ele>
        <time>2021-12-08T08:48:28.999Z</time>
      </trkpt>
      <trkpt lat="42.91324" lon="-0.6126">
        <ele>1103</ele>
        <time>2021-12-08T08:49:13.999Z</time>
      </trkpt>
      <trkpt lat="42.91321" lon="-0.6126">
        <ele>1103</ele>
        <time>2021-12-08T08:49:18.999Z</time>
      </trkpt>
      <trkpt lat="42.91322" lon="-0.61255">
        <ele>1103</ele>
        <time>2021-12-08T08:49:23.999Z</time>
      </trkpt>
      <trkpt lat="42.91323" lon="-0.61253">
        <ele>1103</ele>
        <time>2021-12-08T08:49:28.999Z</time>
      </trkpt>
      <trkpt lat="42.91327" lon="-0.61251">
        <ele>1103</ele>
        <time>2021-12-08T08:49:33.999Z</time>
      </trkpt>
      <trkpt lat="42.9133" lon="-0.61239">
        <ele>1103</ele>
        <time>2021-12-08T08:49:53.999Z</time>
      </trkpt>
      <trkpt lat="42.9133" lon="-0.61237">
        <ele>1103</ele>
        <time>2021-12-08T08:49:58.999Z</time>
      </trkpt>
      <trkpt lat="42.91328" lon="-0.61236">
        <ele>1113</ele>
        <time>2021-12-08T08:50:03.999Z</time>
      </trkpt>
      <trkpt lat="42.91325" lon="-0.61236">
        <ele>1103</ele>
        <time>2021-12-08T08:50:08.999Z</time>
      </trkpt>
      <trkpt lat="42.91324" lon="-0.61235">
        <ele>1113</ele>
        <time>2021-12-08T08:50:13.999Z</time>
      </trkpt>
      <trkpt lat="42.91326" lon="-0.61232">
        <ele>1113</ele>
        <time>2021-12-08T08:50:18.999Z</time>
      </trkpt>
      <trkpt lat="42.91328" lon="-0.61229">
        <ele>1113</ele>
        <time>2021-12-08T08:50:23.999Z</time>
      </trkpt>
      <trkpt lat="42.91329" lon="-0.61225">
        <ele>1113</ele>
        <time>2021-12-08T08:50:28.999Z</time>
      </trkpt>
      <trkpt lat="42.91329" lon="-0.61222">
        <ele>1113</ele>
        <time>2021-12-08T08:50:33.999Z</time>
      </trkpt>
      <trkpt lat="42.9133" lon="-0.61221">
        <ele>1113</ele>
        <time>2021-12-08T08:50:38.999Z</time>
      </trkpt>
      <trkpt lat="42.91331" lon="-0.6122">
        <ele>1113</ele>
        <time>2021-12-08T08:50:43.999Z</time>
      </trkpt>
      <trkpt lat="42.9133" lon="-0.61217">
        <ele>1113</ele>
        <time>2021-12-08T08:50:48.999Z</time>
      </trkpt>
      <trkpt lat="42.91327" lon="-0.61217">
        <ele>1113</ele>
        <time>2021-12-08T08:50:53.999Z</time>
      </trkpt>
      <trkpt lat="42.91326" lon="-0.61214">
        <ele>1113</ele>
        <time>2021-12-08T08:50:58.999Z</time>
      </trkpt>
      <trkpt lat="42.91323" lon="-0.61212">
        <ele>1113</ele>
        <time>2021-12-08T08:51:03.999Z</time>
      </trkpt>
      <trkpt lat="42.9132" lon="-0.61214">
        <ele>1113</ele>
        <time>2021-12-08T08:55:42.999Z</time>
      </trkpt>
      <trkpt lat="42.9132" lon="-0.61215">
        <ele>1113</ele>
        <time>2021-12-08T08:55:47.999Z</time>
      </trkpt>
      <trkpt lat="42.91318" lon="-0.61217">
        <ele>1119</ele>
        <time>2021-12-08T08:55:52.999Z</time>
      </trkpt>
      <trkpt lat="42.91315" lon="-0.61219">
        <ele>1119</ele>
        <time>2021-12-08T08:55:57.999Z</time>
      </trkpt>
      <trkpt lat="42.91312" lon="-0.61222">
        <ele>1119</ele>
        <time>2021-12-08T08:56:02.999Z</time>
      </trkpt>
      <trkpt lat="42.91309" lon="-0.61225">
        <ele>1119</ele>
        <time>2021-12-08T08:56:07.999Z</time>
      </trkpt>
      <trkpt lat="42.91307" lon="-0.61229">
        <ele>1119</ele>
        <time>2021-12-08T08:56:12.999Z</time>
      </trkpt>
      <trkpt lat="42.91305" lon="-0.61232">
        <ele>1119</ele>
        <time>2021-12-08T08:56:17.999Z</time>
      </trkpt>
      <trkpt lat="42.91302" lon="-0.61235">
        <ele>1119</ele>
        <time>2021-12-08T08:56:22.999Z</time>
      </trkpt>
      <trkpt lat="42.91299" lon="-0.6124">
        <ele>1109</ele>
        <time>2021-12-08T08:56:32.999Z</time>
      </trkpt>
      <trkpt lat="42.91297" lon="-0.61241">
        <ele>1109</ele>
        <time>2021-12-08T08:56:37.999Z</time>
      </trkpt>
      <trkpt lat="42.91296" lon="-0.61241">
        <ele>1109</ele>
        <time>2021-12-08T08:56:41.999Z</time>
      </trkpt>
      <trkpt lat="42.91295" lon="-0.61242">
        <ele>1109</ele>
        <time>2021-12-08T08:56:45.999Z</time>
      </trkpt>
      <trkpt lat="42.91291" lon="-0.61243">
        <ele>1121</ele>
        <time>2021-12-08T08:56:50.999Z</time>
      </trkpt>
      <trkpt lat="42.91287" lon="-0.61248">
        <ele>1121</ele>
        <time>2021-12-08T08:57:00.999Z</time>
      </trkpt>
      <trkpt lat="42.91284" lon="-0.61249">
        <ele>1121</ele>
        <time>2021-12-08T08:57:05.999Z</time>
      </trkpt>
      <trkpt lat="42.91283" lon="-0.61248">
        <ele>1121</ele>
        <time>2021-12-08T08:57:09.999Z</time>
      </trkpt>
      <trkpt lat="42.91281" lon="-0.6125">
        <ele>1121</ele>
        <time>2021-12-08T08:57:14.999Z</time>
      </trkpt>
      <trkpt lat="42.91278" lon="-0.61253">
        <ele>1121</ele>
        <time>2021-12-08T08:57:19.999Z</time>
      </trkpt>
      <trkpt lat="42.91275" lon="-0.61256">
        <ele>1121</ele>
        <time>2021-12-08T08:57:24.999Z</time>
      </trkpt>
      <trkpt lat="42.91272" lon="-0.61258">
        <ele>1121</ele>
        <time>2021-12-08T08:57:29.999Z</time>
      </trkpt>
      <trkpt lat="42.91269" lon="-0.61261">
        <ele>1121</ele>
        <time>2021-12-08T08:57:33.999Z</time>
      </trkpt>
      <trkpt lat="42.91267" lon="-0.61263">
        <ele>1121</ele>
        <time>2021-12-08T08:57:38.999Z</time>
      </trkpt>
      <trkpt lat="42.91265" lon="-0.61265">
        <ele>1116</ele>
        <time>2021-12-08T08:57:43.999Z</time>
      </trkpt>
      <trkpt lat="42.91263" lon="-0.61266">
        <ele>1126</ele>
        <time>2021-12-08T08:57:48.999Z</time>
      </trkpt>
      <trkpt lat="42.91261" lon="-0.61268">
        <ele>1126</ele>
        <time>2021-12-08T08:57:52.999Z</time>
      </trkpt>
      <trkpt lat="42.91258" lon="-0.6127">
        <ele>1126</ele>
        <time>2021-12-08T08:57:57.999Z</time>
      </trkpt>
      <trkpt lat="42.91255" lon="-0.6127">
        <ele>1126</ele>
        <time>2021-12-08T08:58:02.999Z</time>
      </trkpt>
      <trkpt lat="42.91252" lon="-0.61271">
        <ele>1126</ele>
        <time>2021-12-08T08:58:07.999Z</time>
      </trkpt>
      <trkpt lat="42.91248" lon="-0.61272">
        <ele>1126</ele>
        <time>2021-12-08T08:58:12.999Z</time>
      </trkpt>
      <trkpt lat="42.91246" lon="-0.61274">
        <ele>1126</ele>
        <time>2021-12-08T08:58:17.999Z</time>
      </trkpt>
      <trkpt lat="42.91243" lon="-0.61275">
        <ele>1126</ele>
        <time>2021-12-08T08:58:22.999Z</time>
      </trkpt>
      <trkpt lat="42.91241" lon="-0.61276">
        <ele>1126</ele>
        <time>2021-12-08T08:58:26.999Z</time>
      </trkpt>
      <trkpt lat="42.91239" lon="-0.61276">
        <ele>1126</ele>
        <time>2021-12-08T08:58:31.999Z</time>
      </trkpt>
      <trkpt lat="42.91235" lon="-0.61277">
        <ele>1133</ele>
        <time>2021-12-08T08:58:36.999Z</time>
      </trkpt>
      <trkpt lat="42.91231" lon="-0.61278">
        <ele>1133</ele>
        <time>2021-12-08T08:58:41.999Z</time>
      </trkpt>
      <trkpt lat="42.91229" lon="-0.61281">
        <ele>1133</ele>
        <time>2021-12-08T08:58:46.999Z</time>
      </trkpt>
      <trkpt lat="42.91226" lon="-0.61283">
        <ele>1133</ele>
        <time>2021-12-08T08:58:51.999Z</time>
      </trkpt>
      <trkpt lat="42.91225" lon="-0.61284">
        <ele>1133</ele>
        <time>2021-12-08T08:58:55.999Z</time>
      </trkpt>
      <trkpt lat="42.91222" lon="-0.61286">
        <ele>1133</ele>
        <time>2021-12-08T08:59:00.999Z</time>
      </trkpt>
      <trkpt lat="42.9122" lon="-0.61288">
        <ele>1133</ele>
        <time>2021-12-08T08:59:05.999Z</time>
      </trkpt>
      <trkpt lat="42.91218" lon="-0.6129">
        <ele>1133</ele>
        <time>2021-12-08T08:59:09.999Z</time>
      </trkpt>
      <trkpt lat="42.91215" lon="-0.61291">
        <ele>1133</ele>
        <time>2021-12-08T08:59:14.999Z</time>
      </trkpt>
      <trkpt lat="42.91213" lon="-0.6129">
        <ele>1133</ele>
        <time>2021-12-08T08:59:18.999Z</time>
      </trkpt>
      <trkpt lat="42.91211" lon="-0.61291">
        <ele>1133</ele>
        <time>2021-12-08T08:59:23.999Z</time>
      </trkpt>
      <trkpt lat="42.91209" lon="-0.61292">
        <ele>1125</ele>
        <time>2021-12-08T08:59:28.999Z</time>
      </trkpt>
      <trkpt lat="42.91203" lon="-0.61295">
        <ele>1139</ele>
        <time>2021-12-08T08:59:43.999Z</time>
      </trkpt>
      <trkpt lat="42.91202" lon="-0.61295">
        <ele>1139</ele>
        <time>2021-12-08T08:59:48.999Z</time>
      </trkpt>
      <trkpt lat="42.91201" lon="-0.61292">
        <ele>1139</ele>
        <time>2021-12-08T08:59:53.999Z</time>
      </trkpt>
      <trkpt lat="42.91201" lon="-0.61288">
        <ele>1150</ele>
        <time>2021-12-08T08:59:58.999Z</time>
      </trkpt>
      <trkpt lat="42.91201" lon="-0.61284">
        <ele>1150</ele>
        <time>2021-12-08T09:00:03.999Z</time>
      </trkpt>
      <trkpt lat="42.91199" lon="-0.61279">
        <ele>1150</ele>
        <time>2021-12-08T09:00:13.999Z</time>
      </trkpt>
      <trkpt lat="42.91199" lon="-0.61276">
        <ele>1150</ele>
        <time>2021-12-08T09:00:18.999Z</time>
      </trkpt>
      <trkpt lat="42.912" lon="-0.61273">
        <ele>1150</ele>
        <time>2021-12-08T09:00:23.999Z</time>
      </trkpt>
      <trkpt lat="42.91201" lon="-0.6127">
        <ele>1150</ele>
        <time>2021-12-08T09:00:28.999Z</time>
      </trkpt>
      <trkpt lat="42.91202" lon="-0.61267">
        <ele>1150</ele>
        <time>2021-12-08T09:00:33.999Z</time>
      </trkpt>
      <trkpt lat="42.91204" lon="-0.61264">
        <ele>1150</ele>
        <time>2021-12-08T09:00:38.999Z</time>
      </trkpt>
      <trkpt lat="42.91206" lon="-0.61261">
        <ele>1158</ele>
        <time>2021-12-08T09:00:43.999Z</time>
      </trkpt>
      <trkpt lat="42.91209" lon="-0.61259">
        <ele>1143</ele>
        <time>2021-12-08T09:00:48.999Z</time>
      </trkpt>
      <trkpt lat="42.9121" lon="-0.61258">
        <ele>1143</ele>
        <time>2021-12-08T09:00:52.999Z</time>
      </trkpt>
      <trkpt lat="42.91211" lon="-0.61254">
        <ele>1143</ele>
        <time>2021-12-08T09:00:57.999Z</time>
      </trkpt>
      <trkpt lat="42.91213" lon="-0.61251">
        <ele>1143</ele>
        <time>2021-12-08T09:01:02.999Z</time>
      </trkpt>
      <trkpt lat="42.91215" lon="-0.61248">
        <ele>1143</ele>
        <time>2021-12-08T09:01:07.999Z</time>
      </trkpt>
      <trkpt lat="42.91218" lon="-0.61245">
        <ele>1143</ele>
        <time>2021-12-08T09:01:12.999Z</time>
      </trkpt>
      <trkpt lat="42.9122" lon="-0.61242">
        <ele>1143</ele>
        <time>2021-12-08T09:01:17.999Z</time>
      </trkpt>
      <trkpt lat="42.9122" lon="-0.6124">
        <ele>1143</ele>
        <time>2021-12-08T09:01:27.999Z</time>
      </trkpt>
      <trkpt lat="42.9122" lon="-0.6124">
        <ele>1143</ele>
        <time>2021-12-08T09:01:32.999Z</time>
      </trkpt>
      <trkpt lat="42.91222" lon="-0.61237">
        <ele>1143</ele>
        <time>2021-12-08T09:01:37.999Z</time>
      </trkpt>
      <trkpt lat="42.91224" lon="-0.61233">
        <ele>1154</ele>
        <time>2021-12-08T09:01:42.999Z</time>
      </trkpt>
      <trkpt lat="42.91226" lon="-0.61231">
        <ele>1154</ele>
        <time>2021-12-08T09:01:47.999Z</time>
      </trkpt>
      <trkpt lat="42.91228" lon="-0.61229">
        <ele>1154</ele>
        <time>2021-12-08T09:01:52.999Z</time>
      </trkpt>
      <trkpt lat="42.91229" lon="-0.61225">
        <ele>1154</ele>
        <time>2021-12-08T09:01:56.999Z</time>
      </trkpt>
      <trkpt lat="42.91231" lon="-0.61221">
        <ele>1154</ele>
        <time>2021-12-08T09:02:01.999Z</time>
      </trkpt>
      <trkpt lat="42.91232" lon="-0.61217">
        <ele>1154</ele>
        <time>2021-12-08T09:02:06.999Z</time>
      </trkpt>
      <trkpt lat="42.91234" lon="-0.61214">
        <ele>1154</ele>
        <time>2021-12-08T09:02:11.999Z</time>
      </trkpt>
      <trkpt lat="42.91235" lon="-0.6121">
        <ele>1154</ele>
        <time>2021-12-08T09:02:16.999Z</time>
      </trkpt>
      <trkpt lat="42.91236" lon="-0.61207">
        <ele>1154</ele>
        <time>2021-12-08T09:02:20.999Z</time>
      </trkpt>
      <trkpt lat="42.91238" lon="-0.61203">
        <ele>1154</ele>
        <time>2021-12-08T09:02:25.999Z</time>
      </trkpt>
      <trkpt lat="42.9124" lon="-0.61201">
        <ele>1154</ele>
        <time>2021-12-08T09:02:30.999Z</time>
      </trkpt>
      <trkpt lat="42.91244" lon="-0.61194">
        <ele>1154</ele>
        <time>2021-12-08T09:02:44.999Z</time>
      </trkpt>
      <trkpt lat="42.91246" lon="-0.6119">
        <ele>1154</ele>
        <time>2021-12-08T09:02:49.999Z</time>
      </trkpt>
      <trkpt lat="42.91247" lon="-0.61186">
        <ele>1154</ele>
        <time>2021-12-08T09:02:54.999Z</time>
      </trkpt>
      <trkpt lat="42.91249" lon="-0.61183">
        <ele>1154</ele>
        <time>2021-12-08T09:02:59.999Z</time>
      </trkpt>
      <trkpt lat="42.91252" lon="-0.61181">
        <ele>1154</ele>
        <time>2021-12-08T09:03:04.999Z</time>
      </trkpt>
      <trkpt lat="42.91253" lon="-0.61179">
        <ele>1163</ele>
        <time>2021-12-08T09:03:08.999Z</time>
      </trkpt>
      <trkpt lat="42.91255" lon="-0.61176">
        <ele>1163</ele>
        <time>2021-12-08T09:03:13.999Z</time>
      </trkpt>
      <trkpt lat="42.91258" lon="-0.61174">
        <ele>1163</ele>
        <time>2021-12-08T09:03:18.999Z</time>
      </trkpt>
      <trkpt lat="42.91259" lon="-0.61172">
        <ele>1163</ele>
        <time>2021-12-08T09:03:22.999Z</time>
      </trkpt>
      <trkpt lat="42.9126" lon="-0.61169">
        <ele>1163</ele>
        <time>2021-12-08T09:03:26.999Z</time>
      </trkpt>
      <trkpt lat="42.91261" lon="-0.61167">
        <ele>1163</ele>
        <time>2021-12-08T09:03:31.999Z</time>
      </trkpt>
      <trkpt lat="42.91263" lon="-0.61164">
        <ele>1163</ele>
        <time>2021-12-08T09:03:36.999Z</time>
      </trkpt>
      <trkpt lat="42.91265" lon="-0.6116">
        <ele>1157</ele>
        <time>2021-12-08T09:03:41.999Z</time>
      </trkpt>
      <trkpt lat="42.91266" lon="-0.61156">
        <ele>1157</ele>
        <time>2021-12-08T09:03:46.999Z</time>
      </trkpt>
      <trkpt lat="42.91268" lon="-0.61152">
        <ele>1163</ele>
        <time>2021-12-08T09:03:51.999Z</time>
      </trkpt>
      <trkpt lat="42.9127" lon="-0.61151">
        <ele>1163</ele>
        <time>2021-12-08T09:03:55.999Z</time>
      </trkpt>
      <trkpt lat="42.91272" lon="-0.61147">
        <ele>1163</ele>
        <time>2021-12-08T09:04:00.999Z</time>
      </trkpt>
      <trkpt lat="42.91273" lon="-0.61144">
        <ele>1163</ele>
        <time>2021-12-08T09:04:05.999Z</time>
      </trkpt>
      <trkpt lat="42.91274" lon="-0.61141">
        <ele>1163</ele>
        <time>2021-12-08T09:04:10.999Z</time>
      </trkpt>
      <trkpt lat="42.91277" lon="-0.6114">
        <ele>1163</ele>
        <time>2021-12-08T09:04:14.999Z</time>
      </trkpt>
      <trkpt lat="42.91278" lon="-0.61136">
        <ele>1163</ele>
        <time>2021-12-08T09:04:19.999Z</time>
      </trkpt>
      <trkpt lat="42.91278" lon="-0.61132">
        <ele>1163</ele>
        <time>2021-12-08T09:04:24.999Z</time>
      </trkpt>
      <trkpt lat="42.91277" lon="-0.61129">
        <ele>1163</ele>
        <time>2021-12-08T09:04:29.999Z</time>
      </trkpt>
      <trkpt lat="42.91275" lon="-0.61125">
        <ele>1163</ele>
        <time>2021-12-08T09:04:34.999Z</time>
      </trkpt>
      <trkpt lat="42.91275" lon="-0.61111">
        <ele>1168</ele>
        <time>2021-12-08T09:06:47.999Z</time>
      </trkpt>
      <trkpt lat="42.91275" lon="-0.6111">
        <ele>1168</ele>
        <time>2021-12-08T09:06:52.999Z</time>
      </trkpt>
      <trkpt lat="42.91274" lon="-0.6111">
        <ele>1168</ele>
        <time>2021-12-08T09:06:57.999Z</time>
      </trkpt>
      <trkpt lat="42.91271" lon="-0.61111">
        <ele>1168</ele>
        <time>2021-12-08T09:07:01.999Z</time>
      </trkpt>
      <trkpt lat="42.91269" lon="-0.61112">
        <ele>1168</ele>
        <time>2021-12-08T09:07:06.999Z</time>
      </trkpt>
      <trkpt lat="42.91267" lon="-0.61108">
        <ele>1168</ele>
        <time>2021-12-08T09:07:11.999Z</time>
      </trkpt>
      <trkpt lat="42.91263" lon="-0.61108">
        <ele>1182</ele>
        <time>2021-12-08T09:07:16.999Z</time>
      </trkpt>
      <trkpt lat="42.91261" lon="-0.61109">
        <ele>1182</ele>
        <time>2021-12-08T09:07:21.999Z</time>
      </trkpt>
      <trkpt lat="42.91257" lon="-0.61113">
        <ele>1182</ele>
        <time>2021-12-08T09:07:26.999Z</time>
      </trkpt>
      <trkpt lat="42.91256" lon="-0.61117">
        <ele>1182</ele>
        <time>2021-12-08T09:07:30.999Z</time>
      </trkpt>
      <trkpt lat="42.91252" lon="-0.61117">
        <ele>1182</ele>
        <time>2021-12-08T09:07:35.999Z</time>
      </trkpt>
      <trkpt lat="42.9125" lon="-0.61119">
        <ele>1182</ele>
        <time>2021-12-08T09:07:40.999Z</time>
      </trkpt>
      <trkpt lat="42.91248" lon="-0.61122">
        <ele>1182</ele>
        <time>2021-12-08T09:07:45.999Z</time>
      </trkpt>
      <trkpt lat="42.91246" lon="-0.61123">
        <ele>1182</ele>
        <time>2021-12-08T09:07:50.999Z</time>
      </trkpt>
      <trkpt lat="42.91239" lon="-0.6113">
        <ele>1173</ele>
        <time>2021-12-08T09:08:29.999Z</time>
      </trkpt>
      <trkpt lat="42.91235" lon="-0.61131">
        <ele>1184</ele>
        <time>2021-12-08T09:08:34.999Z</time>
      </trkpt>
      <trkpt lat="42.91233" lon="-0.61134">
        <ele>1184</ele>
        <time>2021-12-08T09:08:39.999Z</time>
      </trkpt>
      <trkpt lat="42.91231" lon="-0.61135">
        <ele>1184</ele>
        <time>2021-12-08T09:08:44.999Z</time>
      </trkpt>
      <trkpt lat="42.91229" lon="-0.61138">
        <ele>1184</ele>
        <time>2021-12-08T09:08:48.999Z</time>
      </trkpt>
      <trkpt lat="42.91225" lon="-0.61142">
        <ele>1184</ele>
        <time>2021-12-08T09:08:53.999Z</time>
      </trkpt>
      <trkpt lat="42.91222" lon="-0.61145">
        <ele>1184</ele>
        <time>2021-12-08T09:08:58.999Z</time>
      </trkpt>
      <trkpt lat="42.9122" lon="-0.61147">
        <ele>1184</ele>
        <time>2021-12-08T09:09:03.999Z</time>
      </trkpt>
      <trkpt lat="42.91216" lon="-0.61149">
        <ele>1184</ele>
        <time>2021-12-08T09:09:08.999Z</time>
      </trkpt>
      <trkpt lat="42.91212" lon="-0.61151">
        <ele>1184</ele>
        <time>2021-12-08T09:09:12.999Z</time>
      </trkpt>
      <trkpt lat="42.91209" lon="-0.61153">
        <ele>1172</ele>
        <time>2021-12-08T09:09:17.999Z</time>
      </trkpt>
      <trkpt lat="42.91206" lon="-0.61155">
        <ele>1182</ele>
        <time>2021-12-08T09:09:22.999Z</time>
      </trkpt>
      <trkpt lat="42.91205" lon="-0.61156">
        <ele>1182</ele>
        <time>2021-12-08T09:09:27.999Z</time>
      </trkpt>
      <trkpt lat="42.91203" lon="-0.61158">
        <ele>1182</ele>
        <time>2021-12-08T09:09:31.999Z</time>
      </trkpt>
      <trkpt lat="42.912" lon="-0.6116">
        <ele>1182</ele>
        <time>2021-12-08T09:09:36.999Z</time>
      </trkpt>
      <trkpt lat="42.91198" lon="-0.61162">
        <ele>1182</ele>
        <time>2021-12-08T09:09:40.999Z</time>
      </trkpt>
      <trkpt lat="42.91195" lon="-0.61164">
        <ele>1182</ele>
        <time>2021-12-08T09:09:45.999Z</time>
      </trkpt>
      <trkpt lat="42.91193" lon="-0.61166">
        <ele>1182</ele>
        <time>2021-12-08T09:09:49.999Z</time>
      </trkpt>
      <trkpt lat="42.91191" lon="-0.61168">
        <ele>1182</ele>
        <time>2021-12-08T09:09:53.999Z</time>
      </trkpt>
      <trkpt lat="42.91188" lon="-0.6117">
        <ele>1182</ele>
        <time>2021-12-08T09:09:58.999Z</time>
      </trkpt>
      <trkpt lat="42.91186" lon="-0.61172">
        <ele>1182</ele>
        <time>2021-12-08T09:10:03.999Z</time>
      </trkpt>
      <trkpt lat="42.91184" lon="-0.61174">
        <ele>1182</ele>
        <time>2021-12-08T09:10:08.999Z</time>
      </trkpt>
      <trkpt lat="42.91182" lon="-0.61175">
        <ele>1182</ele>
        <time>2021-12-08T09:10:13.999Z</time>
      </trkpt>
      <trkpt lat="42.91179" lon="-0.61175">
        <ele>1199</ele>
        <time>2021-12-08T09:10:18.999Z</time>
      </trkpt>
      <trkpt lat="42.91176" lon="-0.61177">
        <ele>1199</ele>
        <time>2021-12-08T09:10:23.999Z</time>
      </trkpt>
      <trkpt lat="42.91174" lon="-0.61179">
        <ele>1199</ele>
        <time>2021-12-08T09:10:28.999Z</time>
      </trkpt>
      <trkpt lat="42.91171" lon="-0.61181">
        <ele>1190</ele>
        <time>2021-12-08T09:10:33.999Z</time>
      </trkpt>
      <trkpt lat="42.91168" lon="-0.61184">
        <ele>1190</ele>
        <time>2021-12-08T09:10:38.999Z</time>
      </trkpt>
      <trkpt lat="42.91162" lon="-0.61188">
        <ele>1190</ele>
        <time>2021-12-08T09:10:48.999Z</time>
      </trkpt>
      <trkpt lat="42.91161" lon="-0.6119">
        <ele>1190</ele>
        <time>2021-12-08T09:10:52.999Z</time>
      </trkpt>
      <trkpt lat="42.91159" lon="-0.6119">
        <ele>1190</ele>
        <time>2021-12-08T09:10:57.999Z</time>
      </trkpt>
      <trkpt lat="42.91157" lon="-0.61191">
        <ele>1190</ele>
        <time>2021-12-08T09:11:02.999Z</time>
      </trkpt>
      <trkpt lat="42.91154" lon="-0.61193">
        <ele>1190</ele>
        <time>2021-12-08T09:11:06.999Z</time>
      </trkpt>
      <trkpt lat="42.91151" lon="-0.61195">
        <ele>1207</ele>
        <time>2021-12-08T09:11:11.999Z</time>
      </trkpt>
      <trkpt lat="42.91149" lon="-0.61197">
        <ele>1207</ele>
        <time>2021-12-08T09:11:16.999Z</time>
      </trkpt>
      <trkpt lat="42.91147" lon="-0.612">
        <ele>1207</ele>
        <time>2021-12-08T09:11:21.999Z</time>
      </trkpt>
      <trkpt lat="42.91146" lon="-0.61204">
        <ele>1207</ele>
        <time>2021-12-08T09:11:26.999Z</time>
      </trkpt>
      <trkpt lat="42.91144" lon="-0.61208">
        <ele>1207</ele>
        <time>2021-12-08T09:11:31.999Z</time>
      </trkpt>
      <trkpt lat="42.91143" lon="-0.61209">
        <ele>1199</ele>
        <time>2021-12-08T09:11:35.999Z</time>
      </trkpt>
      <trkpt lat="42.9114" lon="-0.6121">
        <ele>1199</ele>
        <time>2021-12-08T09:11:40.999Z</time>
      </trkpt>
      <trkpt lat="42.91137" lon="-0.61211">
        <ele>1199</ele>
        <time>2021-12-08T09:11:45.999Z</time>
      </trkpt>
      <trkpt lat="42.91135" lon="-0.61211">
        <ele>1199</ele>
        <time>2021-12-08T09:11:50.999Z</time>
      </trkpt>
      <trkpt lat="42.91133" lon="-0.61211">
        <ele>1199</ele>
        <time>2021-12-08T09:11:55.999Z</time>
      </trkpt>
      <trkpt lat="42.91128" lon="-0.61214">
        <ele>1199</ele>
        <time>2021-12-08T09:12:05.999Z</time>
      </trkpt>
      <trkpt lat="42.91126" lon="-0.61215">
        <ele>1199</ele>
        <time>2021-12-08T09:12:10.999Z</time>
      </trkpt>
      <trkpt lat="42.91125" lon="-0.61211">
        <ele>1199</ele>
        <time>2021-12-08T09:12:15.999Z</time>
      </trkpt>
      <trkpt lat="42.91123" lon="-0.61209">
        <ele>1221</ele>
        <time>2021-12-08T09:12:20.999Z</time>
      </trkpt>
      <trkpt lat="42.91121" lon="-0.6121">
        <ele>1221</ele>
        <time>2021-12-08T09:12:25.999Z</time>
      </trkpt>
      <trkpt lat="42.91118" lon="-0.61207">
        <ele>1224</ele>
        <time>2021-12-08T09:12:30.999Z</time>
      </trkpt>
      <trkpt lat="42.91116" lon="-0.61207">
        <ele>1224</ele>
        <time>2021-12-08T09:12:34.999Z</time>
      </trkpt>
      <trkpt lat="42.91116" lon="-0.61202">
        <ele>1224</ele>
        <time>2021-12-08T09:12:39.999Z</time>
      </trkpt>
      <trkpt lat="42.91117" lon="-0.61196">
        <ele>1224</ele>
        <time>2021-12-08T09:12:44.999Z</time>
      </trkpt>
      <trkpt lat="42.91116" lon="-0.61194">
        <ele>1224</ele>
        <time>2021-12-08T09:12:49.999Z</time>
      </trkpt>
      <trkpt lat="42.91117" lon="-0.61187">
        <ele>1224</ele>
        <time>2021-12-08T09:12:54.999Z</time>
      </trkpt>
      <trkpt lat="42.91117" lon="-0.61182">
        <ele>1224</ele>
        <time>2021-12-08T09:12:59.999Z</time>
      </trkpt>
      <trkpt lat="42.91119" lon="-0.61175">
        <ele>1231</ele>
        <time>2021-12-08T09:13:04.999Z</time>
      </trkpt>
      <trkpt lat="42.9112" lon="-0.61169">
        <ele>1231</ele>
        <time>2021-12-08T09:13:09.999Z</time>
      </trkpt>
      <trkpt lat="42.91122" lon="-0.61167">
        <ele>1231</ele>
        <time>2021-12-08T09:13:24.999Z</time>
      </trkpt>
      <trkpt lat="42.91123" lon="-0.61167">
        <ele>1231</ele>
        <time>2021-12-08T09:13:29.999Z</time>
      </trkpt>
      <trkpt lat="42.91125" lon="-0.61165">
        <ele>1231</ele>
        <time>2021-12-08T09:13:33.999Z</time>
      </trkpt>
      <trkpt lat="42.91129" lon="-0.61164">
        <ele>1215</ele>
        <time>2021-12-08T09:13:38.999Z</time>
      </trkpt>
      <trkpt lat="42.91132" lon="-0.61161">
        <ele>1215</ele>
        <time>2021-12-08T09:13:43.999Z</time>
      </trkpt>
      <trkpt lat="42.91131" lon="-0.61159">
        <ele>1215</ele>
        <time>2021-12-08T09:13:48.999Z</time>
      </trkpt>
      <trkpt lat="42.91134" lon="-0.61158">
        <ele>1215</ele>
        <time>2021-12-08T09:13:52.999Z</time>
      </trkpt>
      <trkpt lat="42.91136" lon="-0.61156">
        <ele>1215</ele>
        <time>2021-12-08T09:13:57.999Z</time>
      </trkpt>
      <trkpt lat="42.91139" lon="-0.61155">
        <ele>1215</ele>
        <time>2021-12-08T09:14:02.999Z</time>
      </trkpt>
      <trkpt lat="42.91141" lon="-0.61153">
        <ele>1215</ele>
        <time>2021-12-08T09:14:07.999Z</time>
      </trkpt>
      <trkpt lat="42.91145" lon="-0.61149">
        <ele>1228</ele>
        <time>2021-12-08T09:14:17.999Z</time>
      </trkpt>
      <trkpt lat="42.91148" lon="-0.61148">
        <ele>1228</ele>
        <time>2021-12-08T09:14:22.999Z</time>
      </trkpt>
      <trkpt lat="42.91148" lon="-0.61145">
        <ele>1228</ele>
        <time>2021-12-08T09:14:27.999Z</time>
      </trkpt>
      <trkpt lat="42.91149" lon="-0.61143">
        <ele>1228</ele>
        <time>2021-12-08T09:14:31.999Z</time>
      </trkpt>
      <trkpt lat="42.9115" lon="-0.6114">
        <ele>1228</ele>
        <time>2021-12-08T09:14:36.999Z</time>
      </trkpt>
      <trkpt lat="42.91151" lon="-0.61138">
        <ele>1228</ele>
        <time>2021-12-08T09:14:41.999Z</time>
      </trkpt>
      <trkpt lat="42.91153" lon="-0.61136">
        <ele>1211</ele>
        <time>2021-12-08T09:14:46.999Z</time>
      </trkpt>
      <trkpt lat="42.91157" lon="-0.61135">
        <ele>1211</ele>
        <time>2021-12-08T09:14:51.999Z</time>
      </trkpt>
      <trkpt lat="42.91159" lon="-0.61133">
        <ele>1211</ele>
        <time>2021-12-08T09:14:56.999Z</time>
      </trkpt>
      <trkpt lat="42.91159" lon="-0.6113">
        <ele>1211</ele>
        <time>2021-12-08T09:15:01.999Z</time>
      </trkpt>
      <trkpt lat="42.91157" lon="-0.61126">
        <ele>1211</ele>
        <time>2021-12-08T09:18:37.999Z</time>
      </trkpt>
      <trkpt lat="42.91157" lon="-0.61126">
        <ele>1211</ele>
        <time>2021-12-08T09:18:42.999Z</time>
      </trkpt>
      <trkpt lat="42.91156" lon="-0.61127">
        <ele>1211</ele>
        <time>2021-12-08T09:18:47.999Z</time>
      </trkpt>
      <trkpt lat="42.91154" lon="-0.61128">
        <ele>1211</ele>
        <time>2021-12-08T09:18:52.999Z</time>
      </trkpt>
      <trkpt lat="42.91151" lon="-0.6113">
        <ele>1228</ele>
        <time>2021-12-08T09:18:57.999Z</time>
      </trkpt>
      <trkpt lat="42.91149" lon="-0.61132">
        <ele>1228</ele>
        <time>2021-12-08T09:19:02.999Z</time>
      </trkpt>
      <trkpt lat="42.91145" lon="-0.61133">
        <ele>1228</ele>
        <time>2021-12-08T09:19:07.999Z</time>
      </trkpt>
      <trkpt lat="42.91141" lon="-0.61133">
        <ele>1228</ele>
        <time>2021-12-08T09:19:12.999Z</time>
      </trkpt>
      <trkpt lat="42.91138" lon="-0.61132">
        <ele>1228</ele>
        <time>2021-12-08T09:19:17.999Z</time>
      </trkpt>
      <trkpt lat="42.91134" lon="-0.61135">
        <ele>1228</ele>
        <time>2021-12-08T09:19:22.999Z</time>
      </trkpt>
      <trkpt lat="42.91131" lon="-0.61135">
        <ele>1228</ele>
        <time>2021-12-08T09:19:27.999Z</time>
      </trkpt>
      <trkpt lat="42.91129" lon="-0.61136">
        <ele>1228</ele>
        <time>2021-12-08T09:19:32.999Z</time>
      </trkpt>
      <trkpt lat="42.91127" lon="-0.61133">
        <ele>1228</ele>
        <time>2021-12-08T09:19:37.999Z</time>
      </trkpt>
      <trkpt lat="42.91124" lon="-0.61135">
        <ele>1240</ele>
        <time>2021-12-08T09:19:42.999Z</time>
      </trkpt>
      <trkpt lat="42.91121" lon="-0.61137">
        <ele>1240</ele>
        <time>2021-12-08T09:19:47.999Z</time>
      </trkpt>
      <trkpt lat="42.91118" lon="-0.61136">
        <ele>1240</ele>
        <time>2021-12-08T09:19:52.999Z</time>
      </trkpt>
      <trkpt lat="42.91115" lon="-0.61138">
        <ele>1240</ele>
        <time>2021-12-08T09:19:57.999Z</time>
      </trkpt>
      <trkpt lat="42.91112" lon="-0.6114">
        <ele>1240</ele>
        <time>2021-12-08T09:20:01.999Z</time>
      </trkpt>
      <trkpt lat="42.91109" lon="-0.61141">
        <ele>1240</ele>
        <time>2021-12-08T09:20:06.999Z</time>
      </trkpt>
      <trkpt lat="42.91106" lon="-0.61142">
        <ele>1240</ele>
        <time>2021-12-08T09:20:11.999Z</time>
      </trkpt>
      <trkpt lat="42.91103" lon="-0.61143">
        <ele>1240</ele>
        <time>2021-12-08T09:20:15.999Z</time>
      </trkpt>
      <trkpt lat="42.911" lon="-0.61143">
        <ele>1240</ele>
        <time>2021-12-08T09:20:20.999Z</time>
      </trkpt>
      <trkpt lat="42.91097" lon="-0.61142">
        <ele>1251</ele>
        <time>2021-12-08T09:20:25.999Z</time>
      </trkpt>
      <trkpt lat="42.91094" lon="-0.61143">
        <ele>1251</ele>
        <time>2021-12-08T09:20:30.999Z</time>
      </trkpt>
      <trkpt lat="42.91092" lon="-0.61145">
        <ele>1251</ele>
        <time>2021-12-08T09:20:34.999Z</time>
      </trkpt>
      <trkpt lat="42.91088" lon="-0.61146">
        <ele>1251</ele>
        <time>2021-12-08T09:20:39.999Z</time>
      </trkpt>
      <trkpt lat="42.91087" lon="-0.61146">
        <ele>1251</ele>
        <time>2021-12-08T09:20:44.999Z</time>
      </trkpt>
      <trkpt lat="42.91084" lon="-0.61147">
        <ele>1251</ele>
        <time>2021-12-08T09:20:49.999Z</time>
      </trkpt>
      <trkpt lat="42.9108" lon="-0.61147">
        <ele>1251</ele>
        <time>2021-12-08T09:20:54.999Z</time>
      </trkpt>
      <trkpt lat="42.91077" lon="-0.6115">
        <ele>1251</ele>
        <time>2021-12-08T09:20:59.999Z</time>
      </trkpt>
      <trkpt lat="42.91075" lon="-0.61155">
        <ele>1245</ele>
        <time>2021-12-08T09:21:04.999Z</time>
      </trkpt>
      <trkpt lat="42.91075" lon="-0.61161">
        <ele>1245</ele>
        <time>2021-12-08T09:21:09.999Z</time>
      </trkpt>
      <trkpt lat="42.91072" lon="-0.61165">
        <ele>1245</ele>
        <time>2021-12-08T09:21:14.999Z</time>
      </trkpt>
      <trkpt lat="42.91071" lon="-0.61169">
        <ele>1245</ele>
        <time>2021-12-08T09:21:19.999Z</time>
      </trkpt>
      <trkpt lat="42.9107" lon="-0.61173">
        <ele>1245</ele>
        <time>2021-12-08T09:21:24.999Z</time>
      </trkpt>
      <trkpt lat="42.91069" lon="-0.61177">
        <ele>1253</ele>
        <time>2021-12-08T09:21:29.999Z</time>
      </trkpt>
      <trkpt lat="42.91068" lon="-0.61183">
        <ele>1248</ele>
        <time>2021-12-08T09:21:34.999Z</time>
      </trkpt>
      <trkpt lat="42.91067" lon="-0.61189">
        <ele>1248</ele>
        <time>2021-12-08T09:21:39.999Z</time>
      </trkpt>
      <trkpt lat="42.91066" lon="-0.61193">
        <ele>1248</ele>
        <time>2021-12-08T09:21:43.999Z</time>
      </trkpt>
      <trkpt lat="42.91064" lon="-0.61197">
        <ele>1248</ele>
        <time>2021-12-08T09:21:48.999Z</time>
      </trkpt>
      <trkpt lat="42.91062" lon="-0.612">
        <ele>1248</ele>
        <time>2021-12-08T09:21:53.999Z</time>
      </trkpt>
      <trkpt lat="42.91059" lon="-0.61202">
        <ele>1248</ele>
        <time>2021-12-08T09:21:58.999Z</time>
      </trkpt>
      <trkpt lat="42.91057" lon="-0.61206">
        <ele>1248</ele>
        <time>2021-12-08T09:22:03.999Z</time>
      </trkpt>
      <trkpt lat="42.91053" lon="-0.61209">
        <ele>1244</ele>
        <time>2021-12-08T09:22:08.999Z</time>
      </trkpt>
      <trkpt lat="42.9105" lon="-0.61211">
        <ele>1244</ele>
        <time>2021-12-08T09:22:13.999Z</time>
      </trkpt>
      <trkpt lat="42.91047" lon="-0.61212">
        <ele>1244</ele>
        <time>2021-12-08T09:22:18.999Z</time>
      </trkpt>
      <trkpt lat="42.91045" lon="-0.61212">
        <ele>1244</ele>
        <time>2021-12-08T09:22:23.999Z</time>
      </trkpt>
      <trkpt lat="42.91043" lon="-0.61209">
        <ele>1244</ele>
        <time>2021-12-08T09:22:27.999Z</time>
      </trkpt>
      <trkpt lat="42.9104" lon="-0.61206">
        <ele>1253</ele>
        <time>2021-12-08T09:22:32.999Z</time>
      </trkpt>
      <trkpt lat="42.91038" lon="-0.61202">
        <ele>1253</ele>
        <time>2021-12-08T09:22:37.999Z</time>
      </trkpt>
      <trkpt lat="42.9104" lon="-0.61196">
        <ele>1253</ele>
        <time>2021-12-08T09:22:42.999Z</time>
      </trkpt>
      <trkpt lat="42.91044" lon="-0.61195">
        <ele>1248</ele>
        <time>2021-12-08T09:22:47.999Z</time>
      </trkpt>
      <trkpt lat="42.91046" lon="-0.61193">
        <ele>1248</ele>
        <time>2021-12-08T09:22:51.999Z</time>
      </trkpt>
      <trkpt lat="42.9105" lon="-0.61191">
        <ele>1248</ele>
        <time>2021-12-08T09:22:56.999Z</time>
      </trkpt>
      <trkpt lat="42.91053" lon="-0.61188">
        <ele>1248</ele>
        <time>2021-12-08T09:23:01.999Z</time>
      </trkpt>
      <trkpt lat="42.91055" lon="-0.61184">
        <ele>1248</ele>
        <time>2021-12-08T09:23:06.999Z</time>
      </trkpt>
      <trkpt lat="42.91057" lon="-0.61181">
        <ele>1248</ele>
        <time>2021-12-08T09:23:11.999Z</time>
      </trkpt>
      <trkpt lat="42.91057" lon="-0.61178">
        <ele>1253</ele>
        <time>2021-12-08T09:23:16.999Z</time>
      </trkpt>
      <trkpt lat="42.91058" lon="-0.61175">
        <ele>1253</ele>
        <time>2021-12-08T09:23:20.999Z</time>
      </trkpt>
      <trkpt lat="42.91059" lon="-0.6117">
        <ele>1253</ele>
        <time>2021-12-08T09:23:25.999Z</time>
      </trkpt>
      <trkpt lat="42.9106" lon="-0.61165">
        <ele>1253</ele>
        <time>2021-12-08T09:23:30.999Z</time>
      </trkpt>
      <trkpt lat="42.91061" lon="-0.61161">
        <ele>1253</ele>
        <time>2021-12-08T09:23:34.999Z</time>
      </trkpt>
      <trkpt lat="42.91063" lon="-0.61157">
        <ele>1253</ele>
        <time>2021-12-08T09:23:39.999Z</time>
      </trkpt>
      <trkpt lat="42.91068" lon="-0.61155">
        <ele>1253</ele>
        <time>2021-12-08T09:23:44.999Z</time>
      </trkpt>
      <trkpt lat="42.91068" lon="-0.61151">
        <ele>1261</ele>
        <time>2021-12-08T09:23:49.999Z</time>
      </trkpt>
      <trkpt lat="42.91068" lon="-0.61148">
        <ele>1261</ele>
        <time>2021-12-08T09:23:53.999Z</time>
      </trkpt>
      <trkpt lat="42.9107" lon="-0.61145">
        <ele>1251</ele>
        <time>2021-12-08T09:23:58.999Z</time>
      </trkpt>
      <trkpt lat="42.91073" lon="-0.6114">
        <ele>1251</ele>
        <time>2021-12-08T09:24:03.999Z</time>
      </trkpt>
      <trkpt lat="42.91074" lon="-0.61135">
        <ele>1251</ele>
        <time>2021-12-08T09:24:07.999Z</time>
      </trkpt>
      <trkpt lat="42.91074" lon="-0.61131">
        <ele>1251</ele>
        <time>2021-12-08T09:24:12.999Z</time>
      </trkpt>
      <trkpt lat="42.91074" lon="-0.61127">
        <ele>1251</ele>
        <time>2021-12-08T09:24:17.999Z</time>
      </trkpt>
      <trkpt lat="42.91075" lon="-0.61124">
        <ele>1260</ele>
        <time>2021-12-08T09:24:21.999Z</time>
      </trkpt>
      <trkpt lat="42.91076" lon="-0.6112">
        <ele>1260</ele>
        <time>2021-12-08T09:24:26.999Z</time>
      </trkpt>
      <trkpt lat="42.91077" lon="-0.61117">
        <ele>1260</ele>
        <time>2021-12-08T09:24:30.999Z</time>
      </trkpt>
      <trkpt lat="42.91079" lon="-0.61112">
        <ele>1260</ele>
        <time>2021-12-08T09:24:35.999Z</time>
      </trkpt>
      <trkpt lat="42.91081" lon="-0.61107">
        <ele>1260</ele>
        <time>2021-12-08T09:24:40.999Z</time>
      </trkpt>
      <trkpt lat="42.91083" lon="-0.61104">
        <ele>1260</ele>
        <time>2021-12-08T09:24:45.999Z</time>
      </trkpt>
      <trkpt lat="42.91084" lon="-0.61101">
        <ele>1260</ele>
        <time>2021-12-08T09:24:50.999Z</time>
      </trkpt>
      <trkpt lat="42.91085" lon="-0.61099">
        <ele>1260</ele>
        <time>2021-12-08T09:24:55.999Z</time>
      </trkpt>
      <trkpt lat="42.91086" lon="-0.61097">
        <ele>1272</ele>
        <time>2021-12-08T09:24:59.999Z</time>
      </trkpt>
      <trkpt lat="42.91089" lon="-0.61093">
        <ele>1272</ele>
        <time>2021-12-08T09:25:04.999Z</time>
      </trkpt>
      <trkpt lat="42.91092" lon="-0.61088">
        <ele>1272</ele>
        <time>2021-12-08T09:25:09.999Z</time>
      </trkpt>
      <trkpt lat="42.91095" lon="-0.61083">
        <ele>1272</ele>
        <time>2021-12-08T09:25:14.999Z</time>
      </trkpt>
      <trkpt lat="42.91095" lon="-0.61077">
        <ele>1272</ele>
        <time>2021-12-08T09:25:19.999Z</time>
      </trkpt>
      <trkpt lat="42.91096" lon="-0.61073">
        <ele>1272</ele>
        <time>2021-12-08T09:25:24.999Z</time>
      </trkpt>
      <trkpt lat="42.91098" lon="-0.61069">
        <ele>1267</ele>
        <time>2021-12-08T09:25:28.999Z</time>
      </trkpt>
      <trkpt lat="42.911" lon="-0.61065">
        <ele>1267</ele>
        <time>2021-12-08T09:25:33.999Z</time>
      </trkpt>
      <trkpt lat="42.911" lon="-0.6106">
        <ele>1267</ele>
        <time>2021-12-08T09:25:38.999Z</time>
      </trkpt>
      <trkpt lat="42.91101" lon="-0.61057">
        <ele>1267</ele>
        <time>2021-12-08T09:25:42.999Z</time>
      </trkpt>
      <trkpt lat="42.91102" lon="-0.61054">
        <ele>1267</ele>
        <time>2021-12-08T09:25:47.999Z</time>
      </trkpt>
      <trkpt lat="42.91103" lon="-0.6105">
        <ele>1267</ele>
        <time>2021-12-08T09:25:52.999Z</time>
      </trkpt>
      <trkpt lat="42.91104" lon="-0.61046">
        <ele>1267</ele>
        <time>2021-12-08T09:25:57.999Z</time>
      </trkpt>
      <trkpt lat="42.91107" lon="-0.61044">
        <ele>1267</ele>
        <time>2021-12-08T09:26:02.999Z</time>
      </trkpt>
      <trkpt lat="42.91112" lon="-0.61041">
        <ele>1273</ele>
        <time>2021-12-08T09:26:07.999Z</time>
      </trkpt>
      <trkpt lat="42.91115" lon="-0.61038">
        <ele>1273</ele>
        <time>2021-12-08T09:26:12.999Z</time>
      </trkpt>
      <trkpt lat="42.91116" lon="-0.61033">
        <ele>1273</ele>
        <time>2021-12-08T09:26:17.999Z</time>
      </trkpt>
      <trkpt lat="42.91119" lon="-0.61031">
        <ele>1273</ele>
        <time>2021-12-08T09:26:22.999Z</time>
      </trkpt>
      <trkpt lat="42.91118" lon="-0.61027">
        <ele>1273</ele>
        <time>2021-12-08T09:26:26.999Z</time>
      </trkpt>
      <trkpt lat="42.91112" lon="-0.61023">
        <ele>1273</ele>
        <time>2021-12-08T09:26:31.999Z</time>
      </trkpt>
      <trkpt lat="42.91105" lon="-0.61022">
        <ele>1273</ele>
        <time>2021-12-08T09:26:36.999Z</time>
      </trkpt>
      <trkpt lat="42.91094" lon="-0.61031">
        <ele>1288</ele>
        <time>2021-12-08T09:27:20.999Z</time>
      </trkpt>
      <trkpt lat="42.91094" lon="-0.61031">
        <ele>1288</ele>
        <time>2021-12-08T09:27:25.999Z</time>
      </trkpt>
      <trkpt lat="42.91091" lon="-0.61033">
        <ele>1288</ele>
        <time>2021-12-08T09:27:30.999Z</time>
      </trkpt>
      <trkpt lat="42.9109" lon="-0.61036">
        <ele>1288</ele>
        <time>2021-12-08T09:27:35.999Z</time>
      </trkpt>
      <trkpt lat="42.91089" lon="-0.61039">
        <ele>1288</ele>
        <time>2021-12-08T09:27:40.999Z</time>
      </trkpt>
      <trkpt lat="42.91086" lon="-0.61041">
        <ele>1288</ele>
        <time>2021-12-08T09:27:44.999Z</time>
      </trkpt>
      <trkpt lat="42.91083" lon="-0.61045">
        <ele>1284</ele>
        <time>2021-12-08T09:27:49.999Z</time>
      </trkpt>
      <trkpt lat="42.91081" lon="-0.61049">
        <ele>1284</ele>
        <time>2021-12-08T09:27:54.999Z</time>
      </trkpt>
      <trkpt lat="42.91079" lon="-0.61053">
        <ele>1284</ele>
        <time>2021-12-08T09:27:59.999Z</time>
      </trkpt>
      <trkpt lat="42.91077" lon="-0.61056">
        <ele>1284</ele>
        <time>2021-12-08T09:28:04.999Z</time>
      </trkpt>
      <trkpt lat="42.91075" lon="-0.61058">
        <ele>1284</ele>
        <time>2021-12-08T09:28:09.999Z</time>
      </trkpt>
      <trkpt lat="42.91073" lon="-0.61061">
        <ele>1284</ele>
        <time>2021-12-08T09:28:14.999Z</time>
      </trkpt>
      <trkpt lat="42.91071" lon="-0.61063">
        <ele>1284</ele>
        <time>2021-12-08T09:28:19.999Z</time>
      </trkpt>
      <trkpt lat="42.91069" lon="-0.61065">
        <ele>1294</ele>
        <time>2021-12-08T09:28:24.999Z</time>
      </trkpt>
      <trkpt lat="42.91067" lon="-0.6107">
        <ele>1283</ele>
        <time>2021-12-08T09:28:29.999Z</time>
      </trkpt>
      <trkpt lat="42.91065" lon="-0.61072">
        <ele>1283</ele>
        <time>2021-12-08T09:28:34.999Z</time>
      </trkpt>
      <trkpt lat="42.91063" lon="-0.61073">
        <ele>1283</ele>
        <time>2021-12-08T09:28:39.999Z</time>
      </trkpt>
      <trkpt lat="42.91061" lon="-0.61077">
        <ele>1283</ele>
        <time>2021-12-08T09:28:44.999Z</time>
      </trkpt>
      <trkpt lat="42.91058" lon="-0.61081">
        <ele>1283</ele>
        <time>2021-12-08T09:28:49.999Z</time>
      </trkpt>
      <trkpt lat="42.91056" lon="-0.61085">
        <ele>1283</ele>
        <time>2021-12-08T09:28:54.999Z</time>
      </trkpt>
      <trkpt lat="42.91053" lon="-0.61086">
        <ele>1283</ele>
        <time>2021-12-08T09:28:59.999Z</time>
      </trkpt>
      <trkpt lat="42.9105" lon="-0.61087">
        <ele>1283</ele>
        <time>2021-12-08T09:29:04.999Z</time>
      </trkpt>
      <trkpt lat="42.91047" lon="-0.61088">
        <ele>1283</ele>
        <time>2021-12-08T09:29:09.999Z</time>
      </trkpt>
      <trkpt lat="42.91043" lon="-0.6109">
        <ele>1283</ele>
        <time>2021-12-08T09:29:14.999Z</time>
      </trkpt>
      <trkpt lat="42.9104" lon="-0.61092">
        <ele>1290</ele>
        <time>2021-12-08T09:29:19.999Z</time>
      </trkpt>
      <trkpt lat="42.91038" lon="-0.61092">
        <ele>1290</ele>
        <time>2021-12-08T09:29:24.999Z</time>
      </trkpt>
      <trkpt lat="42.91035" lon="-0.61092">
        <ele>1290</ele>
        <time>2021-12-08T09:29:29.999Z</time>
      </trkpt>
      <trkpt lat="42.91032" lon="-0.61093">
        <ele>1290</ele>
        <time>2021-12-08T09:29:34.999Z</time>
      </trkpt>
      <trkpt lat="42.91029" lon="-0.61093">
        <ele>1290</ele>
        <time>2021-12-08T09:29:39.999Z</time>
      </trkpt>
      <trkpt lat="42.91026" lon="-0.61094">
        <ele>1290</ele>
        <time>2021-12-08T09:29:44.999Z</time>
      </trkpt>
      <trkpt lat="42.91023" lon="-0.61096">
        <ele>1290</ele>
        <time>2021-12-08T09:29:49.999Z</time>
      </trkpt>
      <trkpt lat="42.91019" lon="-0.61099">
        <ele>1281</ele>
        <time>2021-12-08T09:29:54.999Z</time>
      </trkpt>
      <trkpt lat="42.91017" lon="-0.61098">
        <ele>1281</ele>
        <time>2021-12-08T09:29:59.999Z</time>
      </trkpt>
      <trkpt lat="42.91013" lon="-0.61099">
        <ele>1287</ele>
        <time>2021-12-08T09:30:04.999Z</time>
      </trkpt>
      <trkpt lat="42.91008" lon="-0.61101">
        <ele>1287</ele>
        <time>2021-12-08T09:30:09.999Z</time>
      </trkpt>
      <trkpt lat="42.91005" lon="-0.61103">
        <ele>1287</ele>
        <time>2021-12-08T09:30:14.999Z</time>
      </trkpt>
      <trkpt lat="42.91003" lon="-0.61105">
        <ele>1287</ele>
        <time>2021-12-08T09:30:19.999Z</time>
      </trkpt>
      <trkpt lat="42.91" lon="-0.61107">
        <ele>1287</ele>
        <time>2021-12-08T09:30:24.999Z</time>
      </trkpt>
      <trkpt lat="42.90997" lon="-0.61109">
        <ele>1287</ele>
        <time>2021-12-08T09:30:29.999Z</time>
      </trkpt>
      <trkpt lat="42.90994" lon="-0.61109">
        <ele>1287</ele>
        <time>2021-12-08T09:30:34.999Z</time>
      </trkpt>
      <trkpt lat="42.90993" lon="-0.61108">
        <ele>1287</ele>
        <time>2021-12-08T09:30:39.999Z</time>
      </trkpt>
      <trkpt lat="42.9099" lon="-0.61107">
        <ele>1287</ele>
        <time>2021-12-08T09:30:44.999Z</time>
      </trkpt>
      <trkpt lat="42.90987" lon="-0.61108">
        <ele>1287</ele>
        <time>2021-12-08T09:30:48.999Z</time>
      </trkpt>
      <trkpt lat="42.90984" lon="-0.61107">
        <ele>1293</ele>
        <time>2021-12-08T09:30:53.999Z</time>
      </trkpt>
      <trkpt lat="42.9098" lon="-0.61109">
        <ele>1293</ele>
        <time>2021-12-08T09:30:58.999Z</time>
      </trkpt>
      <trkpt lat="42.90977" lon="-0.6111">
        <ele>1293</ele>
        <time>2021-12-08T09:31:03.999Z</time>
      </trkpt>
      <trkpt lat="42.90972" lon="-0.61111">
        <ele>1293</ele>
        <time>2021-12-08T09:31:08.999Z</time>
      </trkpt>
      <trkpt lat="42.90968" lon="-0.61109">
        <ele>1293</ele>
        <time>2021-12-08T09:31:13.999Z</time>
      </trkpt>
      <trkpt lat="42.90966" lon="-0.61107">
        <ele>1293</ele>
        <time>2021-12-08T09:31:17.999Z</time>
      </trkpt>
      <trkpt lat="42.90963" lon="-0.61106">
        <ele>1293</ele>
        <time>2021-12-08T09:31:22.999Z</time>
      </trkpt>
      <trkpt lat="42.9096" lon="-0.61105">
        <ele>1293</ele>
        <time>2021-12-08T09:31:27.999Z</time>
      </trkpt>
      <trkpt lat="42.90957" lon="-0.61104">
        <ele>1300</ele>
        <time>2021-12-08T09:31:32.999Z</time>
      </trkpt>
      <trkpt lat="42.90955" lon="-0.61104">
        <ele>1300</ele>
        <time>2021-12-08T09:31:37.999Z</time>
      </trkpt>
      <trkpt lat="42.90953" lon="-0.61101">
        <ele>1300</ele>
        <time>2021-12-08T09:31:41.999Z</time>
      </trkpt>
      <trkpt lat="42.90951" lon="-0.61098">
        <ele>1300</ele>
        <time>2021-12-08T09:31:46.999Z</time>
      </trkpt>
      <trkpt lat="42.90949" lon="-0.61097">
        <ele>1300</ele>
        <time>2021-12-08T09:31:51.999Z</time>
      </trkpt>
      <trkpt lat="42.90945" lon="-0.61098">
        <ele>1300</ele>
        <time>2021-12-08T09:31:56.999Z</time>
      </trkpt>
      <trkpt lat="42.90942" lon="-0.61099">
        <ele>1300</ele>
        <time>2021-12-08T09:32:00.999Z</time>
      </trkpt>
      <trkpt lat="42.90938" lon="-0.61102">
        <ele>1300</ele>
        <time>2021-12-08T09:32:05.999Z</time>
      </trkpt>
      <trkpt lat="42.90935" lon="-0.61104">
        <ele>1300</ele>
        <time>2021-12-08T09:32:10.999Z</time>
      </trkpt>
      <trkpt lat="42.90934" lon="-0.61103">
        <ele>1300</ele>
        <time>2021-12-08T09:32:15.999Z</time>
      </trkpt>
      <trkpt lat="42.90931" lon="-0.6111">
        <ele>1300</ele>
        <time>2021-12-08T09:32:20.999Z</time>
      </trkpt>
      <trkpt lat="42.90928" lon="-0.61114">
        <ele>1309</ele>
        <time>2021-12-08T09:32:25.999Z</time>
      </trkpt>
      <trkpt lat="42.90924" lon="-0.61117">
        <ele>1309</ele>
        <time>2021-12-08T09:32:30.999Z</time>
      </trkpt>
      <trkpt lat="42.9092" lon="-0.61117">
        <ele>1309</ele>
        <time>2021-12-08T09:32:35.999Z</time>
      </trkpt>
      <trkpt lat="42.90917" lon="-0.6112">
        <ele>1309</ele>
        <time>2021-12-08T09:32:40.999Z</time>
      </trkpt>
      <trkpt lat="42.90913" lon="-0.61119">
        <ele>1309</ele>
        <time>2021-12-08T09:32:45.999Z</time>
      </trkpt>
      <trkpt lat="42.90911" lon="-0.61118">
        <ele>1309</ele>
        <time>2021-12-08T09:32:50.999Z</time>
      </trkpt>
      <trkpt lat="42.90908" lon="-0.61119">
        <ele>1309</ele>
        <time>2021-12-08T09:32:55.999Z</time>
      </trkpt>
      <trkpt lat="42.90905" lon="-0.6112">
        <ele>1309</ele>
        <time>2021-12-08T09:33:00.999Z</time>
      </trkpt>
      <trkpt lat="42.90903" lon="-0.61122">
        <ele>1309</ele>
        <time>2021-12-08T09:33:04.999Z</time>
      </trkpt>
      <trkpt lat="42.909" lon="-0.61124">
        <ele>1315</ele>
        <time>2021-12-08T09:33:09.999Z</time>
      </trkpt>
      <trkpt lat="42.90897" lon="-0.61126">
        <ele>1306</ele>
        <time>2021-12-08T09:33:14.999Z</time>
      </trkpt>
      <trkpt lat="42.90895" lon="-0.61127">
        <ele>1306</ele>
        <time>2021-12-08T09:33:19.999Z</time>
      </trkpt>
      <trkpt lat="42.90892" lon="-0.61128">
        <ele>1306</ele>
        <time>2021-12-08T09:33:24.999Z</time>
      </trkpt>
      <trkpt lat="42.9089" lon="-0.61129">
        <ele>1306</ele>
        <time>2021-12-08T09:33:28.999Z</time>
      </trkpt>
      <trkpt lat="42.90887" lon="-0.6113">
        <ele>1306</ele>
        <time>2021-12-08T09:33:33.999Z</time>
      </trkpt>
      <trkpt lat="42.90883" lon="-0.6113">
        <ele>1306</ele>
        <time>2021-12-08T09:33:38.999Z</time>
      </trkpt>
      <trkpt lat="42.90879" lon="-0.61131">
        <ele>1306</ele>
        <time>2021-12-08T09:33:43.999Z</time>
      </trkpt>
      <trkpt lat="42.90877" lon="-0.61133">
        <ele>1306</ele>
        <time>2021-12-08T09:33:47.999Z</time>
      </trkpt>
      <trkpt lat="42.90873" lon="-0.61135">
        <ele>1311</ele>
        <time>2021-12-08T09:33:52.999Z</time>
      </trkpt>
      <trkpt lat="42.9087" lon="-0.61138">
        <ele>1311</ele>
        <time>2021-12-08T09:33:57.999Z</time>
      </trkpt>
      <trkpt lat="42.90869" lon="-0.61141">
        <ele>1311</ele>
        <time>2021-12-08T09:34:02.999Z</time>
      </trkpt>
      <trkpt lat="42.90866" lon="-0.6114">
        <ele>1311</ele>
        <time>2021-12-08T09:34:07.999Z</time>
      </trkpt>
      <trkpt lat="42.90862" lon="-0.61143">
        <ele>1311</ele>
        <time>2021-12-08T09:34:12.999Z</time>
      </trkpt>
      <trkpt lat="42.9086" lon="-0.61148">
        <ele>1311</ele>
        <time>2021-12-08T09:34:17.999Z</time>
      </trkpt>
      <trkpt lat="42.90855" lon="-0.61151">
        <ele>1311</ele>
        <time>2021-12-08T09:34:22.999Z</time>
      </trkpt>
      <trkpt lat="42.90851" lon="-0.61151">
        <ele>1311</ele>
        <time>2021-12-08T09:34:27.999Z</time>
      </trkpt>
      <trkpt lat="42.90849" lon="-0.61154">
        <ele>1307</ele>
        <time>2021-12-08T09:34:32.999Z</time>
      </trkpt>
      <trkpt lat="42.90846" lon="-0.61156">
        <ele>1318</ele>
        <time>2021-12-08T09:34:37.999Z</time>
      </trkpt>
      <trkpt lat="42.90842" lon="-0.61157">
        <ele>1318</ele>
        <time>2021-12-08T09:34:42.999Z</time>
      </trkpt>
      <trkpt lat="42.90837" lon="-0.61159">
        <ele>1318</ele>
        <time>2021-12-08T09:34:47.999Z</time>
      </trkpt>
      <trkpt lat="42.90835" lon="-0.61157">
        <ele>1318</ele>
        <time>2021-12-08T09:34:52.999Z</time>
      </trkpt>
      <trkpt lat="42.9084" lon="-0.6115">
        <ele>1322</ele>
        <time>2021-12-08T09:37:37.999Z</time>
      </trkpt>
      <trkpt lat="42.9084" lon="-0.6115">
        <ele>1322</ele>
        <time>2021-12-08T09:37:42.999Z</time>
      </trkpt>
      <trkpt lat="42.9084" lon="-0.6115">
        <ele>1322</ele>
        <time>2021-12-08T09:37:46.999Z</time>
      </trkpt>
      <trkpt lat="42.90841" lon="-0.61148">
        <ele>1322</ele>
        <time>2021-12-08T09:37:51.999Z</time>
      </trkpt>
      <trkpt lat="42.9084" lon="-0.61144">
        <ele>1322</ele>
        <time>2021-12-08T09:37:56.999Z</time>
      </trkpt>
      <trkpt lat="42.90843" lon="-0.61138">
        <ele>1322</ele>
        <time>2021-12-08T09:38:01.999Z</time>
      </trkpt>
      <trkpt lat="42.90847" lon="-0.61133">
        <ele>1322</ele>
        <time>2021-12-08T09:38:06.999Z</time>
      </trkpt>
      <trkpt lat="42.90849" lon="-0.61127">
        <ele>1311</ele>
        <time>2021-12-08T09:38:11.999Z</time>
      </trkpt>
      <trkpt lat="42.90852" lon="-0.61122">
        <ele>1319</ele>
        <time>2021-12-08T09:38:16.999Z</time>
      </trkpt>
      <trkpt lat="42.90854" lon="-0.61117">
        <ele>1319</ele>
        <time>2021-12-08T09:38:21.999Z</time>
      </trkpt>
      <trkpt lat="42.90856" lon="-0.61111">
        <ele>1319</ele>
        <time>2021-12-08T09:38:25.999Z</time>
      </trkpt>
      <trkpt lat="42.9086" lon="-0.61107">
        <ele>1319</ele>
        <time>2021-12-08T09:38:30.999Z</time>
      </trkpt>
      <trkpt lat="42.90862" lon="-0.61101">
        <ele>1319</ele>
        <time>2021-12-08T09:38:35.999Z</time>
      </trkpt>
      <trkpt lat="42.90864" lon="-0.61096">
        <ele>1330</ele>
        <time>2021-12-08T09:38:40.999Z</time>
      </trkpt>
      <trkpt lat="42.90867" lon="-0.61093">
        <ele>1330</ele>
        <time>2021-12-08T09:38:45.999Z</time>
      </trkpt>
      <trkpt lat="42.9087" lon="-0.61091">
        <ele>1330</ele>
        <time>2021-12-08T09:38:49.999Z</time>
      </trkpt>
      <trkpt lat="42.90874" lon="-0.61089">
        <ele>1330</ele>
        <time>2021-12-08T09:38:54.999Z</time>
      </trkpt>
      <trkpt lat="42.90876" lon="-0.61086">
        <ele>1328</ele>
        <time>2021-12-08T09:38:59.999Z</time>
      </trkpt>
      <trkpt lat="42.90879" lon="-0.61084">
        <ele>1328</ele>
        <time>2021-12-08T09:39:04.999Z</time>
      </trkpt>
      <trkpt lat="42.90881" lon="-0.6108">
        <ele>1328</ele>
        <time>2021-12-08T09:39:09.999Z</time>
      </trkpt>
      <trkpt lat="42.90883" lon="-0.61077">
        <ele>1328</ele>
        <time>2021-12-08T09:39:14.999Z</time>
      </trkpt>
      <trkpt lat="42.90884" lon="-0.61076">
        <ele>1328</ele>
        <time>2021-12-08T09:39:19.999Z</time>
      </trkpt>
      <trkpt lat="42.90887" lon="-0.61073">
        <ele>1328</ele>
        <time>2021-12-08T09:39:24.999Z</time>
      </trkpt>
      <trkpt lat="42.90891" lon="-0.61072">
        <ele>1328</ele>
        <time>2021-12-08T09:39:29.999Z</time>
      </trkpt>
      <trkpt lat="42.90897" lon="-0.61071">
        <ele>1328</ele>
        <time>2021-12-08T09:39:34.999Z</time>
      </trkpt>
      <trkpt lat="42.90901" lon="-0.61071">
        <ele>1328</ele>
        <time>2021-12-08T09:39:42.999Z</time>
      </trkpt>
      <trkpt lat="42.90904" lon="-0.61071">
        <ele>1321</ele>
        <time>2021-12-08T09:39:47.999Z</time>
      </trkpt>
      <trkpt lat="42.90905" lon="-0.61069">
        <ele>1333</ele>
        <time>2021-12-08T09:39:52.999Z</time>
      </trkpt>
      <trkpt lat="42.90907" lon="-0.61067">
        <ele>1333</ele>
        <time>2021-12-08T09:39:57.999Z</time>
      </trkpt>
      <trkpt lat="42.9091" lon="-0.61067">
        <ele>1333</ele>
        <time>2021-12-08T09:40:02.999Z</time>
      </trkpt>
      <trkpt lat="42.90912" lon="-0.61065">
        <ele>1333</ele>
        <time>2021-12-08T09:40:07.999Z</time>
      </trkpt>
      <trkpt lat="42.90915" lon="-0.61065">
        <ele>1333</ele>
        <time>2021-12-08T09:40:11.999Z</time>
      </trkpt>
      <trkpt lat="42.90917" lon="-0.61061">
        <ele>1333</ele>
        <time>2021-12-08T09:40:16.999Z</time>
      </trkpt>
      <trkpt lat="42.90921" lon="-0.6106">
        <ele>1333</ele>
        <time>2021-12-08T09:40:21.999Z</time>
      </trkpt>
      <trkpt lat="42.90924" lon="-0.61061">
        <ele>1333</ele>
        <time>2021-12-08T09:40:26.999Z</time>
      </trkpt>
      <trkpt lat="42.90926" lon="-0.61058">
        <ele>1333</ele>
        <time>2021-12-08T09:40:31.999Z</time>
      </trkpt>
      <trkpt lat="42.90929" lon="-0.61057">
        <ele>1333</ele>
        <time>2021-12-08T09:40:35.999Z</time>
      </trkpt>
      <trkpt lat="42.90931" lon="-0.61054">
        <ele>1326</ele>
        <time>2021-12-08T09:40:40.999Z</time>
      </trkpt>
      <trkpt lat="42.90936" lon="-0.61054">
        <ele>1326</ele>
        <time>2021-12-08T09:40:45.999Z</time>
      </trkpt>
      <trkpt lat="42.90939" lon="-0.61052">
        <ele>1326</ele>
        <time>2021-12-08T09:40:49.999Z</time>
      </trkpt>
      <trkpt lat="42.90943" lon="-0.61049">
        <ele>1326</ele>
        <time>2021-12-08T09:40:54.999Z</time>
      </trkpt>
      <trkpt lat="42.90945" lon="-0.61045">
        <ele>1326</ele>
        <time>2021-12-08T09:40:59.999Z</time>
      </trkpt>
      <trkpt lat="42.90945" lon="-0.61043">
        <ele>1326</ele>
        <time>2021-12-08T09:41:04.999Z</time>
      </trkpt>
      <trkpt lat="42.90948" lon="-0.61039">
        <ele>1337</ele>
        <time>2021-12-08T09:41:09.999Z</time>
      </trkpt>
      <trkpt lat="42.90952" lon="-0.61036">
        <ele>1337</ele>
        <time>2021-12-08T09:41:14.999Z</time>
      </trkpt>
      <trkpt lat="42.90953" lon="-0.61034">
        <ele>1337</ele>
        <time>2021-12-08T09:41:19.999Z</time>
      </trkpt>
      <trkpt lat="42.90956" lon="-0.61033">
        <ele>1337</ele>
        <time>2021-12-08T09:41:24.999Z</time>
      </trkpt>
      <trkpt lat="42.90959" lon="-0.61031">
        <ele>1332</ele>
        <time>2021-12-08T09:41:29.999Z</time>
      </trkpt>
      <trkpt lat="42.90961" lon="-0.61028">
        <ele>1332</ele>
        <time>2021-12-08T09:41:34.999Z</time>
      </trkpt>
      <trkpt lat="42.90964" lon="-0.61026">
        <ele>1332</ele>
        <time>2021-12-08T09:41:38.999Z</time>
      </trkpt>
      <trkpt lat="42.90966" lon="-0.61023">
        <ele>1332</ele>
        <time>2021-12-08T09:41:43.999Z</time>
      </trkpt>
      <trkpt lat="42.9097" lon="-0.61021">
        <ele>1332</ele>
        <time>2021-12-08T09:41:48.999Z</time>
      </trkpt>
      <trkpt lat="42.90973" lon="-0.61019">
        <ele>1332</ele>
        <time>2021-12-08T09:41:52.999Z</time>
      </trkpt>
      <trkpt lat="42.90975" lon="-0.61016">
        <ele>1332</ele>
        <time>2021-12-08T09:41:57.999Z</time>
      </trkpt>
      <trkpt lat="42.90975" lon="-0.61014">
        <ele>1332</ele>
        <time>2021-12-08T09:42:01.999Z</time>
      </trkpt>
      <trkpt lat="42.90979" lon="-0.61012">
        <ele>1343</ele>
        <time>2021-12-08T09:42:06.999Z</time>
      </trkpt>
      <trkpt lat="42.90983" lon="-0.6101">
        <ele>1343</ele>
        <time>2021-12-08T09:42:11.999Z</time>
      </trkpt>
      <trkpt lat="42.90985" lon="-0.61006">
        <ele>1343</ele>
        <time>2021-12-08T09:42:15.999Z</time>
      </trkpt>
      <trkpt lat="42.90986" lon="-0.61002">
        <ele>1343</ele>
        <time>2021-12-08T09:42:20.999Z</time>
      </trkpt>
      <trkpt lat="42.90987" lon="-0.61">
        <ele>1334</ele>
        <time>2021-12-08T09:42:25.999Z</time>
      </trkpt>
      <trkpt lat="42.90989" lon="-0.60998">
        <ele>1334</ele>
        <time>2021-12-08T09:42:30.999Z</time>
      </trkpt>
      <trkpt lat="42.90993" lon="-0.60996">
        <ele>1334</ele>
        <time>2021-12-08T09:42:35.999Z</time>
      </trkpt>
      <trkpt lat="42.90996" lon="-0.60994">
        <ele>1334</ele>
        <time>2021-12-08T09:42:40.999Z</time>
      </trkpt>
      <trkpt lat="42.91001" lon="-0.60993">
        <ele>1334</ele>
        <time>2021-12-08T09:42:45.999Z</time>
      </trkpt>
      <trkpt lat="42.91005" lon="-0.60991">
        <ele>1334</ele>
        <time>2021-12-08T09:42:50.999Z</time>
      </trkpt>
      <trkpt lat="42.91008" lon="-0.6099">
        <ele>1334</ele>
        <time>2021-12-08T09:42:55.999Z</time>
      </trkpt>
      <trkpt lat="42.9101" lon="-0.60988">
        <ele>1334</ele>
        <time>2021-12-08T09:43:00.999Z</time>
      </trkpt>
      <trkpt lat="42.91013" lon="-0.60984">
        <ele>1345</ele>
        <time>2021-12-08T09:43:05.999Z</time>
      </trkpt>
      <trkpt lat="42.91015" lon="-0.60981">
        <ele>1337</ele>
        <time>2021-12-08T09:43:10.999Z</time>
      </trkpt>
      <trkpt lat="42.91016" lon="-0.60978">
        <ele>1337</ele>
        <time>2021-12-08T09:43:14.999Z</time>
      </trkpt>
      <trkpt lat="42.9102" lon="-0.60974">
        <ele>1337</ele>
        <time>2021-12-08T09:43:19.999Z</time>
      </trkpt>
      <trkpt lat="42.91023" lon="-0.6097">
        <ele>1337</ele>
        <time>2021-12-08T09:43:24.999Z</time>
      </trkpt>
      <trkpt lat="42.91025" lon="-0.60966">
        <ele>1337</ele>
        <time>2021-12-08T09:43:29.999Z</time>
      </trkpt>
      <trkpt lat="42.91029" lon="-0.60963">
        <ele>1337</ele>
        <time>2021-12-08T09:43:33.999Z</time>
      </trkpt>
      <trkpt lat="42.91032" lon="-0.60959">
        <ele>1337</ele>
        <time>2021-12-08T09:43:38.999Z</time>
      </trkpt>
      <trkpt lat="42.91032" lon="-0.60955">
        <ele>1347</ele>
        <time>2021-12-08T09:43:43.999Z</time>
      </trkpt>
      <trkpt lat="42.91034" lon="-0.60951">
        <ele>1347</ele>
        <time>2021-12-08T09:43:48.999Z</time>
      </trkpt>
      <trkpt lat="42.91036" lon="-0.60948">
        <ele>1347</ele>
        <time>2021-12-08T09:43:53.999Z</time>
      </trkpt>
      <trkpt lat="42.91034" lon="-0.60945">
        <ele>1347</ele>
        <time>2021-12-08T09:43:58.999Z</time>
      </trkpt>
      <trkpt lat="42.91033" lon="-0.60941">
        <ele>1347</ele>
        <time>2021-12-08T09:44:03.999Z</time>
      </trkpt>
      <trkpt lat="42.91035" lon="-0.6094">
        <ele>1347</ele>
        <time>2021-12-08T09:44:08.999Z</time>
      </trkpt>
      <trkpt lat="42.91034" lon="-0.60935">
        <ele>1347</ele>
        <time>2021-12-08T09:44:13.999Z</time>
      </trkpt>
      <trkpt lat="42.91034" lon="-0.6093">
        <ele>1355</ele>
        <time>2021-12-08T09:44:18.999Z</time>
      </trkpt>
      <trkpt lat="42.91034" lon="-0.60928">
        <ele>1355</ele>
        <time>2021-12-08T09:44:23.999Z</time>
      </trkpt>
      <trkpt lat="42.91034" lon="-0.60924">
        <ele>1355</ele>
        <time>2021-12-08T09:46:51.999Z</time>
      </trkpt>
      <trkpt lat="42.91035" lon="-0.60923">
        <ele>1355</ele>
        <time>2021-12-08T09:46:56.999Z</time>
      </trkpt>
      <trkpt lat="42.91036" lon="-0.6092">
        <ele>1355</ele>
        <time>2021-12-08T09:47:00.999Z</time>
      </trkpt>
      <trkpt lat="42.91037" lon="-0.60916">
        <ele>1355</ele>
        <time>2021-12-08T09:47:05.999Z</time>
      </trkpt>
      <trkpt lat="42.91036" lon="-0.60911">
        <ele>1355</ele>
        <time>2021-12-08T09:47:10.999Z</time>
      </trkpt>
      <trkpt lat="42.91037" lon="-0.60906">
        <ele>1355</ele>
        <time>2021-12-08T09:47:15.999Z</time>
      </trkpt>
      <trkpt lat="42.91037" lon="-0.60902">
        <ele>1360</ele>
        <time>2021-12-08T09:47:20.999Z</time>
      </trkpt>
      <trkpt lat="42.91037" lon="-0.60899">
        <ele>1360</ele>
        <time>2021-12-08T09:47:25.999Z</time>
      </trkpt>
      <trkpt lat="42.91038" lon="-0.60897">
        <ele>1360</ele>
        <time>2021-12-08T09:47:30.999Z</time>
      </trkpt>
      <trkpt lat="42.91042" lon="-0.60895">
        <ele>1347</ele>
        <time>2021-12-08T09:47:35.999Z</time>
      </trkpt>
      <trkpt lat="42.91043" lon="-0.60895">
        <ele>1347</ele>
        <time>2021-12-08T09:47:40.999Z</time>
      </trkpt>
      <trkpt lat="42.91042" lon="-0.60892">
        <ele>1347</ele>
        <time>2021-12-08T09:47:45.999Z</time>
      </trkpt>
      <trkpt lat="42.91043" lon="-0.60888">
        <ele>1347</ele>
        <time>2021-12-08T09:47:50.999Z</time>
      </trkpt>
      <trkpt lat="42.91044" lon="-0.60886">
        <ele>1347</ele>
        <time>2021-12-08T09:47:54.999Z</time>
      </trkpt>
      <trkpt lat="42.91045" lon="-0.60881">
        <ele>1347</ele>
        <time>2021-12-08T09:47:59.999Z</time>
      </trkpt>
      <trkpt lat="42.91044" lon="-0.60876">
        <ele>1347</ele>
        <time>2021-12-08T09:48:04.999Z</time>
      </trkpt>
      <trkpt lat="42.91044" lon="-0.6087">
        <ele>1356</ele>
        <time>2021-12-08T09:48:09.999Z</time>
      </trkpt>
      <trkpt lat="42.91044" lon="-0.60865">
        <ele>1356</ele>
        <time>2021-12-08T09:48:14.999Z</time>
      </trkpt>
      <trkpt lat="42.91046" lon="-0.60861">
        <ele>1356</ele>
        <time>2021-12-08T09:48:18.999Z</time>
      </trkpt>
      <trkpt lat="42.9105" lon="-0.60855">
        <ele>1356</ele>
        <time>2021-12-08T09:48:28.999Z</time>
      </trkpt>
      <trkpt lat="42.9105" lon="-0.60852">
        <ele>1356</ele>
        <time>2021-12-08T09:48:33.999Z</time>
      </trkpt>
      <trkpt lat="42.91052" lon="-0.60852">
        <ele>1356</ele>
        <time>2021-12-08T09:48:38.999Z</time>
      </trkpt>
      <trkpt lat="42.91052" lon="-0.60849">
        <ele>1356</ele>
        <time>2021-12-08T09:48:43.999Z</time>
      </trkpt>
      <trkpt lat="42.91055" lon="-0.60846">
        <ele>1365</ele>
        <time>2021-12-08T09:48:48.999Z</time>
      </trkpt>
      <trkpt lat="42.91059" lon="-0.60832">
        <ele>1365</ele>
        <time>2021-12-08T09:49:13.999Z</time>
      </trkpt>
      <trkpt lat="42.91053" lon="-0.6083">
        <ele>1365</ele>
        <time>2021-12-08T09:49:18.999Z</time>
      </trkpt>
      <trkpt lat="42.91049" lon="-0.6083">
        <ele>1365</ele>
        <time>2021-12-08T09:49:23.999Z</time>
      </trkpt>
      <trkpt lat="42.91046" lon="-0.60826">
        <ele>1365</ele>
        <time>2021-12-08T09:49:28.999Z</time>
      </trkpt>
      <trkpt lat="42.91049" lon="-0.60822">
        <ele>1365</ele>
        <time>2021-12-08T09:49:33.999Z</time>
      </trkpt>
      <trkpt lat="42.91052" lon="-0.60821">
        <ele>1365</ele>
        <time>2021-12-08T09:49:38.999Z</time>
      </trkpt>
      <trkpt lat="42.91056" lon="-0.60819">
        <ele>1374</ele>
        <time>2021-12-08T09:49:43.999Z</time>
      </trkpt>
      <trkpt lat="42.91058" lon="-0.60816">
        <ele>1374</ele>
        <time>2021-12-08T09:49:48.999Z</time>
      </trkpt>
      <trkpt lat="42.91059" lon="-0.60811">
        <ele>1374</ele>
        <time>2021-12-08T09:49:53.999Z</time>
      </trkpt>
      <trkpt lat="42.91057" lon="-0.60803">
        <ele>1374</ele>
        <time>2021-12-08T09:50:22.999Z</time>
      </trkpt>
      <trkpt lat="42.91057" lon="-0.608">
        <ele>1374</ele>
        <time>2021-12-08T09:50:27.999Z</time>
      </trkpt>
      <trkpt lat="42.91056" lon="-0.60798">
        <ele>1374</ele>
        <time>2021-12-08T09:50:32.999Z</time>
      </trkpt>
      <trkpt lat="42.91053" lon="-0.60797">
        <ele>1374</ele>
        <time>2021-12-08T09:50:36.999Z</time>
      </trkpt>
      <trkpt lat="42.9105" lon="-0.60794">
        <ele>1374</ele>
        <time>2021-12-08T09:50:41.999Z</time>
      </trkpt>
      <trkpt lat="42.91051" lon="-0.60793">
        <ele>1374</ele>
        <time>2021-12-08T09:50:46.999Z</time>
      </trkpt>
      <trkpt lat="42.91053" lon="-0.60791">
        <ele>1382</ele>
        <time>2021-12-08T09:50:51.999Z</time>
      </trkpt>
      <trkpt lat="42.91057" lon="-0.60788">
        <ele>1382</ele>
        <time>2021-12-08T09:50:56.999Z</time>
      </trkpt>
      <trkpt lat="42.91058" lon="-0.60784">
        <ele>1382</ele>
        <time>2021-12-08T09:51:01.999Z</time>
      </trkpt>
      <trkpt lat="42.91058" lon="-0.60777">
        <ele>1382</ele>
        <time>2021-12-08T09:51:11.999Z</time>
      </trkpt>
      <trkpt lat="42.9106" lon="-0.60774">
        <ele>1382</ele>
        <time>2021-12-08T09:51:16.999Z</time>
      </trkpt>
      <trkpt lat="42.91062" lon="-0.60773">
        <ele>1382</ele>
        <time>2021-12-08T09:51:21.999Z</time>
      </trkpt>
      <trkpt lat="42.91062" lon="-0.60771">
        <ele>1382</ele>
        <time>2021-12-08T09:51:25.999Z</time>
      </trkpt>
      <trkpt lat="42.91062" lon="-0.60767">
        <ele>1382</ele>
        <time>2021-12-08T09:51:30.999Z</time>
      </trkpt>
      <trkpt lat="42.9106" lon="-0.60762">
        <ele>1387</ele>
        <time>2021-12-08T09:51:35.999Z</time>
      </trkpt>
      <trkpt lat="42.91056" lon="-0.6076">
        <ele>1387</ele>
        <time>2021-12-08T09:51:39.999Z</time>
      </trkpt>
      <trkpt lat="42.91052" lon="-0.60762">
        <ele>1387</ele>
        <time>2021-12-08T09:51:44.999Z</time>
      </trkpt>
      <trkpt lat="42.91049" lon="-0.60759">
        <ele>1387</ele>
        <time>2021-12-08T09:51:49.999Z</time>
      </trkpt>
      <trkpt lat="42.91047" lon="-0.60755">
        <ele>1387</ele>
        <time>2021-12-08T09:51:54.999Z</time>
      </trkpt>
      <trkpt lat="42.91046" lon="-0.60752">
        <ele>1387</ele>
        <time>2021-12-08T09:51:59.999Z</time>
      </trkpt>
      <trkpt lat="42.91043" lon="-0.6075">
        <ele>1387</ele>
        <time>2021-12-08T09:52:04.999Z</time>
      </trkpt>
      <trkpt lat="42.91042" lon="-0.60747">
        <ele>1388</ele>
        <time>2021-12-08T09:52:08.999Z</time>
      </trkpt>
      <trkpt lat="42.91041" lon="-0.60742">
        <ele>1388</ele>
        <time>2021-12-08T09:52:13.999Z</time>
      </trkpt>
      <trkpt lat="42.91043" lon="-0.6074">
        <ele>1387</ele>
        <time>2021-12-08T09:52:18.999Z</time>
      </trkpt>
      <trkpt lat="42.91042" lon="-0.60736">
        <ele>1387</ele>
        <time>2021-12-08T09:52:22.999Z</time>
      </trkpt>
      <trkpt lat="42.91042" lon="-0.60732">
        <ele>1393</ele>
        <time>2021-12-08T09:52:27.999Z</time>
      </trkpt>
      <trkpt lat="42.91041" lon="-0.60728">
        <ele>1394</ele>
        <time>2021-12-08T09:52:32.999Z</time>
      </trkpt>
      <trkpt lat="42.91039" lon="-0.60724">
        <ele>1394</ele>
        <time>2021-12-08T09:52:37.999Z</time>
      </trkpt>
      <trkpt lat="42.91036" lon="-0.60725">
        <ele>1394</ele>
        <time>2021-12-08T09:52:42.999Z</time>
      </trkpt>
      <trkpt lat="42.91033" lon="-0.6073">
        <ele>1394</ele>
        <time>2021-12-08T09:52:47.999Z</time>
      </trkpt>
      <trkpt lat="42.91029" lon="-0.60732">
        <ele>1394</ele>
        <time>2021-12-08T09:52:52.999Z</time>
      </trkpt>
      <trkpt lat="42.91025" lon="-0.60739">
        <ele>1388</ele>
        <time>2021-12-08T09:53:02.999Z</time>
      </trkpt>
      <trkpt lat="42.9102" lon="-0.60742">
        <ele>1388</ele>
        <time>2021-12-08T09:53:07.999Z</time>
      </trkpt>
      <trkpt lat="42.9102" lon="-0.60743">
        <ele>1388</ele>
        <time>2021-12-08T09:53:12.999Z</time>
      </trkpt>
      <trkpt lat="42.9102" lon="-0.60743">
        <ele>1388</ele>
        <time>2021-12-08T09:53:17.999Z</time>
      </trkpt>
      <trkpt lat="42.91019" lon="-0.60743">
        <ele>1388</ele>
        <time>2021-12-08T09:53:22.999Z</time>
      </trkpt>
      <trkpt lat="42.91015" lon="-0.60745">
        <ele>1388</ele>
        <time>2021-12-08T09:53:37.999Z</time>
      </trkpt>
      <trkpt lat="42.91013" lon="-0.60745">
        <ele>1394</ele>
        <time>2021-12-08T09:53:42.999Z</time>
      </trkpt>
      <trkpt lat="42.91012" lon="-0.60743">
        <ele>1394</ele>
        <time>2021-12-08T09:53:47.999Z</time>
      </trkpt>
      <trkpt lat="42.91009" lon="-0.60744">
        <ele>1394</ele>
        <time>2021-12-08T09:53:52.999Z</time>
      </trkpt>
      <trkpt lat="42.91006" lon="-0.60747">
        <ele>1394</ele>
        <time>2021-12-08T09:53:57.999Z</time>
      </trkpt>
      <trkpt lat="42.91003" lon="-0.6075">
        <ele>1394</ele>
        <time>2021-12-08T09:54:02.999Z</time>
      </trkpt>
      <trkpt lat="42.91" lon="-0.6075">
        <ele>1394</ele>
        <time>2021-12-08T09:54:07.999Z</time>
      </trkpt>
      <trkpt lat="42.91003" lon="-0.60746">
        <ele>1394</ele>
        <time>2021-12-08T09:54:12.999Z</time>
      </trkpt>
      <trkpt lat="42.91004" lon="-0.6074">
        <ele>1394</ele>
        <time>2021-12-08T09:54:17.999Z</time>
      </trkpt>
      <trkpt lat="42.91005" lon="-0.60737">
        <ele>1394</ele>
        <time>2021-12-08T09:54:21.999Z</time>
      </trkpt>
      <trkpt lat="42.91004" lon="-0.60732">
        <ele>1405</ele>
        <time>2021-12-08T09:55:05.999Z</time>
      </trkpt>
      <trkpt lat="42.91002" lon="-0.60731">
        <ele>1405</ele>
        <time>2021-12-08T09:55:10.999Z</time>
      </trkpt>
      <trkpt lat="42.91" lon="-0.60731">
        <ele>1405</ele>
        <time>2021-12-08T09:55:14.999Z</time>
      </trkpt>
      <trkpt lat="42.90998" lon="-0.60729">
        <ele>1405</ele>
        <time>2021-12-08T09:55:19.999Z</time>
      </trkpt>
      <trkpt lat="42.90995" lon="-0.60727">
        <ele>1405</ele>
        <time>2021-12-08T09:55:24.999Z</time>
      </trkpt>
      <trkpt lat="42.90991" lon="-0.60729">
        <ele>1405</ele>
        <time>2021-12-08T09:55:29.999Z</time>
      </trkpt>
      <trkpt lat="42.90988" lon="-0.60733">
        <ele>1405</ele>
        <time>2021-12-08T09:55:34.999Z</time>
      </trkpt>
      <trkpt lat="42.90987" lon="-0.60736">
        <ele>1394</ele>
        <time>2021-12-08T09:55:38.999Z</time>
      </trkpt>
      <trkpt lat="42.90984" lon="-0.60739">
        <ele>1414</ele>
        <time>2021-12-08T09:55:43.999Z</time>
      </trkpt>
      <trkpt lat="42.90977" lon="-0.60741">
        <ele>1414</ele>
        <time>2021-12-08T09:56:22.999Z</time>
      </trkpt>
      <trkpt lat="42.90978" lon="-0.60734">
        <ele>1423</ele>
        <time>2021-12-08T09:56:27.999Z</time>
      </trkpt>
      <trkpt lat="42.90978" lon="-0.60728">
        <ele>1423</ele>
        <time>2021-12-08T09:56:32.999Z</time>
      </trkpt>
      <trkpt lat="42.90979" lon="-0.60724">
        <ele>1423</ele>
        <time>2021-12-08T09:56:37.999Z</time>
      </trkpt>
      <trkpt lat="42.90978" lon="-0.6072">
        <ele>1423</ele>
        <time>2021-12-08T09:56:42.999Z</time>
      </trkpt>
      <trkpt lat="42.9098" lon="-0.60712">
        <ele>1423</ele>
        <time>2021-12-08T09:56:57.999Z</time>
      </trkpt>
      <trkpt lat="42.90978" lon="-0.60711">
        <ele>1423</ele>
        <time>2021-12-08T09:57:02.999Z</time>
      </trkpt>
      <trkpt lat="42.90976" lon="-0.60711">
        <ele>1423</ele>
        <time>2021-12-08T09:57:06.999Z</time>
      </trkpt>
      <trkpt lat="42.90973" lon="-0.60713">
        <ele>1423</ele>
        <time>2021-12-08T09:57:11.999Z</time>
      </trkpt>
      <trkpt lat="42.9097" lon="-0.60714">
        <ele>1423</ele>
        <time>2021-12-08T09:57:16.999Z</time>
      </trkpt>
      <trkpt lat="42.90968" lon="-0.6072">
        <ele>1423</ele>
        <time>2021-12-08T09:57:21.999Z</time>
      </trkpt>
      <trkpt lat="42.90965" lon="-0.60724">
        <ele>1423</ele>
        <time>2021-12-08T09:57:26.999Z</time>
      </trkpt>
      <trkpt lat="42.90964" lon="-0.60726">
        <ele>1423</ele>
        <time>2021-12-08T09:57:31.999Z</time>
      </trkpt>
      <trkpt lat="42.90962" lon="-0.60729">
        <ele>1423</ele>
        <time>2021-12-08T09:57:35.999Z</time>
      </trkpt>
      <trkpt lat="42.90959" lon="-0.60732">
        <ele>1423</ele>
        <time>2021-12-08T09:57:40.999Z</time>
      </trkpt>
      <trkpt lat="42.90957" lon="-0.60731">
        <ele>1438</ele>
        <time>2021-12-08T09:57:45.999Z</time>
      </trkpt>
      <trkpt lat="42.90957" lon="-0.60726">
        <ele>1438</ele>
        <time>2021-12-08T09:57:50.999Z</time>
      </trkpt>
      <trkpt lat="42.90958" lon="-0.60723">
        <ele>1438</ele>
        <time>2021-12-08T09:57:55.999Z</time>
      </trkpt>
      <trkpt lat="42.90959" lon="-0.60716">
        <ele>1423</ele>
        <time>2021-12-08T09:58:00.999Z</time>
      </trkpt>
      <trkpt lat="42.9096" lon="-0.60709">
        <ele>1423</ele>
        <time>2021-12-08T09:58:18.999Z</time>
      </trkpt>
      <trkpt lat="42.90961" lon="-0.60705">
        <ele>1432</ele>
        <time>2021-12-08T09:58:23.999Z</time>
      </trkpt>
      <trkpt lat="42.90965" lon="-0.60703">
        <ele>1432</ele>
        <time>2021-12-08T09:58:28.999Z</time>
      </trkpt>
      <trkpt lat="42.90965" lon="-0.60703">
        <ele>1432</ele>
        <time>2021-12-08T09:58:33.999Z</time>
      </trkpt>
      <trkpt lat="42.90964" lon="-0.60701">
        <ele>1432</ele>
        <time>2021-12-08T09:58:38.999Z</time>
      </trkpt>
      <trkpt lat="42.90959" lon="-0.60698">
        <ele>1432</ele>
        <time>2021-12-08T09:58:58.999Z</time>
      </trkpt>
      <trkpt lat="42.90956" lon="-0.60705">
        <ele>1443</ele>
        <time>2021-12-08T09:59:03.999Z</time>
      </trkpt>
      <trkpt lat="42.90954" lon="-0.60709">
        <ele>1438</ele>
        <time>2021-12-08T09:59:08.999Z</time>
      </trkpt>
      <trkpt lat="42.90954" lon="-0.60709">
        <ele>1438</ele>
        <time>2021-12-08T09:59:13.999Z</time>
      </trkpt>
      <trkpt lat="42.90954" lon="-0.60709">
        <ele>1438</ele>
        <time>2021-12-08T09:59:18.999Z</time>
      </trkpt>
      <trkpt lat="42.90954" lon="-0.60708">
        <ele>1443</ele>
        <time>2021-12-08T09:59:33.999Z</time>
      </trkpt>
      <trkpt lat="42.90956" lon="-0.60705">
        <ele>1443</ele>
        <time>2021-12-08T09:59:38.999Z</time>
      </trkpt>
      <trkpt lat="42.90956" lon="-0.60701">
        <ele>1443</ele>
        <time>2021-12-08T09:59:43.999Z</time>
      </trkpt>
      <trkpt lat="42.9096" lon="-0.60698">
        <ele>1432</ele>
        <time>2021-12-08T09:59:48.999Z</time>
      </trkpt>
      <trkpt lat="42.9096" lon="-0.60694">
        <ele>1432</ele>
        <time>2021-12-08T09:59:52.999Z</time>
      </trkpt>
      <trkpt lat="42.90962" lon="-0.6069">
        <ele>1432</ele>
        <time>2021-12-08T10:00:17.999Z</time>
      </trkpt>
      <trkpt lat="42.90959" lon="-0.60688">
        <ele>1432</ele>
        <time>2021-12-08T10:00:21.999Z</time>
      </trkpt>
      <trkpt lat="42.90954" lon="-0.6069">
        <ele>1443</ele>
        <time>2021-12-08T10:00:26.999Z</time>
      </trkpt>
      <trkpt lat="42.90951" lon="-0.60694">
        <ele>1443</ele>
        <time>2021-12-08T10:00:30.999Z</time>
      </trkpt>
      <trkpt lat="42.90946" lon="-0.60699">
        <ele>1443</ele>
        <time>2021-12-08T10:00:35.999Z</time>
      </trkpt>
      <trkpt lat="42.90945" lon="-0.607">
        <ele>1443</ele>
        <time>2021-12-08T10:00:45.999Z</time>
      </trkpt>
      <trkpt lat="42.90946" lon="-0.60699">
        <ele>1443</ele>
        <time>2021-12-08T10:00:50.999Z</time>
      </trkpt>
      <trkpt lat="42.90948" lon="-0.60696">
        <ele>1443</ele>
        <time>2021-12-08T10:00:55.999Z</time>
      </trkpt>
      <trkpt lat="42.9095" lon="-0.60694">
        <ele>1443</ele>
        <time>2021-12-08T10:01:00.999Z</time>
      </trkpt>
      <trkpt lat="42.90951" lon="-0.60689">
        <ele>1443</ele>
        <time>2021-12-08T10:01:05.999Z</time>
      </trkpt>
      <trkpt lat="42.90952" lon="-0.60687">
        <ele>1443</ele>
        <time>2021-12-08T10:01:09.999Z</time>
      </trkpt>
      <trkpt lat="42.90955" lon="-0.60683">
        <ele>1443</ele>
        <time>2021-12-08T10:01:14.999Z</time>
      </trkpt>
      <trkpt lat="42.90954" lon="-0.60681">
        <ele>1443</ele>
        <time>2021-12-08T10:01:19.999Z</time>
      </trkpt>
      <trkpt lat="42.90956" lon="-0.60677">
        <ele>1451</ele>
        <time>2021-12-08T10:01:24.999Z</time>
      </trkpt>
      <trkpt lat="42.90958" lon="-0.60673">
        <ele>1451</ele>
        <time>2021-12-08T10:01:29.999Z</time>
      </trkpt>
      <trkpt lat="42.90952" lon="-0.60668">
        <ele>1451</ele>
        <time>2021-12-08T10:01:43.999Z</time>
      </trkpt>
      <trkpt lat="42.90951" lon="-0.60672">
        <ele>1451</ele>
        <time>2021-12-08T10:01:47.999Z</time>
      </trkpt>
      <trkpt lat="42.9095" lon="-0.60674">
        <ele>1451</ele>
        <time>2021-12-08T10:01:52.999Z</time>
      </trkpt>
      <trkpt lat="42.90949" lon="-0.60676">
        <ele>1451</ele>
        <time>2021-12-08T10:01:57.999Z</time>
      </trkpt>
      <trkpt lat="42.90947" lon="-0.60681">
        <ele>1443</ele>
        <time>2021-12-08T10:02:02.999Z</time>
      </trkpt>
      <trkpt lat="42.90943" lon="-0.60684">
        <ele>1443</ele>
        <time>2021-12-08T10:02:07.999Z</time>
      </trkpt>
      <trkpt lat="42.90943" lon="-0.60679">
        <ele>1451</ele>
        <time>2021-12-08T10:02:11.999Z</time>
      </trkpt>
      <trkpt lat="42.90945" lon="-0.60674">
        <ele>1451</ele>
        <time>2021-12-08T10:02:16.999Z</time>
      </trkpt>
      <trkpt lat="42.90946" lon="-0.60671">
        <ele>1451</ele>
        <time>2021-12-08T10:02:20.999Z</time>
      </trkpt>
      <trkpt lat="42.90947" lon="-0.60663">
        <ele>1451</ele>
        <time>2021-12-08T10:02:49.999Z</time>
      </trkpt>
      <trkpt lat="42.90943" lon="-0.60664">
        <ele>1451</ele>
        <time>2021-12-08T10:02:54.999Z</time>
      </trkpt>
      <trkpt lat="42.90939" lon="-0.60666">
        <ele>1451</ele>
        <time>2021-12-08T10:02:59.999Z</time>
      </trkpt>
      <trkpt lat="42.90935" lon="-0.60669">
        <ele>1451</ele>
        <time>2021-12-08T10:03:04.999Z</time>
      </trkpt>
      <trkpt lat="42.90934" lon="-0.60674">
        <ele>1451</ele>
        <time>2021-12-08T10:03:09.999Z</time>
      </trkpt>
      <trkpt lat="42.90932" lon="-0.60669">
        <ele>1451</ele>
        <time>2021-12-08T10:09:16.999Z</time>
      </trkpt>
      <trkpt lat="42.90933" lon="-0.60668">
        <ele>1451</ele>
        <time>2021-12-08T10:09:21.999Z</time>
      </trkpt>
      <trkpt lat="42.90933" lon="-0.60668">
        <ele>1451</ele>
        <time>2021-12-08T10:09:26.999Z</time>
      </trkpt>
      <trkpt lat="42.90934" lon="-0.60667">
        <ele>1451</ele>
        <time>2021-12-08T10:09:31.999Z</time>
      </trkpt>
      <trkpt lat="42.90937" lon="-0.60665">
        <ele>1451</ele>
        <time>2021-12-08T10:09:36.999Z</time>
      </trkpt>
      <trkpt lat="42.90938" lon="-0.60662">
        <ele>1451</ele>
        <time>2021-12-08T10:09:40.999Z</time>
      </trkpt>
      <trkpt lat="42.9094" lon="-0.60658">
        <ele>1451</ele>
        <time>2021-12-08T10:09:44.999Z</time>
      </trkpt>
      <trkpt lat="42.90941" lon="-0.60654">
        <ele>1451</ele>
        <time>2021-12-08T10:09:49.999Z</time>
      </trkpt>
      <trkpt lat="42.90945" lon="-0.60652">
        <ele>1459</ele>
        <time>2021-12-08T10:09:54.999Z</time>
      </trkpt>
      <trkpt lat="42.90955" lon="-0.6065">
        <ele>1459</ele>
        <time>2021-12-08T10:10:04.999Z</time>
      </trkpt>
      <trkpt lat="42.90956" lon="-0.60651">
        <ele>1459</ele>
        <time>2021-12-08T10:10:08.999Z</time>
      </trkpt>
      <trkpt lat="42.90957" lon="-0.60652">
        <ele>1459</ele>
        <time>2021-12-08T10:10:13.999Z</time>
      </trkpt>
      <trkpt lat="42.90958" lon="-0.60651">
        <ele>1459</ele>
        <time>2021-12-08T10:10:18.999Z</time>
      </trkpt>
      <trkpt lat="42.9096" lon="-0.6065">
        <ele>1450</ele>
        <time>2021-12-08T10:10:23.999Z</time>
      </trkpt>
      <trkpt lat="42.90965" lon="-0.60641">
        <ele>1450</ele>
        <time>2021-12-08T10:11:20.999Z</time>
      </trkpt>
      <trkpt lat="42.90965" lon="-0.60641">
        <ele>1450</ele>
        <time>2021-12-08T10:11:24.999Z</time>
      </trkpt>
      <trkpt lat="42.90966" lon="-0.6064">
        <ele>1450</ele>
        <time>2021-12-08T10:11:29.999Z</time>
      </trkpt>
      <trkpt lat="42.90967" lon="-0.60638">
        <ele>1450</ele>
        <time>2021-12-08T10:11:34.999Z</time>
      </trkpt>
      <trkpt lat="42.90966" lon="-0.60637">
        <ele>1450</ele>
        <time>2021-12-08T10:11:39.999Z</time>
      </trkpt>
      <trkpt lat="42.90967" lon="-0.60628">
        <ele>1450</ele>
        <time>2021-12-08T10:12:04.999Z</time>
      </trkpt>
      <trkpt lat="42.90963" lon="-0.60626">
        <ele>1450</ele>
        <time>2021-12-08T10:12:09.999Z</time>
      </trkpt>
      <trkpt lat="42.9096" lon="-0.60623">
        <ele>1457</ele>
        <time>2021-12-08T10:12:14.999Z</time>
      </trkpt>
      <trkpt lat="42.90956" lon="-0.60621">
        <ele>1465</ele>
        <time>2021-12-08T10:12:19.999Z</time>
      </trkpt>
      <trkpt lat="42.90952" lon="-0.60626">
        <ele>1459</ele>
        <time>2021-12-08T10:12:24.999Z</time>
      </trkpt>
      <trkpt lat="42.90943" lon="-0.60631">
        <ele>1459</ele>
        <time>2021-12-08T10:12:34.999Z</time>
      </trkpt>
      <trkpt lat="42.90942" lon="-0.60633">
        <ele>1459</ele>
        <time>2021-12-08T10:12:38.999Z</time>
      </trkpt>
      <trkpt lat="42.9094" lon="-0.60634">
        <ele>1459</ele>
        <time>2021-12-08T10:12:43.999Z</time>
      </trkpt>
      <trkpt lat="42.9094" lon="-0.60634">
        <ele>1459</ele>
        <time>2021-12-08T10:12:48.999Z</time>
      </trkpt>
      <trkpt lat="42.90939" lon="-0.60635">
        <ele>1459</ele>
        <time>2021-12-08T10:12:53.999Z</time>
      </trkpt>
      <trkpt lat="42.90939" lon="-0.60633">
        <ele>1459</ele>
        <time>2021-12-08T10:13:12.999Z</time>
      </trkpt>
      <trkpt lat="42.90942" lon="-0.60633">
        <ele>1459</ele>
        <time>2021-12-08T10:13:17.999Z</time>
      </trkpt>
      <trkpt lat="42.90945" lon="-0.60631">
        <ele>1459</ele>
        <time>2021-12-08T10:13:22.999Z</time>
      </trkpt>
      <trkpt lat="42.90946" lon="-0.60629">
        <ele>1459</ele>
        <time>2021-12-08T10:13:26.999Z</time>
      </trkpt>
      <trkpt lat="42.90948" lon="-0.60624">
        <ele>1465</ele>
        <time>2021-12-08T10:13:31.999Z</time>
      </trkpt>
      <trkpt lat="42.90951" lon="-0.60619">
        <ele>1465</ele>
        <time>2021-12-08T10:13:36.999Z</time>
      </trkpt>
      <trkpt lat="42.90949" lon="-0.60614">
        <ele>1465</ele>
        <time>2021-12-08T10:13:41.999Z</time>
      </trkpt>
      <trkpt lat="42.90945" lon="-0.60615">
        <ele>1465</ele>
        <time>2021-12-08T10:13:45.999Z</time>
      </trkpt>
      <trkpt lat="42.90941" lon="-0.60615">
        <ele>1465</ele>
        <time>2021-12-08T10:13:50.999Z</time>
      </trkpt>
      <trkpt lat="42.90938" lon="-0.60612">
        <ele>1465</ele>
        <time>2021-12-08T10:13:55.999Z</time>
      </trkpt>
      <trkpt lat="42.90935" lon="-0.6061">
        <ele>1465</ele>
        <time>2021-12-08T10:14:00.999Z</time>
      </trkpt>
      <trkpt lat="42.90931" lon="-0.60612">
        <ele>1465</ele>
        <time>2021-12-08T10:14:05.999Z</time>
      </trkpt>
      <trkpt lat="42.90929" lon="-0.60613">
        <ele>1476</ele>
        <time>2021-12-08T10:14:09.999Z</time>
      </trkpt>
      <trkpt lat="42.90928" lon="-0.60614">
        <ele>1476</ele>
        <time>2021-12-08T10:14:58.999Z</time>
      </trkpt>
      <trkpt lat="42.90927" lon="-0.60609">
        <ele>1476</ele>
        <time>2021-12-08T10:15:03.999Z</time>
      </trkpt>
      <trkpt lat="42.90929" lon="-0.60605">
        <ele>1476</ele>
        <time>2021-12-08T10:15:07.999Z</time>
      </trkpt>
      <trkpt lat="42.9093" lon="-0.60601">
        <ele>1476</ele>
        <time>2021-12-08T10:15:12.999Z</time>
      </trkpt>
      <trkpt lat="42.90931" lon="-0.60601">
        <ele>1465</ele>
        <time>2021-12-08T10:15:17.999Z</time>
      </trkpt>
      <trkpt lat="42.90924" lon="-0.60598">
        <ele>1476</ele>
        <time>2021-12-08T10:17:17.999Z</time>
      </trkpt>
      <trkpt lat="42.90924" lon="-0.60594">
        <ele>1483</ele>
        <time>2021-12-08T10:17:21.999Z</time>
      </trkpt>
      <trkpt lat="42.90924" lon="-0.60592">
        <ele>1483</ele>
        <time>2021-12-08T10:17:26.999Z</time>
      </trkpt>
      <trkpt lat="42.90921" lon="-0.60593">
        <ele>1483</ele>
        <time>2021-12-08T10:17:31.999Z</time>
      </trkpt>
      <trkpt lat="42.90917" lon="-0.60595">
        <ele>1483</ele>
        <time>2021-12-08T10:17:36.999Z</time>
      </trkpt>
      <trkpt lat="42.90913" lon="-0.60593">
        <ele>1483</ele>
        <time>2021-12-08T10:17:46.999Z</time>
      </trkpt>
      <trkpt lat="42.90911" lon="-0.60592">
        <ele>1483</ele>
        <time>2021-12-08T10:17:51.999Z</time>
      </trkpt>
      <trkpt lat="42.9091" lon="-0.60588">
        <ele>1483</ele>
        <time>2021-12-08T10:17:56.999Z</time>
      </trkpt>
      <trkpt lat="42.90909" lon="-0.60585">
        <ele>1483</ele>
        <time>2021-12-08T10:18:01.999Z</time>
      </trkpt>
      <trkpt lat="42.90907" lon="-0.60585">
        <ele>1483</ele>
        <time>2021-12-08T10:18:06.999Z</time>
      </trkpt>
      <trkpt lat="42.90904" lon="-0.60579">
        <ele>1483</ele>
        <time>2021-12-08T10:18:45.999Z</time>
      </trkpt>
      <trkpt lat="42.90905" lon="-0.60576">
        <ele>1483</ele>
        <time>2021-12-08T10:18:50.999Z</time>
      </trkpt>
      <trkpt lat="42.90905" lon="-0.60573">
        <ele>1483</ele>
        <time>2021-12-08T10:18:55.999Z</time>
      </trkpt>
      <trkpt lat="42.90905" lon="-0.60572">
        <ele>1483</ele>
        <time>2021-12-08T10:19:00.999Z</time>
      </trkpt>
      <trkpt lat="42.90906" lon="-0.60568">
        <ele>1494</ele>
        <time>2021-12-08T10:19:05.999Z</time>
      </trkpt>
      <trkpt lat="42.90901" lon="-0.60557">
        <ele>1501</ele>
        <time>2021-12-08T10:20:04.999Z</time>
      </trkpt>
      <trkpt lat="42.909" lon="-0.60558">
        <ele>1501</ele>
        <time>2021-12-08T10:20:09.999Z</time>
      </trkpt>
      <trkpt lat="42.90899" lon="-0.60558">
        <ele>1501</ele>
        <time>2021-12-08T10:20:13.999Z</time>
      </trkpt>
      <trkpt lat="42.90898" lon="-0.60563">
        <ele>1501</ele>
        <time>2021-12-08T10:20:18.999Z</time>
      </trkpt>
      <trkpt lat="42.90895" lon="-0.60565">
        <ele>1501</ele>
        <time>2021-12-08T10:20:23.999Z</time>
      </trkpt>
      <trkpt lat="42.90893" lon="-0.60567">
        <ele>1501</ele>
        <time>2021-12-08T10:20:28.999Z</time>
      </trkpt>
      <trkpt lat="42.9089" lon="-0.6057">
        <ele>1492</ele>
        <time>2021-12-08T10:20:33.999Z</time>
      </trkpt>
      <trkpt lat="42.9089" lon="-0.60575">
        <ele>1492</ele>
        <time>2021-12-08T10:20:38.999Z</time>
      </trkpt>
      <trkpt lat="42.90889" lon="-0.60579">
        <ele>1492</ele>
        <time>2021-12-08T10:20:42.999Z</time>
      </trkpt>
      <trkpt lat="42.90885" lon="-0.60581">
        <ele>1492</ele>
        <time>2021-12-08T10:23:47.999Z</time>
      </trkpt>
      <trkpt lat="42.90884" lon="-0.60582">
        <ele>1492</ele>
        <time>2021-12-08T10:23:52.999Z</time>
      </trkpt>
      <trkpt lat="42.90884" lon="-0.60584">
        <ele>1492</ele>
        <time>2021-12-08T10:23:56.999Z</time>
      </trkpt>
      <trkpt lat="42.90882" lon="-0.60588">
        <ele>1492</ele>
        <time>2021-12-08T10:24:01.999Z</time>
      </trkpt>
      <trkpt lat="42.90881" lon="-0.60592">
        <ele>1492</ele>
        <time>2021-12-08T10:24:06.999Z</time>
      </trkpt>
      <trkpt lat="42.90877" lon="-0.606">
        <ele>1486</ele>
        <time>2021-12-08T10:24:21.999Z</time>
      </trkpt>
      <trkpt lat="42.90876" lon="-0.60601">
        <ele>1486</ele>
        <time>2021-12-08T10:24:25.999Z</time>
      </trkpt>
      <trkpt lat="42.90876" lon="-0.60602">
        <ele>1486</ele>
        <time>2021-12-08T10:24:29.999Z</time>
      </trkpt>
      <trkpt lat="42.90876" lon="-0.60604">
        <ele>1486</ele>
        <time>2021-12-08T10:24:34.999Z</time>
      </trkpt>
      <trkpt lat="42.90872" lon="-0.60607">
        <ele>1497</ele>
        <time>2021-12-08T10:24:38.999Z</time>
      </trkpt>
      <trkpt lat="42.90867" lon="-0.6061">
        <ele>1497</ele>
        <time>2021-12-08T10:24:52.999Z</time>
      </trkpt>
      <trkpt lat="42.90865" lon="-0.60613">
        <ele>1497</ele>
        <time>2021-12-08T10:24:57.999Z</time>
      </trkpt>
      <trkpt lat="42.90862" lon="-0.60618">
        <ele>1497</ele>
        <time>2021-12-08T10:25:02.999Z</time>
      </trkpt>
      <trkpt lat="42.9086" lon="-0.60626">
        <ele>1488</ele>
        <time>2021-12-08T10:25:07.999Z</time>
      </trkpt>
      <trkpt lat="42.90857" lon="-0.6063">
        <ele>1488</ele>
        <time>2021-12-08T10:25:12.999Z</time>
      </trkpt>
      <trkpt lat="42.90855" lon="-0.60633">
        <ele>1488</ele>
        <time>2021-12-08T10:25:16.999Z</time>
      </trkpt>
      <trkpt lat="42.90851" lon="-0.60638">
        <ele>1488</ele>
        <time>2021-12-08T10:25:21.999Z</time>
      </trkpt>
      <trkpt lat="42.90849" lon="-0.60641">
        <ele>1488</ele>
        <time>2021-12-08T10:25:26.999Z</time>
      </trkpt>
      <trkpt lat="42.90847" lon="-0.60645">
        <ele>1496</ele>
        <time>2021-12-08T10:25:31.999Z</time>
      </trkpt>
      <trkpt lat="42.90845" lon="-0.60649">
        <ele>1496</ele>
        <time>2021-12-08T10:25:36.999Z</time>
      </trkpt>
      <trkpt lat="42.90841" lon="-0.60654">
        <ele>1489</ele>
        <time>2021-12-08T10:25:41.999Z</time>
      </trkpt>
      <trkpt lat="42.90837" lon="-0.60657">
        <ele>1489</ele>
        <time>2021-12-08T10:25:46.999Z</time>
      </trkpt>
      <trkpt lat="42.90833" lon="-0.60659">
        <ele>1489</ele>
        <time>2021-12-08T10:25:51.999Z</time>
      </trkpt>
      <trkpt lat="42.9083" lon="-0.60664">
        <ele>1489</ele>
        <time>2021-12-08T10:25:56.999Z</time>
      </trkpt>
      <trkpt lat="42.90826" lon="-0.60668">
        <ele>1489</ele>
        <time>2021-12-08T10:26:01.999Z</time>
      </trkpt>
      <trkpt lat="42.90824" lon="-0.60672">
        <ele>1489</ele>
        <time>2021-12-08T10:26:06.999Z</time>
      </trkpt>
      <trkpt lat="42.90822" lon="-0.60676">
        <ele>1489</ele>
        <time>2021-12-08T10:26:11.999Z</time>
      </trkpt>
      <trkpt lat="42.90819" lon="-0.60679">
        <ele>1497</ele>
        <time>2021-12-08T10:26:16.999Z</time>
      </trkpt>
      <trkpt lat="42.90815" lon="-0.6068">
        <ele>1497</ele>
        <time>2021-12-08T10:26:21.999Z</time>
      </trkpt>
      <trkpt lat="42.90811" lon="-0.60682">
        <ele>1489</ele>
        <time>2021-12-08T10:26:26.999Z</time>
      </trkpt>
      <trkpt lat="42.90807" lon="-0.60685">
        <ele>1489</ele>
        <time>2021-12-08T10:26:31.999Z</time>
      </trkpt>
      <trkpt lat="42.90803" lon="-0.60686">
        <ele>1489</ele>
        <time>2021-12-08T10:26:36.999Z</time>
      </trkpt>
      <trkpt lat="42.90802" lon="-0.6069">
        <ele>1489</ele>
        <time>2021-12-08T10:26:41.999Z</time>
      </trkpt>
      <trkpt lat="42.90802" lon="-0.60694">
        <ele>1489</ele>
        <time>2021-12-08T10:26:46.999Z</time>
      </trkpt>
      <trkpt lat="42.90799" lon="-0.60695">
        <ele>1489</ele>
        <time>2021-12-08T10:26:50.999Z</time>
      </trkpt>
      <trkpt lat="42.90797" lon="-0.60695">
        <ele>1489</ele>
        <time>2021-12-08T10:26:55.999Z</time>
      </trkpt>
      <trkpt lat="42.90796" lon="-0.60696">
        <ele>1489</ele>
        <time>2021-12-08T10:26:59.999Z</time>
      </trkpt>
      <trkpt lat="42.90793" lon="-0.607">
        <ele>1489</ele>
        <time>2021-12-08T10:27:04.999Z</time>
      </trkpt>
      <trkpt lat="42.90789" lon="-0.60705">
        <ele>1496</ele>
        <time>2021-12-08T10:27:09.999Z</time>
      </trkpt>
      <trkpt lat="42.90786" lon="-0.60709">
        <ele>1488</ele>
        <time>2021-12-08T10:27:14.999Z</time>
      </trkpt>
      <trkpt lat="42.90783" lon="-0.60714">
        <ele>1488</ele>
        <time>2021-12-08T10:27:19.999Z</time>
      </trkpt>
      <trkpt lat="42.9078" lon="-0.60717">
        <ele>1488</ele>
        <time>2021-12-08T10:27:23.999Z</time>
      </trkpt>
      <trkpt lat="42.90778" lon="-0.6072">
        <ele>1488</ele>
        <time>2021-12-08T10:27:28.999Z</time>
      </trkpt>
      <trkpt lat="42.90776" lon="-0.60723">
        <ele>1488</ele>
        <time>2021-12-08T10:27:32.999Z</time>
      </trkpt>
      <trkpt lat="42.90773" lon="-0.60727">
        <ele>1488</ele>
        <time>2021-12-08T10:27:37.999Z</time>
      </trkpt>
      <trkpt lat="42.90771" lon="-0.60729">
        <ele>1488</ele>
        <time>2021-12-08T10:27:41.999Z</time>
      </trkpt>
      <trkpt lat="42.90769" lon="-0.6073">
        <ele>1488</ele>
        <time>2021-12-08T10:27:46.999Z</time>
      </trkpt>
      <trkpt lat="42.90765" lon="-0.60731">
        <ele>1488</ele>
        <time>2021-12-08T10:27:51.999Z</time>
      </trkpt>
      <trkpt lat="42.90763" lon="-0.60735">
        <ele>1492</ele>
        <time>2021-12-08T10:27:56.999Z</time>
      </trkpt>
      <trkpt lat="42.9076" lon="-0.60739">
        <ele>1485</ele>
        <time>2021-12-08T10:28:01.999Z</time>
      </trkpt>
      <trkpt lat="42.90757" lon="-0.60741">
        <ele>1485</ele>
        <time>2021-12-08T10:28:05.999Z</time>
      </trkpt>
      <trkpt lat="42.90754" lon="-0.60743">
        <ele>1485</ele>
        <time>2021-12-08T10:28:10.999Z</time>
      </trkpt>
      <trkpt lat="42.9075" lon="-0.60747">
        <ele>1485</ele>
        <time>2021-12-08T10:28:15.999Z</time>
      </trkpt>
      <trkpt lat="42.90747" lon="-0.6075">
        <ele>1485</ele>
        <time>2021-12-08T10:28:20.999Z</time>
      </trkpt>
      <trkpt lat="42.90744" lon="-0.60752">
        <ele>1485</ele>
        <time>2021-12-08T10:28:25.999Z</time>
      </trkpt>
      <trkpt lat="42.90741" lon="-0.60752">
        <ele>1485</ele>
        <time>2021-12-08T10:28:29.999Z</time>
      </trkpt>
      <trkpt lat="42.90737" lon="-0.60752">
        <ele>1485</ele>
        <time>2021-12-08T10:28:34.999Z</time>
      </trkpt>
      <trkpt lat="42.90734" lon="-0.60754">
        <ele>1490</ele>
        <time>2021-12-08T10:28:39.999Z</time>
      </trkpt>
      <trkpt lat="42.90731" lon="-0.60755">
        <ele>1490</ele>
        <time>2021-12-08T10:28:43.999Z</time>
      </trkpt>
      <trkpt lat="42.90728" lon="-0.60757">
        <ele>1490</ele>
        <time>2021-12-08T10:28:48.999Z</time>
      </trkpt>
      <trkpt lat="42.90725" lon="-0.60757">
        <ele>1490</ele>
        <time>2021-12-08T10:28:53.999Z</time>
      </trkpt>
      <trkpt lat="42.9072" lon="-0.60758">
        <ele>1490</ele>
        <time>2021-12-08T10:28:58.999Z</time>
      </trkpt>
      <trkpt lat="42.90716" lon="-0.60757">
        <ele>1490</ele>
        <time>2021-12-08T10:29:03.999Z</time>
      </trkpt>
      <trkpt lat="42.90712" lon="-0.60757">
        <ele>1490</ele>
        <time>2021-12-08T10:29:08.999Z</time>
      </trkpt>
      <trkpt lat="42.90709" lon="-0.60757">
        <ele>1490</ele>
        <time>2021-12-08T10:29:12.999Z</time>
      </trkpt>
      <trkpt lat="42.90705" lon="-0.60759">
        <ele>1493</ele>
        <time>2021-12-08T10:29:17.999Z</time>
      </trkpt>
      <trkpt lat="42.90701" lon="-0.60762">
        <ele>1493</ele>
        <time>2021-12-08T10:29:22.999Z</time>
      </trkpt>
      <trkpt lat="42.90698" lon="-0.60766">
        <ele>1486</ele>
        <time>2021-12-08T10:29:26.999Z</time>
      </trkpt>
      <trkpt lat="42.90693" lon="-0.6077">
        <ele>1486</ele>
        <time>2021-12-08T10:29:31.999Z</time>
      </trkpt>
      <trkpt lat="42.90689" lon="-0.60772">
        <ele>1486</ele>
        <time>2021-12-08T10:29:36.999Z</time>
      </trkpt>
      <trkpt lat="42.90685" lon="-0.60774">
        <ele>1486</ele>
        <time>2021-12-08T10:29:41.999Z</time>
      </trkpt>
      <trkpt lat="42.90682" lon="-0.60777">
        <ele>1486</ele>
        <time>2021-12-08T10:29:46.999Z</time>
      </trkpt>
      <trkpt lat="42.90678" lon="-0.60779">
        <ele>1488</ele>
        <time>2021-12-08T10:29:51.999Z</time>
      </trkpt>
      <trkpt lat="42.90671" lon="-0.60777">
        <ele>1488</ele>
        <time>2021-12-08T10:30:21.999Z</time>
      </trkpt>
      <trkpt lat="42.9067" lon="-0.60776">
        <ele>1488</ele>
        <time>2021-12-08T10:30:26.999Z</time>
      </trkpt>
      <trkpt lat="42.9067" lon="-0.60773">
        <ele>1488</ele>
        <time>2021-12-08T10:30:30.999Z</time>
      </trkpt>
      <trkpt lat="42.90669" lon="-0.60771">
        <ele>1488</ele>
        <time>2021-12-08T10:30:34.999Z</time>
      </trkpt>
      <trkpt lat="42.90668" lon="-0.60766">
        <ele>1488</ele>
        <time>2021-12-08T10:30:39.999Z</time>
      </trkpt>
      <trkpt lat="42.90665" lon="-0.60766">
        <ele>1488</ele>
        <time>2021-12-08T10:30:44.999Z</time>
      </trkpt>
      <trkpt lat="42.90662" lon="-0.60765">
        <ele>1488</ele>
        <time>2021-12-08T10:30:48.999Z</time>
      </trkpt>
      <trkpt lat="42.90658" lon="-0.60766">
        <ele>1488</ele>
        <time>2021-12-08T10:30:53.999Z</time>
      </trkpt>
      <trkpt lat="42.90654" lon="-0.60766">
        <ele>1488</ele>
        <time>2021-12-08T10:30:58.999Z</time>
      </trkpt>
      <trkpt lat="42.90648" lon="-0.60764">
        <ele>1508</ele>
        <time>2021-12-08T10:31:32.999Z</time>
      </trkpt>
      <trkpt lat="42.90648" lon="-0.60761">
        <ele>1508</ele>
        <time>2021-12-08T10:31:37.999Z</time>
      </trkpt>
      <trkpt lat="42.90644" lon="-0.60758">
        <ele>1508</ele>
        <time>2021-12-08T10:31:42.999Z</time>
      </trkpt>
      <trkpt lat="42.90639" lon="-0.60759">
        <ele>1508</ele>
        <time>2021-12-08T10:31:47.999Z</time>
      </trkpt>
      <trkpt lat="42.90636" lon="-0.60761">
        <ele>1508</ele>
        <time>2021-12-08T10:31:52.999Z</time>
      </trkpt>
      <trkpt lat="42.90633" lon="-0.60752">
        <ele>1508</ele>
        <time>2021-12-08T10:32:11.999Z</time>
      </trkpt>
      <trkpt lat="42.90632" lon="-0.6075">
        <ele>1508</ele>
        <time>2021-12-08T10:32:16.999Z</time>
      </trkpt>
      <trkpt lat="42.90633" lon="-0.60749">
        <ele>1508</ele>
        <time>2021-12-08T10:32:21.999Z</time>
      </trkpt>
      <trkpt lat="42.90634" lon="-0.60747">
        <ele>1508</ele>
        <time>2021-12-08T10:32:26.999Z</time>
      </trkpt>
      <trkpt lat="42.90632" lon="-0.60746">
        <ele>1508</ele>
        <time>2021-12-08T10:32:31.999Z</time>
      </trkpt>
      <trkpt lat="42.90631" lon="-0.6074">
        <ele>1508</ele>
        <time>2021-12-08T10:32:41.999Z</time>
      </trkpt>
      <trkpt lat="42.90631" lon="-0.60738">
        <ele>1508</ele>
        <time>2021-12-08T10:32:45.999Z</time>
      </trkpt>
      <trkpt lat="42.90632" lon="-0.60734">
        <ele>1515</ele>
        <time>2021-12-08T10:32:50.999Z</time>
      </trkpt>
      <trkpt lat="42.90634" lon="-0.60732">
        <ele>1515</ele>
        <time>2021-12-08T10:32:55.999Z</time>
      </trkpt>
      <trkpt lat="42.90636" lon="-0.60731">
        <ele>1515</ele>
        <time>2021-12-08T10:33:00.999Z</time>
      </trkpt>
      <trkpt lat="42.90636" lon="-0.60728">
        <ele>1515</ele>
        <time>2021-12-08T10:33:05.999Z</time>
      </trkpt>
      <trkpt lat="42.90634" lon="-0.60725">
        <ele>1515</ele>
        <time>2021-12-08T10:33:09.999Z</time>
      </trkpt>
      <trkpt lat="42.90635" lon="-0.6072">
        <ele>1515</ele>
        <time>2021-12-08T10:33:14.999Z</time>
      </trkpt>
      <trkpt lat="42.90636" lon="-0.60715">
        <ele>1515</ele>
        <time>2021-12-08T10:33:19.999Z</time>
      </trkpt>
      <trkpt lat="42.90639" lon="-0.6071">
        <ele>1515</ele>
        <time>2021-12-08T10:33:28.999Z</time>
      </trkpt>
      <trkpt lat="42.90637" lon="-0.60708">
        <ele>1515</ele>
        <time>2021-12-08T10:33:33.999Z</time>
      </trkpt>
      <trkpt lat="42.90635" lon="-0.60706">
        <ele>1521</ele>
        <time>2021-12-08T10:33:38.999Z</time>
      </trkpt>
      <trkpt lat="42.90633" lon="-0.60702">
        <ele>1521</ele>
        <time>2021-12-08T10:33:43.999Z</time>
      </trkpt>
      <trkpt lat="42.90632" lon="-0.60699">
        <ele>1521</ele>
        <time>2021-12-08T10:33:48.999Z</time>
      </trkpt>
      <trkpt lat="42.90632" lon="-0.60696">
        <ele>1521</ele>
        <time>2021-12-08T10:33:53.999Z</time>
      </trkpt>
      <trkpt lat="42.90633" lon="-0.60691">
        <ele>1521</ele>
        <time>2021-12-08T10:33:58.999Z</time>
      </trkpt>
      <trkpt lat="42.90634" lon="-0.60688">
        <ele>1521</ele>
        <time>2021-12-08T10:34:02.999Z</time>
      </trkpt>
      <trkpt lat="42.90634" lon="-0.60684">
        <ele>1521</ele>
        <time>2021-12-08T10:34:07.999Z</time>
      </trkpt>
      <trkpt lat="42.90633" lon="-0.60681">
        <ele>1521</ele>
        <time>2021-12-08T10:34:12.999Z</time>
      </trkpt>
      <trkpt lat="42.90632" lon="-0.60674">
        <ele>1525</ele>
        <time>2021-12-08T10:34:22.999Z</time>
      </trkpt>
      <trkpt lat="42.90632" lon="-0.60672">
        <ele>1525</ele>
        <time>2021-12-08T10:34:26.999Z</time>
      </trkpt>
      <trkpt lat="42.90633" lon="-0.60669">
        <ele>1525</ele>
        <time>2021-12-08T10:34:31.999Z</time>
      </trkpt>
      <trkpt lat="42.90631" lon="-0.60666">
        <ele>1525</ele>
        <time>2021-12-08T10:34:36.999Z</time>
      </trkpt>
      <trkpt lat="42.90631" lon="-0.60662">
        <ele>1525</ele>
        <time>2021-12-08T10:34:41.999Z</time>
      </trkpt>
      <trkpt lat="42.90629" lon="-0.60661">
        <ele>1525</ele>
        <time>2021-12-08T10:34:46.999Z</time>
      </trkpt>
      <trkpt lat="42.90628" lon="-0.6066">
        <ele>1525</ele>
        <time>2021-12-08T10:34:51.999Z</time>
      </trkpt>
      <trkpt lat="42.90628" lon="-0.60656">
        <ele>1525</ele>
        <time>2021-12-08T10:34:56.999Z</time>
      </trkpt>
      <trkpt lat="42.90627" lon="-0.60651">
        <ele>1527</ele>
        <time>2021-12-08T10:35:01.999Z</time>
      </trkpt>
      <trkpt lat="42.90625" lon="-0.60647">
        <ele>1527</ele>
        <time>2021-12-08T10:35:06.999Z</time>
      </trkpt>
      <trkpt lat="42.90625" lon="-0.60644">
        <ele>1527</ele>
        <time>2021-12-08T10:35:10.999Z</time>
      </trkpt>
      <trkpt lat="42.90622" lon="-0.60642">
        <ele>1530</ele>
        <time>2021-12-08T10:35:15.999Z</time>
      </trkpt>
      <trkpt lat="42.90622" lon="-0.60638">
        <ele>1530</ele>
        <time>2021-12-08T10:35:20.999Z</time>
      </trkpt>
      <trkpt lat="42.90621" lon="-0.60634">
        <ele>1530</ele>
        <time>2021-12-08T10:35:24.999Z</time>
      </trkpt>
      <trkpt lat="42.9062" lon="-0.60629">
        <ele>1530</ele>
        <time>2021-12-08T10:35:29.999Z</time>
      </trkpt>
      <trkpt lat="42.90616" lon="-0.60623">
        <ele>1532</ele>
        <time>2021-12-08T10:40:30.999Z</time>
      </trkpt>
      <trkpt lat="42.90613" lon="-0.60621">
        <ele>1532</ele>
        <time>2021-12-08T10:40:34.999Z</time>
      </trkpt>
      <trkpt lat="42.90609" lon="-0.60622">
        <ele>1532</ele>
        <time>2021-12-08T10:40:39.999Z</time>
      </trkpt>
      <trkpt lat="42.90608" lon="-0.60623">
        <ele>1532</ele>
        <time>2021-12-08T10:40:44.999Z</time>
      </trkpt>
      <trkpt lat="42.90608" lon="-0.60623">
        <ele>1532</ele>
        <time>2021-12-08T10:40:49.999Z</time>
      </trkpt>
      <trkpt lat="42.90607" lon="-0.60622">
        <ele>1532</ele>
        <time>2021-12-08T10:40:59.999Z</time>
      </trkpt>
      <trkpt lat="42.90606" lon="-0.60619">
        <ele>1532</ele>
        <time>2021-12-08T10:41:03.999Z</time>
      </trkpt>
      <trkpt lat="42.90604" lon="-0.60617">
        <ele>1532</ele>
        <time>2021-12-08T10:41:08.999Z</time>
      </trkpt>
      <trkpt lat="42.90601" lon="-0.60619">
        <ele>1532</ele>
        <time>2021-12-08T10:41:13.999Z</time>
      </trkpt>
      <trkpt lat="42.90598" lon="-0.60616">
        <ele>1532</ele>
        <time>2021-12-08T10:41:18.999Z</time>
      </trkpt>
      <trkpt lat="42.90596" lon="-0.60611">
        <ele>1535</ele>
        <time>2021-12-08T10:41:23.999Z</time>
      </trkpt>
      <trkpt lat="42.90594" lon="-0.60609">
        <ele>1535</ele>
        <time>2021-12-08T10:41:28.999Z</time>
      </trkpt>
      <trkpt lat="42.90592" lon="-0.60606">
        <ele>1535</ele>
        <time>2021-12-08T10:41:32.999Z</time>
      </trkpt>
      <trkpt lat="42.9059" lon="-0.60601">
        <ele>1535</ele>
        <time>2021-12-08T10:41:37.999Z</time>
      </trkpt>
      <trkpt lat="42.90591" lon="-0.60592">
        <ele>1536</ele>
        <time>2021-12-08T10:41:47.999Z</time>
      </trkpt>
      <trkpt lat="42.90589" lon="-0.6059">
        <ele>1536</ele>
        <time>2021-12-08T10:41:52.999Z</time>
      </trkpt>
      <trkpt lat="42.90585" lon="-0.60589">
        <ele>1536</ele>
        <time>2021-12-08T10:41:57.999Z</time>
      </trkpt>
      <trkpt lat="42.90584" lon="-0.60588">
        <ele>1536</ele>
        <time>2021-12-08T10:42:01.999Z</time>
      </trkpt>
      <trkpt lat="42.90583" lon="-0.60585">
        <ele>1536</ele>
        <time>2021-12-08T10:42:06.999Z</time>
      </trkpt>
      <trkpt lat="42.90578" lon="-0.60581">
        <ele>1536</ele>
        <time>2021-12-08T10:42:16.999Z</time>
      </trkpt>
      <trkpt lat="42.90577" lon="-0.60578">
        <ele>1536</ele>
        <time>2021-12-08T10:42:21.999Z</time>
      </trkpt>
      <trkpt lat="42.90577" lon="-0.60576">
        <ele>1536</ele>
        <time>2021-12-08T10:42:25.999Z</time>
      </trkpt>
      <trkpt lat="42.90577" lon="-0.60574">
        <ele>1536</ele>
        <time>2021-12-08T10:42:30.999Z</time>
      </trkpt>
      <trkpt lat="42.90574" lon="-0.60574">
        <ele>1536</ele>
        <time>2021-12-08T10:42:35.999Z</time>
      </trkpt>
      <trkpt lat="42.90574" lon="-0.60572">
        <ele>1536</ele>
        <time>2021-12-08T10:42:40.999Z</time>
      </trkpt>
      <trkpt lat="42.90573" lon="-0.60569">
        <ele>1537</ele>
        <time>2021-12-08T10:42:45.999Z</time>
      </trkpt>
      <trkpt lat="42.9057" lon="-0.60565">
        <ele>1537</ele>
        <time>2021-12-08T10:42:50.999Z</time>
      </trkpt>
      <trkpt lat="42.90568" lon="-0.60563">
        <ele>1546</ele>
        <time>2021-12-08T10:42:54.999Z</time>
      </trkpt>
      <trkpt lat="42.90567" lon="-0.60561">
        <ele>1546</ele>
        <time>2021-12-08T10:42:59.999Z</time>
      </trkpt>
      <trkpt lat="42.90565" lon="-0.60559">
        <ele>1546</ele>
        <time>2021-12-08T10:43:03.999Z</time>
      </trkpt>
      <trkpt lat="42.90564" lon="-0.60555">
        <ele>1546</ele>
        <time>2021-12-08T10:43:08.999Z</time>
      </trkpt>
      <trkpt lat="42.90562" lon="-0.60553">
        <ele>1546</ele>
        <time>2021-12-08T10:43:12.999Z</time>
      </trkpt>
      <trkpt lat="42.90559" lon="-0.60551">
        <ele>1546</ele>
        <time>2021-12-08T10:43:17.999Z</time>
      </trkpt>
      <trkpt lat="42.90557" lon="-0.60551">
        <ele>1546</ele>
        <time>2021-12-08T10:43:22.999Z</time>
      </trkpt>
      <trkpt lat="42.90553" lon="-0.60548">
        <ele>1546</ele>
        <time>2021-12-08T10:43:27.999Z</time>
      </trkpt>
      <trkpt lat="42.90553" lon="-0.60542">
        <ele>1546</ele>
        <time>2021-12-08T10:43:32.999Z</time>
      </trkpt>
      <trkpt lat="42.90553" lon="-0.60538">
        <ele>1547</ele>
        <time>2021-12-08T10:43:37.999Z</time>
      </trkpt>
      <trkpt lat="42.9055" lon="-0.60538">
        <ele>1547</ele>
        <time>2021-12-08T10:43:41.999Z</time>
      </trkpt>
      <trkpt lat="42.90546" lon="-0.60538">
        <ele>1547</ele>
        <time>2021-12-08T10:43:46.999Z</time>
      </trkpt>
      <trkpt lat="42.90544" lon="-0.60537">
        <ele>1547</ele>
        <time>2021-12-08T10:43:50.999Z</time>
      </trkpt>
      <trkpt lat="42.90541" lon="-0.60536">
        <ele>1556</ele>
        <time>2021-12-08T10:43:55.999Z</time>
      </trkpt>
      <trkpt lat="42.9054" lon="-0.60535">
        <ele>1556</ele>
        <time>2021-12-08T10:43:59.999Z</time>
      </trkpt>
      <trkpt lat="42.9054" lon="-0.60531">
        <ele>1556</ele>
        <time>2021-12-08T10:44:04.999Z</time>
      </trkpt>
      <trkpt lat="42.90537" lon="-0.60528">
        <ele>1556</ele>
        <time>2021-12-08T10:44:09.999Z</time>
      </trkpt>
      <trkpt lat="42.90535" lon="-0.60524">
        <ele>1556</ele>
        <time>2021-12-08T10:44:14.999Z</time>
      </trkpt>
      <trkpt lat="42.90532" lon="-0.6052">
        <ele>1556</ele>
        <time>2021-12-08T10:44:19.999Z</time>
      </trkpt>
      <trkpt lat="42.9053" lon="-0.60516">
        <ele>1556</ele>
        <time>2021-12-08T10:44:24.999Z</time>
      </trkpt>
      <trkpt lat="42.90527" lon="-0.60513">
        <ele>1558</ele>
        <time>2021-12-08T10:44:29.999Z</time>
      </trkpt>
      <trkpt lat="42.90521" lon="-0.60512">
        <ele>1558</ele>
        <time>2021-12-08T10:44:44.999Z</time>
      </trkpt>
      <trkpt lat="42.90521" lon="-0.60509">
        <ele>1558</ele>
        <time>2021-12-08T10:44:49.999Z</time>
      </trkpt>
      <trkpt lat="42.90519" lon="-0.60509">
        <ele>1558</ele>
        <time>2021-12-08T10:44:54.999Z</time>
      </trkpt>
      <trkpt lat="42.90516" lon="-0.60508">
        <ele>1558</ele>
        <time>2021-12-08T10:44:59.999Z</time>
      </trkpt>
      <trkpt lat="42.90515" lon="-0.60507">
        <ele>1558</ele>
        <time>2021-12-08T10:45:04.999Z</time>
      </trkpt>
      <trkpt lat="42.90516" lon="-0.60506">
        <ele>1558</ele>
        <time>2021-12-08T10:45:09.999Z</time>
      </trkpt>
      <trkpt lat="42.90515" lon="-0.60503">
        <ele>1558</ele>
        <time>2021-12-08T10:45:14.999Z</time>
      </trkpt>
      <trkpt lat="42.90513" lon="-0.60495">
        <ele>1568</ele>
        <time>2021-12-08T10:45:19.999Z</time>
      </trkpt>
      <trkpt lat="42.90512" lon="-0.60491">
        <ele>1568</ele>
        <time>2021-12-08T10:45:24.999Z</time>
      </trkpt>
      <trkpt lat="42.90504" lon="-0.60478">
        <ele>1576</ele>
        <time>2021-12-08T10:46:31.999Z</time>
      </trkpt>
      <trkpt lat="42.90504" lon="-0.60477">
        <ele>1576</ele>
        <time>2021-12-08T10:46:36.999Z</time>
      </trkpt>
      <trkpt lat="42.90503" lon="-0.6047">
        <ele>1576</ele>
        <time>2021-12-08T10:46:41.999Z</time>
      </trkpt>
      <trkpt lat="42.90501" lon="-0.60467">
        <ele>1576</ele>
        <time>2021-12-08T10:46:45.999Z</time>
      </trkpt>
      <trkpt lat="42.90501" lon="-0.60467">
        <ele>1576</ele>
        <time>2021-12-08T10:46:50.999Z</time>
      </trkpt>
      <trkpt lat="42.90501" lon="-0.60466">
        <ele>1576</ele>
        <time>2021-12-08T10:46:55.999Z</time>
      </trkpt>
      <trkpt lat="42.90499" lon="-0.60467">
        <ele>1576</ele>
        <time>2021-12-08T10:47:00.999Z</time>
      </trkpt>
      <trkpt lat="42.90498" lon="-0.60468">
        <ele>1576</ele>
        <time>2021-12-08T10:47:05.999Z</time>
      </trkpt>
      <trkpt lat="42.90495" lon="-0.60469">
        <ele>1576</ele>
        <time>2021-12-08T10:47:10.999Z</time>
      </trkpt>
      <trkpt lat="42.90492" lon="-0.60472">
        <ele>1576</ele>
        <time>2021-12-08T10:47:15.999Z</time>
      </trkpt>
      <trkpt lat="42.90492" lon="-0.60471">
        <ele>1576</ele>
        <time>2021-12-08T10:47:19.999Z</time>
      </trkpt>
      <trkpt lat="42.90494" lon="-0.60472">
        <ele>1576</ele>
        <time>2021-12-08T10:47:24.999Z</time>
      </trkpt>
      <trkpt lat="42.90493" lon="-0.60475">
        <ele>1576</ele>
        <time>2021-12-08T10:47:29.999Z</time>
      </trkpt>
      <trkpt lat="42.90489" lon="-0.60481">
        <ele>1576</ele>
        <time>2021-12-08T10:47:34.999Z</time>
      </trkpt>
      <trkpt lat="42.90488" lon="-0.60483">
        <ele>1576</ele>
        <time>2021-12-08T10:47:39.999Z</time>
      </trkpt>
      <trkpt lat="42.90488" lon="-0.60476">
        <ele>1576</ele>
        <time>2021-12-08T10:49:37.999Z</time>
      </trkpt>
      <trkpt lat="42.90487" lon="-0.60475">
        <ele>1576</ele>
        <time>2021-12-08T10:49:42.999Z</time>
      </trkpt>
      <trkpt lat="42.90482" lon="-0.60478">
        <ele>1590</ele>
        <time>2021-12-08T10:49:47.999Z</time>
      </trkpt>
      <trkpt lat="42.90479" lon="-0.60481">
        <ele>1590</ele>
        <time>2021-12-08T10:49:51.999Z</time>
      </trkpt>
      <trkpt lat="42.90477" lon="-0.60486">
        <ele>1585</ele>
        <time>2021-12-08T10:49:56.999Z</time>
      </trkpt>
      <trkpt lat="42.90476" lon="-0.60491">
        <ele>1585</ele>
        <time>2021-12-08T10:51:04.999Z</time>
      </trkpt>
      <trkpt lat="42.90476" lon="-0.60492">
        <ele>1585</ele>
        <time>2021-12-08T10:51:09.999Z</time>
      </trkpt>
      <trkpt lat="42.90473" lon="-0.60496">
        <ele>1585</ele>
        <time>2021-12-08T10:51:14.999Z</time>
      </trkpt>
      <trkpt lat="42.90473" lon="-0.60497">
        <ele>1585</ele>
        <time>2021-12-08T10:51:18.999Z</time>
      </trkpt>
      <trkpt lat="42.90472" lon="-0.60499">
        <ele>1585</ele>
        <time>2021-12-08T10:51:23.999Z</time>
      </trkpt>
      <trkpt lat="42.90471" lon="-0.60505">
        <ele>1585</ele>
        <time>2021-12-08T10:51:32.999Z</time>
      </trkpt>
      <trkpt lat="42.90473" lon="-0.60503">
        <ele>1585</ele>
        <time>2021-12-08T10:51:36.999Z</time>
      </trkpt>
      <trkpt lat="42.9047" lon="-0.60499">
        <ele>1585</ele>
        <time>2021-12-08T10:51:41.999Z</time>
      </trkpt>
      <trkpt lat="42.90469" lon="-0.60493">
        <ele>1585</ele>
        <time>2021-12-08T10:51:46.999Z</time>
      </trkpt>
      <trkpt lat="42.90472" lon="-0.6049">
        <ele>1585</ele>
        <time>2021-12-08T10:51:51.999Z</time>
      </trkpt>
      <trkpt lat="42.90469" lon="-0.60487">
        <ele>1585</ele>
        <time>2021-12-08T10:52:06.999Z</time>
      </trkpt>
      <trkpt lat="42.90467" lon="-0.60486">
        <ele>1585</ele>
        <time>2021-12-08T10:52:11.999Z</time>
      </trkpt>
      <trkpt lat="42.90466" lon="-0.60486">
        <ele>1590</ele>
        <time>2021-12-08T10:52:16.999Z</time>
      </trkpt>
      <trkpt lat="42.90464" lon="-0.60487">
        <ele>1585</ele>
        <time>2021-12-08T10:52:21.999Z</time>
      </trkpt>
      <trkpt lat="42.90461" lon="-0.60486">
        <ele>1585</ele>
        <time>2021-12-08T10:52:26.999Z</time>
      </trkpt>
      <trkpt lat="42.90449" lon="-0.60471">
        <ele>1600</ele>
        <time>2021-12-08T10:54:18.999Z</time>
      </trkpt>
      <trkpt lat="42.90448" lon="-0.60471">
        <ele>1600</ele>
        <time>2021-12-08T10:54:23.999Z</time>
      </trkpt>
      <trkpt lat="42.90447" lon="-0.60469">
        <ele>1600</ele>
        <time>2021-12-08T10:54:28.999Z</time>
      </trkpt>
      <trkpt lat="42.90446" lon="-0.60468">
        <ele>1600</ele>
        <time>2021-12-08T10:54:33.999Z</time>
      </trkpt>
      <trkpt lat="42.90442" lon="-0.60469">
        <ele>1600</ele>
        <time>2021-12-08T10:54:38.999Z</time>
      </trkpt>
      <trkpt lat="42.90438" lon="-0.60467">
        <ele>1600</ele>
        <time>2021-12-08T10:55:06.999Z</time>
      </trkpt>
      <trkpt lat="42.90436" lon="-0.60468">
        <ele>1600</ele>
        <time>2021-12-08T10:55:11.999Z</time>
      </trkpt>
      <trkpt lat="42.90435" lon="-0.60471">
        <ele>1600</ele>
        <time>2021-12-08T10:55:16.999Z</time>
      </trkpt>
      <trkpt lat="42.90435" lon="-0.60474">
        <ele>1600</ele>
        <time>2021-12-08T10:55:21.999Z</time>
      </trkpt>
      <trkpt lat="42.90434" lon="-0.60475">
        <ele>1600</ele>
        <time>2021-12-08T10:55:26.999Z</time>
      </trkpt>
      <trkpt lat="42.90433" lon="-0.60476">
        <ele>1600</ele>
        <time>2021-12-08T10:55:35.999Z</time>
      </trkpt>
      <trkpt lat="42.90432" lon="-0.60476">
        <ele>1600</ele>
        <time>2021-12-08T10:55:40.999Z</time>
      </trkpt>
      <trkpt lat="42.90435" lon="-0.60476">
        <ele>1600</ele>
        <time>2021-12-08T10:55:45.999Z</time>
      </trkpt>
      <trkpt lat="42.9043" lon="-0.60478">
        <ele>1610</ele>
        <time>2021-12-08T10:55:50.999Z</time>
      </trkpt>
      <trkpt lat="42.90424" lon="-0.6048">
        <ele>1610</ele>
        <time>2021-12-08T10:55:55.999Z</time>
      </trkpt>
      <trkpt lat="42.90422" lon="-0.60477">
        <ele>1610</ele>
        <time>2021-12-08T10:56:39.999Z</time>
      </trkpt>
      <trkpt lat="42.90422" lon="-0.60474">
        <ele>1610</ele>
        <time>2021-12-08T10:56:44.999Z</time>
      </trkpt>
      <trkpt lat="42.90422" lon="-0.60472">
        <ele>1610</ele>
        <time>2021-12-08T10:56:49.999Z</time>
      </trkpt>
      <trkpt lat="42.90424" lon="-0.6047">
        <ele>1610</ele>
        <time>2021-12-08T10:56:54.999Z</time>
      </trkpt>
      <trkpt lat="42.90427" lon="-0.60467">
        <ele>1610</ele>
        <time>2021-12-08T10:56:59.999Z</time>
      </trkpt>
      <trkpt lat="42.90429" lon="-0.6045">
        <ele>1610</ele>
        <time>2021-12-08T10:58:25.999Z</time>
      </trkpt>
      <trkpt lat="42.90431" lon="-0.60447">
        <ele>1601</ele>
        <time>2021-12-08T10:58:30.999Z</time>
      </trkpt>
      <trkpt lat="42.90432" lon="-0.60443">
        <ele>1601</ele>
        <time>2021-12-08T10:58:35.999Z</time>
      </trkpt>
      <trkpt lat="42.90434" lon="-0.60439">
        <ele>1601</ele>
        <time>2021-12-08T10:58:40.999Z</time>
      </trkpt>
      <trkpt lat="42.90436" lon="-0.60436">
        <ele>1601</ele>
        <time>2021-12-08T10:58:44.999Z</time>
      </trkpt>
      <trkpt lat="42.90441" lon="-0.60427">
        <ele>1603</ele>
        <time>2021-12-08T10:59:09.999Z</time>
      </trkpt>
      <trkpt lat="42.9044" lon="-0.60425">
        <ele>1603</ele>
        <time>2021-12-08T10:59:14.999Z</time>
      </trkpt>
      <trkpt lat="42.90441" lon="-0.60422">
        <ele>1603</ele>
        <time>2021-12-08T10:59:19.999Z</time>
      </trkpt>
      <trkpt lat="42.90439" lon="-0.60416">
        <ele>1603</ele>
        <time>2021-12-08T10:59:24.999Z</time>
      </trkpt>
      <trkpt lat="42.90437" lon="-0.6041">
        <ele>1603</ele>
        <time>2021-12-08T10:59:29.999Z</time>
      </trkpt>
      <trkpt lat="42.90439" lon="-0.60406">
        <ele>1603</ele>
        <time>2021-12-08T10:59:34.999Z</time>
      </trkpt>
      <trkpt lat="42.90439" lon="-0.60405">
        <ele>1603</ele>
        <time>2021-12-08T10:59:39.999Z</time>
      </trkpt>
      <trkpt lat="42.90437" lon="-0.60403">
        <ele>1603</ele>
        <time>2021-12-08T10:59:44.999Z</time>
      </trkpt>
      <trkpt lat="42.90436" lon="-0.60398">
        <ele>1604</ele>
        <time>2021-12-08T10:59:49.999Z</time>
      </trkpt>
      <trkpt lat="42.90438" lon="-0.60393">
        <ele>1604</ele>
        <time>2021-12-08T10:59:54.999Z</time>
      </trkpt>
      <trkpt lat="42.90437" lon="-0.60381">
        <ele>1604</ele>
        <time>2021-12-08T11:01:36.999Z</time>
      </trkpt>
      <trkpt lat="42.90437" lon="-0.60381">
        <ele>1604</ele>
        <time>2021-12-08T11:01:41.999Z</time>
      </trkpt>
      <trkpt lat="42.90437" lon="-0.60381">
        <ele>1604</ele>
        <time>2021-12-08T11:01:46.999Z</time>
      </trkpt>
      <trkpt lat="42.90433" lon="-0.60382">
        <ele>1604</ele>
        <time>2021-12-08T11:01:51.999Z</time>
      </trkpt>
      <trkpt lat="42.90431" lon="-0.60385">
        <ele>1604</ele>
        <time>2021-12-08T11:01:56.999Z</time>
      </trkpt>
      <trkpt lat="42.90429" lon="-0.60388">
        <ele>1605</ele>
        <time>2021-12-08T11:02:01.999Z</time>
      </trkpt>
      <trkpt lat="42.90427" lon="-0.60389">
        <ele>1605</ele>
        <time>2021-12-08T11:02:05.999Z</time>
      </trkpt>
      <trkpt lat="42.90425" lon="-0.60392">
        <ele>1605</ele>
        <time>2021-12-08T11:02:10.999Z</time>
      </trkpt>
      <trkpt lat="42.90425" lon="-0.60396">
        <ele>1605</ele>
        <time>2021-12-08T11:02:15.999Z</time>
      </trkpt>
      <trkpt lat="42.90424" lon="-0.60399">
        <ele>1605</ele>
        <time>2021-12-08T11:02:20.999Z</time>
      </trkpt>
      <trkpt lat="42.9042" lon="-0.60409">
        <ele>1608</ele>
        <time>2021-12-08T11:02:35.999Z</time>
      </trkpt>
      <trkpt lat="42.90418" lon="-0.6041">
        <ele>1608</ele>
        <time>2021-12-08T11:02:39.999Z</time>
      </trkpt>
      <trkpt lat="42.90418" lon="-0.60411">
        <ele>1608</ele>
        <time>2021-12-08T11:02:44.999Z</time>
      </trkpt>
      <trkpt lat="42.90418" lon="-0.60412">
        <ele>1608</ele>
        <time>2021-12-08T11:02:48.999Z</time>
      </trkpt>
      <trkpt lat="42.90415" lon="-0.60414">
        <ele>1608</ele>
        <time>2021-12-08T11:02:53.999Z</time>
      </trkpt>
      <trkpt lat="42.90414" lon="-0.60416">
        <ele>1608</ele>
        <time>2021-12-08T11:02:58.999Z</time>
      </trkpt>
      <trkpt lat="42.90412" lon="-0.60419">
        <ele>1608</ele>
        <time>2021-12-08T11:03:03.999Z</time>
      </trkpt>
      <trkpt lat="42.9041" lon="-0.6042">
        <ele>1608</ele>
        <time>2021-12-08T11:03:08.999Z</time>
      </trkpt>
      <trkpt lat="42.90408" lon="-0.60422">
        <ele>1608</ele>
        <time>2021-12-08T11:03:13.999Z</time>
      </trkpt>
      <trkpt lat="42.90406" lon="-0.60425">
        <ele>1608</ele>
        <time>2021-12-08T11:03:18.999Z</time>
      </trkpt>
      <trkpt lat="42.90403" lon="-0.60434">
        <ele>1610</ele>
        <time>2021-12-08T11:03:37.999Z</time>
      </trkpt>
      <trkpt lat="42.90402" lon="-0.60437">
        <ele>1617</ele>
        <time>2021-12-08T11:03:42.999Z</time>
      </trkpt>
      <trkpt lat="42.90401" lon="-0.60438">
        <ele>1617</ele>
        <time>2021-12-08T11:03:47.999Z</time>
      </trkpt>
      <trkpt lat="42.90401" lon="-0.60438">
        <ele>1617</ele>
        <time>2021-12-08T11:03:52.999Z</time>
      </trkpt>
      <trkpt lat="42.90401" lon="-0.60439">
        <ele>1617</ele>
        <time>2021-12-08T11:03:57.999Z</time>
      </trkpt>
      <trkpt lat="42.90395" lon="-0.60446">
        <ele>1617</ele>
        <time>2021-12-08T11:05:05.999Z</time>
      </trkpt>
      <trkpt lat="42.90395" lon="-0.60447">
        <ele>1617</ele>
        <time>2021-12-08T11:05:10.999Z</time>
      </trkpt>
      <trkpt lat="42.90395" lon="-0.60447">
        <ele>1617</ele>
        <time>2021-12-08T11:05:15.999Z</time>
      </trkpt>
      <trkpt lat="42.90394" lon="-0.6045">
        <ele>1617</ele>
        <time>2021-12-08T11:05:20.999Z</time>
      </trkpt>
      <trkpt lat="42.90391" lon="-0.60451">
        <ele>1617</ele>
        <time>2021-12-08T11:05:24.999Z</time>
      </trkpt>
      <trkpt lat="42.90389" lon="-0.60453">
        <ele>1617</ele>
        <time>2021-12-08T11:05:29.999Z</time>
      </trkpt>
      <trkpt lat="42.90387" lon="-0.60456">
        <ele>1617</ele>
        <time>2021-12-08T11:05:34.999Z</time>
      </trkpt>
      <trkpt lat="42.90385" lon="-0.60457">
        <ele>1617</ele>
        <time>2021-12-08T11:05:39.999Z</time>
      </trkpt>
      <trkpt lat="42.90382" lon="-0.60458">
        <ele>1617</ele>
        <time>2021-12-08T11:05:44.999Z</time>
      </trkpt>
      <trkpt lat="42.90379" lon="-0.60459">
        <ele>1618</ele>
        <time>2021-12-08T11:05:49.999Z</time>
      </trkpt>
      <trkpt lat="42.90376" lon="-0.60459">
        <ele>1618</ele>
        <time>2021-12-08T11:05:54.999Z</time>
      </trkpt>
      <trkpt lat="42.90373" lon="-0.6046">
        <ele>1626</ele>
        <time>2021-12-08T11:05:59.999Z</time>
      </trkpt>
      <trkpt lat="42.9037" lon="-0.60462">
        <ele>1626</ele>
        <time>2021-12-08T11:06:04.999Z</time>
      </trkpt>
      <trkpt lat="42.90367" lon="-0.60464">
        <ele>1626</ele>
        <time>2021-12-08T11:06:09.999Z</time>
      </trkpt>
      <trkpt lat="42.90358" lon="-0.60467">
        <ele>1626</ele>
        <time>2021-12-08T11:06:34.999Z</time>
      </trkpt>
      <trkpt lat="42.90358" lon="-0.60467">
        <ele>1626</ele>
        <time>2021-12-08T11:06:38.999Z</time>
      </trkpt>
      <trkpt lat="42.90354" lon="-0.60468">
        <ele>1626</ele>
        <time>2021-12-08T11:06:43.999Z</time>
      </trkpt>
      <trkpt lat="42.9035" lon="-0.60469">
        <ele>1626</ele>
        <time>2021-12-08T11:06:48.999Z</time>
      </trkpt>
      <trkpt lat="42.90347" lon="-0.6047">
        <ele>1626</ele>
        <time>2021-12-08T11:06:53.999Z</time>
      </trkpt>
      <trkpt lat="42.90345" lon="-0.60473">
        <ele>1626</ele>
        <time>2021-12-08T11:06:58.999Z</time>
      </trkpt>
      <trkpt lat="42.90342" lon="-0.60476">
        <ele>1626</ele>
        <time>2021-12-08T11:07:03.999Z</time>
      </trkpt>
      <trkpt lat="42.90341" lon="-0.60481">
        <ele>1626</ele>
        <time>2021-12-08T11:07:08.999Z</time>
      </trkpt>
      <trkpt lat="42.9034" lon="-0.60484">
        <ele>1626</ele>
        <time>2021-12-08T11:07:13.999Z</time>
      </trkpt>
      <trkpt lat="42.90335" lon="-0.6049">
        <ele>1627</ele>
        <time>2021-12-08T11:07:32.999Z</time>
      </trkpt>
      <trkpt lat="42.90335" lon="-0.60491">
        <ele>1627</ele>
        <time>2021-12-08T11:07:37.999Z</time>
      </trkpt>
      <trkpt lat="42.90332" lon="-0.60495">
        <ele>1627</ele>
        <time>2021-12-08T11:07:42.999Z</time>
      </trkpt>
      <trkpt lat="42.90328" lon="-0.60496">
        <ele>1627</ele>
        <time>2021-12-08T11:07:47.999Z</time>
      </trkpt>
      <trkpt lat="42.90325" lon="-0.60497">
        <ele>1627</ele>
        <time>2021-12-08T11:07:51.999Z</time>
      </trkpt>
      <trkpt lat="42.90322" lon="-0.60496">
        <ele>1627</ele>
        <time>2021-12-08T11:07:56.999Z</time>
      </trkpt>
      <trkpt lat="42.90321" lon="-0.60498">
        <ele>1627</ele>
        <time>2021-12-08T11:08:01.999Z</time>
      </trkpt>
      <trkpt lat="42.90318" lon="-0.60499">
        <ele>1625</ele>
        <time>2021-12-08T11:08:06.999Z</time>
      </trkpt>
      <trkpt lat="42.90316" lon="-0.60501">
        <ele>1625</ele>
        <time>2021-12-08T11:08:11.999Z</time>
      </trkpt>
      <trkpt lat="42.90313" lon="-0.60503">
        <ele>1625</ele>
        <time>2021-12-08T11:08:16.999Z</time>
      </trkpt>
      <trkpt lat="42.90313" lon="-0.60507">
        <ele>1625</ele>
        <time>2021-12-08T11:08:36.999Z</time>
      </trkpt>
      <trkpt lat="42.9031" lon="-0.60509">
        <ele>1625</ele>
        <time>2021-12-08T11:08:41.999Z</time>
      </trkpt>
      <trkpt lat="42.90308" lon="-0.60509">
        <ele>1625</ele>
        <time>2021-12-08T11:08:46.999Z</time>
      </trkpt>
      <trkpt lat="42.90305" lon="-0.60509">
        <ele>1625</ele>
        <time>2021-12-08T11:08:51.999Z</time>
      </trkpt>
      <trkpt lat="42.90303" lon="-0.60511">
        <ele>1625</ele>
        <time>2021-12-08T11:08:56.999Z</time>
      </trkpt>
      <trkpt lat="42.90298" lon="-0.60523">
        <ele>1630</ele>
        <time>2021-12-08T11:09:40.999Z</time>
      </trkpt>
      <trkpt lat="42.90297" lon="-0.60525">
        <ele>1630</ele>
        <time>2021-12-08T11:09:45.999Z</time>
      </trkpt>
      <trkpt lat="42.90294" lon="-0.60527">
        <ele>1630</ele>
        <time>2021-12-08T11:09:50.999Z</time>
      </trkpt>
      <trkpt lat="42.90292" lon="-0.6053">
        <ele>1630</ele>
        <time>2021-12-08T11:09:55.999Z</time>
      </trkpt>
      <trkpt lat="42.90291" lon="-0.6053">
        <ele>1631</ele>
        <time>2021-12-08T11:10:00.999Z</time>
      </trkpt>
      <trkpt lat="42.90284" lon="-0.60537">
        <ele>1631</ele>
        <time>2021-12-08T11:16:14.999Z</time>
      </trkpt>
      <trkpt lat="42.90284" lon="-0.60537">
        <ele>1631</ele>
        <time>2021-12-08T11:16:19.999Z</time>
      </trkpt>
      <trkpt lat="42.90284" lon="-0.60538">
        <ele>1631</ele>
        <time>2021-12-08T11:16:24.999Z</time>
      </trkpt>
      <trkpt lat="42.90283" lon="-0.6054">
        <ele>1631</ele>
        <time>2021-12-08T11:16:29.999Z</time>
      </trkpt>
      <trkpt lat="42.90282" lon="-0.60542">
        <ele>1635</ele>
        <time>2021-12-08T11:16:34.999Z</time>
      </trkpt>
      <trkpt lat="42.90278" lon="-0.60545">
        <ele>1635</ele>
        <time>2021-12-08T11:16:39.999Z</time>
      </trkpt>
      <trkpt lat="42.90276" lon="-0.60548">
        <ele>1635</ele>
        <time>2021-12-08T11:16:44.999Z</time>
      </trkpt>
      <trkpt lat="42.90274" lon="-0.60551">
        <ele>1635</ele>
        <time>2021-12-08T11:16:49.999Z</time>
      </trkpt>
      <trkpt lat="42.90272" lon="-0.60554">
        <ele>1635</ele>
        <time>2021-12-08T11:16:54.999Z</time>
      </trkpt>
      <trkpt lat="42.90269" lon="-0.60556">
        <ele>1635</ele>
        <time>2021-12-08T11:16:59.999Z</time>
      </trkpt>
      <trkpt lat="42.90267" lon="-0.60559">
        <ele>1635</ele>
        <time>2021-12-08T11:17:04.999Z</time>
      </trkpt>
      <trkpt lat="42.90265" lon="-0.60562">
        <ele>1635</ele>
        <time>2021-12-08T11:17:09.999Z</time>
      </trkpt>
      <trkpt lat="42.90263" lon="-0.60565">
        <ele>1637</ele>
        <time>2021-12-08T11:17:14.999Z</time>
      </trkpt>
      <trkpt lat="42.9026" lon="-0.60568">
        <ele>1637</ele>
        <time>2021-12-08T11:17:19.999Z</time>
      </trkpt>
      <trkpt lat="42.90257" lon="-0.60571">
        <ele>1644</ele>
        <time>2021-12-08T11:17:24.999Z</time>
      </trkpt>
      <trkpt lat="42.90256" lon="-0.60573">
        <ele>1644</ele>
        <time>2021-12-08T11:17:29.999Z</time>
      </trkpt>
      <trkpt lat="42.90253" lon="-0.60576">
        <ele>1644</ele>
        <time>2021-12-08T11:17:34.999Z</time>
      </trkpt>
      <trkpt lat="42.9025" lon="-0.60579">
        <ele>1644</ele>
        <time>2021-12-08T11:17:39.999Z</time>
      </trkpt>
      <trkpt lat="42.90247" lon="-0.60582">
        <ele>1644</ele>
        <time>2021-12-08T11:17:44.999Z</time>
      </trkpt>
      <trkpt lat="42.90244" lon="-0.60584">
        <ele>1644</ele>
        <time>2021-12-08T11:17:49.999Z</time>
      </trkpt>
      <trkpt lat="42.90242" lon="-0.60586">
        <ele>1644</ele>
        <time>2021-12-08T11:17:54.999Z</time>
      </trkpt>
      <trkpt lat="42.9024" lon="-0.60587">
        <ele>1644</ele>
        <time>2021-12-08T11:17:59.999Z</time>
      </trkpt>
      <trkpt lat="42.90238" lon="-0.60589">
        <ele>1644</ele>
        <time>2021-12-08T11:18:04.999Z</time>
      </trkpt>
      <trkpt lat="42.90236" lon="-0.60591">
        <ele>1644</ele>
        <time>2021-12-08T11:18:08.999Z</time>
      </trkpt>
      <trkpt lat="42.90234" lon="-0.60593">
        <ele>1649</ele>
        <time>2021-12-08T11:18:13.999Z</time>
      </trkpt>
      <trkpt lat="42.90231" lon="-0.60593">
        <ele>1649</ele>
        <time>2021-12-08T11:18:18.999Z</time>
      </trkpt>
      <trkpt lat="42.90228" lon="-0.60593">
        <ele>1649</ele>
        <time>2021-12-08T11:18:23.999Z</time>
      </trkpt>
      <trkpt lat="42.90227" lon="-0.60593">
        <ele>1649</ele>
        <time>2021-12-08T11:18:27.999Z</time>
      </trkpt>
      <trkpt lat="42.90224" lon="-0.60593">
        <ele>1649</ele>
        <time>2021-12-08T11:18:32.999Z</time>
      </trkpt>
      <trkpt lat="42.90221" lon="-0.60593">
        <ele>1649</ele>
        <time>2021-12-08T11:18:37.999Z</time>
      </trkpt>
      <trkpt lat="42.90218" lon="-0.60594">
        <ele>1649</ele>
        <time>2021-12-08T11:18:41.999Z</time>
      </trkpt>
      <trkpt lat="42.90216" lon="-0.60593">
        <ele>1649</ele>
        <time>2021-12-08T11:18:46.999Z</time>
      </trkpt>
      <trkpt lat="42.90213" lon="-0.60591">
        <ele>1649</ele>
        <time>2021-12-08T11:18:51.999Z</time>
      </trkpt>
      <trkpt lat="42.9021" lon="-0.60591">
        <ele>1649</ele>
        <time>2021-12-08T11:18:55.999Z</time>
      </trkpt>
      <trkpt lat="42.90207" lon="-0.6059">
        <ele>1652</ele>
        <time>2021-12-08T11:19:00.999Z</time>
      </trkpt>
      <trkpt lat="42.90205" lon="-0.60589">
        <ele>1652</ele>
        <time>2021-12-08T11:19:05.999Z</time>
      </trkpt>
      <trkpt lat="42.90201" lon="-0.60588">
        <ele>1652</ele>
        <time>2021-12-08T11:19:10.999Z</time>
      </trkpt>
      <trkpt lat="42.90199" lon="-0.60587">
        <ele>1652</ele>
        <time>2021-12-08T11:19:15.999Z</time>
      </trkpt>
      <trkpt lat="42.90197" lon="-0.60585">
        <ele>1652</ele>
        <time>2021-12-08T11:19:20.999Z</time>
      </trkpt>
      <trkpt lat="42.90194" lon="-0.60584">
        <ele>1652</ele>
        <time>2021-12-08T11:19:25.999Z</time>
      </trkpt>
      <trkpt lat="42.90192" lon="-0.60584">
        <ele>1652</ele>
        <time>2021-12-08T11:19:30.999Z</time>
      </trkpt>
      <trkpt lat="42.9019" lon="-0.60586">
        <ele>1652</ele>
        <time>2021-12-08T11:19:35.999Z</time>
      </trkpt>
      <trkpt lat="42.90188" lon="-0.60588">
        <ele>1652</ele>
        <time>2021-12-08T11:19:40.999Z</time>
      </trkpt>
      <trkpt lat="42.90185" lon="-0.60589">
        <ele>1652</ele>
        <time>2021-12-08T11:19:45.999Z</time>
      </trkpt>
      <trkpt lat="42.90183" lon="-0.6059">
        <ele>1652</ele>
        <time>2021-12-08T11:19:49.999Z</time>
      </trkpt>
      <trkpt lat="42.9018" lon="-0.60591">
        <ele>1661</ele>
        <time>2021-12-08T11:19:53.999Z</time>
      </trkpt>
      <trkpt lat="42.90178" lon="-0.60593">
        <ele>1661</ele>
        <time>2021-12-08T11:19:58.999Z</time>
      </trkpt>
      <trkpt lat="42.90176" lon="-0.60595">
        <ele>1661</ele>
        <time>2021-12-08T11:20:03.999Z</time>
      </trkpt>
      <trkpt lat="42.90173" lon="-0.60594">
        <ele>1661</ele>
        <time>2021-12-08T11:20:08.999Z</time>
      </trkpt>
      <trkpt lat="42.90171" lon="-0.60591">
        <ele>1661</ele>
        <time>2021-12-08T11:20:12.999Z</time>
      </trkpt>
      <trkpt lat="42.90168" lon="-0.60588">
        <ele>1661</ele>
        <time>2021-12-08T11:20:17.999Z</time>
      </trkpt>
      <trkpt lat="42.90166" lon="-0.60591">
        <ele>1661</ele>
        <time>2021-12-08T11:20:22.999Z</time>
      </trkpt>
      <trkpt lat="42.90162" lon="-0.60597">
        <ele>1661</ele>
        <time>2021-12-08T11:21:00.999Z</time>
      </trkpt>
      <trkpt lat="42.9016" lon="-0.60596">
        <ele>1661</ele>
        <time>2021-12-08T11:21:04.999Z</time>
      </trkpt>
      <trkpt lat="42.90158" lon="-0.60597">
        <ele>1661</ele>
        <time>2021-12-08T11:21:09.999Z</time>
      </trkpt>
      <trkpt lat="42.90156" lon="-0.60595">
        <ele>1661</ele>
        <time>2021-12-08T11:21:13.999Z</time>
      </trkpt>
      <trkpt lat="42.90154" lon="-0.60594">
        <ele>1661</ele>
        <time>2021-12-08T11:21:18.999Z</time>
      </trkpt>
      <trkpt lat="42.90151" lon="-0.60592">
        <ele>1675</ele>
        <time>2021-12-08T11:21:56.999Z</time>
      </trkpt>
      <trkpt lat="42.90148" lon="-0.60592">
        <ele>1675</ele>
        <time>2021-12-08T11:22:01.999Z</time>
      </trkpt>
      <trkpt lat="42.90147" lon="-0.60591">
        <ele>1675</ele>
        <time>2021-12-08T11:22:06.999Z</time>
      </trkpt>
      <trkpt lat="42.90145" lon="-0.6059">
        <ele>1675</ele>
        <time>2021-12-08T11:22:11.999Z</time>
      </trkpt>
      <trkpt lat="42.90144" lon="-0.6059">
        <ele>1675</ele>
        <time>2021-12-08T11:22:15.999Z</time>
      </trkpt>
      <trkpt lat="42.90141" lon="-0.60593">
        <ele>1675</ele>
        <time>2021-12-08T11:22:49.999Z</time>
      </trkpt>
      <trkpt lat="42.90141" lon="-0.60597">
        <ele>1675</ele>
        <time>2021-12-08T11:22:54.999Z</time>
      </trkpt>
      <trkpt lat="42.90142" lon="-0.606">
        <ele>1692</ele>
        <time>2021-12-08T11:22:58.999Z</time>
      </trkpt>
      <trkpt lat="42.90144" lon="-0.60602">
        <ele>1692</ele>
        <time>2021-12-08T11:23:03.999Z</time>
      </trkpt>
      <trkpt lat="42.90145" lon="-0.60605">
        <ele>1692</ele>
        <time>2021-12-08T11:23:08.999Z</time>
      </trkpt>
      <trkpt lat="42.90147" lon="-0.60615">
        <ele>1692</ele>
        <time>2021-12-08T11:23:22.999Z</time>
      </trkpt>
      <trkpt lat="42.90144" lon="-0.60615">
        <ele>1692</ele>
        <time>2021-12-08T11:23:27.999Z</time>
      </trkpt>
      <trkpt lat="42.90142" lon="-0.60616">
        <ele>1692</ele>
        <time>2021-12-08T11:23:32.999Z</time>
      </trkpt>
      <trkpt lat="42.9014" lon="-0.60615">
        <ele>1692</ele>
        <time>2021-12-08T11:23:37.999Z</time>
      </trkpt>
      <trkpt lat="42.90138" lon="-0.60614">
        <ele>1692</ele>
        <time>2021-12-08T11:23:42.999Z</time>
      </trkpt>
      <trkpt lat="42.90135" lon="-0.60608">
        <ele>1692</ele>
        <time>2021-12-08T11:23:52.999Z</time>
      </trkpt>
      <trkpt lat="42.90132" lon="-0.60607">
        <ele>1692</ele>
        <time>2021-12-08T11:23:57.999Z</time>
      </trkpt>
      <trkpt lat="42.90131" lon="-0.60608">
        <ele>1692</ele>
        <time>2021-12-08T11:24:02.999Z</time>
      </trkpt>
      <trkpt lat="42.9013" lon="-0.60608">
        <ele>1692</ele>
        <time>2021-12-08T11:24:07.999Z</time>
      </trkpt>
      <trkpt lat="42.90127" lon="-0.60606">
        <ele>1692</ele>
        <time>2021-12-08T11:24:12.999Z</time>
      </trkpt>
      <trkpt lat="42.90124" lon="-0.60606">
        <ele>1691</ele>
        <time>2021-12-08T11:24:16.999Z</time>
      </trkpt>
      <trkpt lat="42.9012" lon="-0.60605">
        <ele>1691</ele>
        <time>2021-12-08T11:24:21.999Z</time>
      </trkpt>
      <trkpt lat="42.90118" lon="-0.60605">
        <ele>1691</ele>
        <time>2021-12-08T11:24:26.999Z</time>
      </trkpt>
      <trkpt lat="42.90115" lon="-0.60605">
        <ele>1691</ele>
        <time>2021-12-08T11:24:31.999Z</time>
      </trkpt>
      <trkpt lat="42.90112" lon="-0.60608">
        <ele>1691</ele>
        <time>2021-12-08T11:24:36.999Z</time>
      </trkpt>
      <trkpt lat="42.90105" lon="-0.60611">
        <ele>1691</ele>
        <time>2021-12-08T11:25:06.999Z</time>
      </trkpt>
      <trkpt lat="42.90105" lon="-0.60612">
        <ele>1691</ele>
        <time>2021-12-08T11:25:11.999Z</time>
      </trkpt>
      <trkpt lat="42.90105" lon="-0.60615">
        <ele>1691</ele>
        <time>2021-12-08T11:25:15.999Z</time>
      </trkpt>
      <trkpt lat="42.90107" lon="-0.60619">
        <ele>1691</ele>
        <time>2021-12-08T11:25:20.999Z</time>
      </trkpt>
      <trkpt lat="42.90109" lon="-0.60621">
        <ele>1691</ele>
        <time>2021-12-08T11:25:24.999Z</time>
      </trkpt>
      <trkpt lat="42.90116" lon="-0.60628">
        <ele>1698</ele>
        <time>2021-12-08T11:25:48.999Z</time>
      </trkpt>
      <trkpt lat="42.90118" lon="-0.60631">
        <ele>1698</ele>
        <time>2021-12-08T11:25:53.999Z</time>
      </trkpt>
      <trkpt lat="42.90118" lon="-0.60631">
        <ele>1698</ele>
        <time>2021-12-08T11:25:58.999Z</time>
      </trkpt>
      <trkpt lat="42.90118" lon="-0.60631">
        <ele>1698</ele>
        <time>2021-12-08T11:26:03.999Z</time>
      </trkpt>
      <trkpt lat="42.90118" lon="-0.60633">
        <ele>1698</ele>
        <time>2021-12-08T11:26:08.999Z</time>
      </trkpt>
      <trkpt lat="42.90119" lon="-0.60641">
        <ele>1698</ele>
        <time>2021-12-08T11:26:32.999Z</time>
      </trkpt>
      <trkpt lat="42.90116" lon="-0.6064">
        <ele>1698</ele>
        <time>2021-12-08T11:26:37.999Z</time>
      </trkpt>
      <trkpt lat="42.90116" lon="-0.60643">
        <ele>1698</ele>
        <time>2021-12-08T11:26:42.999Z</time>
      </trkpt>
      <trkpt lat="42.90113" lon="-0.60645">
        <ele>1698</ele>
        <time>2021-12-08T11:26:47.999Z</time>
      </trkpt>
      <trkpt lat="42.90111" lon="-0.60643">
        <ele>1698</ele>
        <time>2021-12-08T11:26:51.999Z</time>
      </trkpt>
      <trkpt lat="42.90106" lon="-0.60634">
        <ele>1698</ele>
        <time>2021-12-08T11:27:10.999Z</time>
      </trkpt>
      <trkpt lat="42.90106" lon="-0.60634">
        <ele>1698</ele>
        <time>2021-12-08T11:27:15.999Z</time>
      </trkpt>
      <trkpt lat="42.90104" lon="-0.60634">
        <ele>1698</ele>
        <time>2021-12-08T11:27:20.999Z</time>
      </trkpt>
      <trkpt lat="42.90101" lon="-0.60633">
        <ele>1698</ele>
        <time>2021-12-08T11:27:25.999Z</time>
      </trkpt>
      <trkpt lat="42.90098" lon="-0.60633">
        <ele>1698</ele>
        <time>2021-12-08T11:27:30.999Z</time>
      </trkpt>
      <trkpt lat="42.90093" lon="-0.60642">
        <ele>1699</ele>
        <time>2021-12-08T11:28:33.999Z</time>
      </trkpt>
      <trkpt lat="42.90096" lon="-0.60643">
        <ele>1699</ele>
        <time>2021-12-08T11:28:38.999Z</time>
      </trkpt>
      <trkpt lat="42.90097" lon="-0.60646">
        <ele>1699</ele>
        <time>2021-12-08T11:28:43.999Z</time>
      </trkpt>
      <trkpt lat="42.90097" lon="-0.60647">
        <ele>1699</ele>
        <time>2021-12-08T11:28:48.999Z</time>
      </trkpt>
      <trkpt lat="42.90097" lon="-0.60647">
        <ele>1698</ele>
        <time>2021-12-08T11:28:53.999Z</time>
      </trkpt>
      <trkpt lat="42.90099" lon="-0.60652">
        <ele>1698</ele>
        <time>2021-12-08T11:29:30.999Z</time>
      </trkpt>
      <trkpt lat="42.90095" lon="-0.60654">
        <ele>1709</ele>
        <time>2021-12-08T11:29:35.999Z</time>
      </trkpt>
      <trkpt lat="42.90091" lon="-0.60653">
        <ele>1709</ele>
        <time>2021-12-08T11:29:40.999Z</time>
      </trkpt>
      <trkpt lat="42.90088" lon="-0.60653">
        <ele>1709</ele>
        <time>2021-12-08T11:29:45.999Z</time>
      </trkpt>
      <trkpt lat="42.90085" lon="-0.60653">
        <ele>1709</ele>
        <time>2021-12-08T11:29:49.999Z</time>
      </trkpt>
      <trkpt lat="42.90075" lon="-0.60653">
        <ele>1699</ele>
        <time>2021-12-08T11:30:19.999Z</time>
      </trkpt>
      <trkpt lat="42.90075" lon="-0.60653">
        <ele>1699</ele>
        <time>2021-12-08T11:30:23.999Z</time>
      </trkpt>
      <trkpt lat="42.90072" lon="-0.60653">
        <ele>1709</ele>
        <time>2021-12-08T11:30:28.999Z</time>
      </trkpt>
      <trkpt lat="42.9007" lon="-0.60654">
        <ele>1709</ele>
        <time>2021-12-08T11:30:32.999Z</time>
      </trkpt>
      <trkpt lat="42.90068" lon="-0.60654">
        <ele>1724</ele>
        <time>2021-12-08T11:30:37.999Z</time>
      </trkpt>
      <trkpt lat="42.90061" lon="-0.60655">
        <ele>1724</ele>
        <time>2021-12-08T11:31:10.999Z</time>
      </trkpt>
      <trkpt lat="42.90061" lon="-0.60655">
        <ele>1724</ele>
        <time>2021-12-08T11:31:15.999Z</time>
      </trkpt>
      <trkpt lat="42.90057" lon="-0.60656">
        <ele>1724</ele>
        <time>2021-12-08T11:31:20.999Z</time>
      </trkpt>
      <trkpt lat="42.90055" lon="-0.60656">
        <ele>1724</ele>
        <time>2021-12-08T11:31:25.999Z</time>
      </trkpt>
      <trkpt lat="42.90052" lon="-0.60656">
        <ele>1724</ele>
        <time>2021-12-08T11:31:30.999Z</time>
      </trkpt>
      <trkpt lat="42.90049" lon="-0.60656">
        <ele>1724</ele>
        <time>2021-12-08T11:31:35.999Z</time>
      </trkpt>
      <trkpt lat="42.90046" lon="-0.60654">
        <ele>1724</ele>
        <time>2021-12-08T11:31:40.999Z</time>
      </trkpt>
      <trkpt lat="42.90043" lon="-0.60653">
        <ele>1724</ele>
        <time>2021-12-08T11:31:44.999Z</time>
      </trkpt>
      <trkpt lat="42.9004" lon="-0.60653">
        <ele>1726</ele>
        <time>2021-12-08T11:31:49.999Z</time>
      </trkpt>
      <trkpt lat="42.90037" lon="-0.60654">
        <ele>1726</ele>
        <time>2021-12-08T11:32:04.999Z</time>
      </trkpt>
      <trkpt lat="42.90038" lon="-0.60656">
        <ele>1726</ele>
        <time>2021-12-08T11:32:09.999Z</time>
      </trkpt>
      <trkpt lat="42.90039" lon="-0.6066">
        <ele>1726</ele>
        <time>2021-12-08T11:32:13.999Z</time>
      </trkpt>
      <trkpt lat="42.90041" lon="-0.60663">
        <ele>1726</ele>
        <time>2021-12-08T11:32:18.999Z</time>
      </trkpt>
      <trkpt lat="42.90042" lon="-0.60668">
        <ele>1724</ele>
        <time>2021-12-08T11:32:23.999Z</time>
      </trkpt>
      <trkpt lat="42.90043" lon="-0.60673">
        <ele>1724</ele>
        <time>2021-12-08T11:32:58.999Z</time>
      </trkpt>
      <trkpt lat="42.90041" lon="-0.60675">
        <ele>1726</ele>
        <time>2021-12-08T11:33:03.999Z</time>
      </trkpt>
      <trkpt lat="42.90038" lon="-0.60675">
        <ele>1726</ele>
        <time>2021-12-08T11:33:08.999Z</time>
      </trkpt>
      <trkpt lat="42.90035" lon="-0.60674">
        <ele>1726</ele>
        <time>2021-12-08T11:33:12.999Z</time>
      </trkpt>
      <trkpt lat="42.90031" lon="-0.60675">
        <ele>1726</ele>
        <time>2021-12-08T11:33:17.999Z</time>
      </trkpt>
      <trkpt lat="42.90035" lon="-0.60686">
        <ele>1730</ele>
        <time>2021-12-08T11:33:42.999Z</time>
      </trkpt>
      <trkpt lat="42.90035" lon="-0.60686">
        <ele>1730</ele>
        <time>2021-12-08T11:33:47.999Z</time>
      </trkpt>
      <trkpt lat="42.90036" lon="-0.6069">
        <ele>1730</ele>
        <time>2021-12-08T11:33:52.999Z</time>
      </trkpt>
      <trkpt lat="42.90038" lon="-0.60691">
        <ele>1730</ele>
        <time>2021-12-08T11:33:56.999Z</time>
      </trkpt>
      <trkpt lat="42.90036" lon="-0.60694">
        <ele>1730</ele>
        <time>2021-12-08T11:34:01.999Z</time>
      </trkpt>
      <trkpt lat="42.90034" lon="-0.60697">
        <ele>1730</ele>
        <time>2021-12-08T11:35:33.999Z</time>
      </trkpt>
      <trkpt lat="42.90034" lon="-0.60698">
        <ele>1730</ele>
        <time>2021-12-08T11:35:38.999Z</time>
      </trkpt>
      <trkpt lat="42.90032" lon="-0.607">
        <ele>1730</ele>
        <time>2021-12-08T11:35:43.999Z</time>
      </trkpt>
      <trkpt lat="42.90029" lon="-0.607">
        <ele>1730</ele>
        <time>2021-12-08T11:35:48.999Z</time>
      </trkpt>
      <trkpt lat="42.90027" lon="-0.60701">
        <ele>1730</ele>
        <time>2021-12-08T11:35:53.999Z</time>
      </trkpt>
      <trkpt lat="42.90025" lon="-0.60699">
        <ele>1730</ele>
        <time>2021-12-08T11:35:57.999Z</time>
      </trkpt>
      <trkpt lat="42.90024" lon="-0.60698">
        <ele>1730</ele>
        <time>2021-12-08T11:36:02.999Z</time>
      </trkpt>
      <trkpt lat="42.90021" lon="-0.60698">
        <ele>1730</ele>
        <time>2021-12-08T11:36:07.999Z</time>
      </trkpt>
      <trkpt lat="42.90019" lon="-0.60699">
        <ele>1730</ele>
        <time>2021-12-08T11:36:12.999Z</time>
      </trkpt>
      <trkpt lat="42.90016" lon="-0.60699">
        <ele>1730</ele>
        <time>2021-12-08T11:36:17.999Z</time>
      </trkpt>
      <trkpt lat="42.90011" lon="-0.60698">
        <ele>1741</ele>
        <time>2021-12-08T11:36:31.999Z</time>
      </trkpt>
      <trkpt lat="42.90011" lon="-0.60699">
        <ele>1741</ele>
        <time>2021-12-08T11:36:36.999Z</time>
      </trkpt>
      <trkpt lat="42.90009" lon="-0.60698">
        <ele>1741</ele>
        <time>2021-12-08T11:36:41.999Z</time>
      </trkpt>
      <trkpt lat="42.90006" lon="-0.60697">
        <ele>1741</ele>
        <time>2021-12-08T11:36:46.999Z</time>
      </trkpt>
      <trkpt lat="42.90003" lon="-0.60696">
        <ele>1741</ele>
        <time>2021-12-08T11:36:51.999Z</time>
      </trkpt>
      <trkpt lat="42.89993" lon="-0.60693">
        <ele>1741</ele>
        <time>2021-12-08T11:37:16.999Z</time>
      </trkpt>
      <trkpt lat="42.89992" lon="-0.60693">
        <ele>1741</ele>
        <time>2021-12-08T11:37:21.999Z</time>
      </trkpt>
      <trkpt lat="42.8999" lon="-0.60693">
        <ele>1741</ele>
        <time>2021-12-08T11:37:26.999Z</time>
      </trkpt>
      <trkpt lat="42.89989" lon="-0.60693">
        <ele>1741</ele>
        <time>2021-12-08T11:37:30.999Z</time>
      </trkpt>
      <trkpt lat="42.89986" lon="-0.60692">
        <ele>1741</ele>
        <time>2021-12-08T11:37:35.999Z</time>
      </trkpt>
      <trkpt lat="42.89984" lon="-0.60695">
        <ele>1752</ele>
        <time>2021-12-08T11:37:45.999Z</time>
      </trkpt>
      <trkpt lat="42.89987" lon="-0.60699">
        <ele>1741</ele>
        <time>2021-12-08T11:37:50.999Z</time>
      </trkpt>
      <trkpt lat="42.8999" lon="-0.60703">
        <ele>1741</ele>
        <time>2021-12-08T11:37:55.999Z</time>
      </trkpt>
      <trkpt lat="42.8999" lon="-0.60703">
        <ele>1741</ele>
        <time>2021-12-08T11:37:59.999Z</time>
      </trkpt>
      <trkpt lat="42.89991" lon="-0.60703">
        <ele>1741</ele>
        <time>2021-12-08T11:38:04.999Z</time>
      </trkpt>
      <trkpt lat="42.8999" lon="-0.60708">
        <ele>1741</ele>
        <time>2021-12-08T11:39:46.999Z</time>
      </trkpt>
      <trkpt lat="42.89987" lon="-0.60707">
        <ele>1741</ele>
        <time>2021-12-08T11:39:50.999Z</time>
      </trkpt>
      <trkpt lat="42.89984" lon="-0.60705">
        <ele>1752</ele>
        <time>2021-12-08T11:39:55.999Z</time>
      </trkpt>
      <trkpt lat="42.89981" lon="-0.60705">
        <ele>1752</ele>
        <time>2021-12-08T11:40:00.999Z</time>
      </trkpt>
      <trkpt lat="42.89979" lon="-0.60708">
        <ele>1752</ele>
        <time>2021-12-08T11:40:05.999Z</time>
      </trkpt>
      <trkpt lat="42.89977" lon="-0.60707">
        <ele>1752</ele>
        <time>2021-12-08T11:40:09.999Z</time>
      </trkpt>
      <trkpt lat="42.89973" lon="-0.60706">
        <ele>1752</ele>
        <time>2021-12-08T11:40:14.999Z</time>
      </trkpt>
      <trkpt lat="42.8997" lon="-0.60704">
        <ele>1752</ele>
        <time>2021-12-08T11:40:19.999Z</time>
      </trkpt>
      <trkpt lat="42.89968" lon="-0.60703">
        <ele>1752</ele>
        <time>2021-12-08T11:40:23.999Z</time>
      </trkpt>
      <trkpt lat="42.89968" lon="-0.60702">
        <ele>1752</ele>
        <time>2021-12-08T11:40:28.999Z</time>
      </trkpt>
      <trkpt lat="42.89967" lon="-0.60702">
        <ele>1752</ele>
        <time>2021-12-08T11:40:38.999Z</time>
      </trkpt>
      <trkpt lat="42.89964" lon="-0.60701">
        <ele>1752</ele>
        <time>2021-12-08T11:40:43.999Z</time>
      </trkpt>
      <trkpt lat="42.89962" lon="-0.607">
        <ele>1752</ele>
        <time>2021-12-08T11:40:47.999Z</time>
      </trkpt>
      <trkpt lat="42.8996" lon="-0.60699">
        <ele>1752</ele>
        <time>2021-12-08T11:40:51.999Z</time>
      </trkpt>
      <trkpt lat="42.89958" lon="-0.60698">
        <ele>1765</ele>
        <time>2021-12-08T11:40:56.999Z</time>
      </trkpt>
      <trkpt lat="42.89953" lon="-0.60697">
        <ele>1765</ele>
        <time>2021-12-08T11:41:31.999Z</time>
      </trkpt>
      <trkpt lat="42.89953" lon="-0.60695">
        <ele>1765</ele>
        <time>2021-12-08T11:41:36.999Z</time>
      </trkpt>
      <trkpt lat="42.89952" lon="-0.60693">
        <ele>1765</ele>
        <time>2021-12-08T11:41:41.999Z</time>
      </trkpt>
      <trkpt lat="42.8995" lon="-0.60691">
        <ele>1765</ele>
        <time>2021-12-08T11:41:45.999Z</time>
      </trkpt>
      <trkpt lat="42.89948" lon="-0.6069">
        <ele>1765</ele>
        <time>2021-12-08T11:41:50.999Z</time>
      </trkpt>
      <trkpt lat="42.89948" lon="-0.60689">
        <ele>1765</ele>
        <time>2021-12-08T11:41:55.999Z</time>
      </trkpt>
      <trkpt lat="42.89947" lon="-0.60688">
        <ele>1765</ele>
        <time>2021-12-08T11:42:00.999Z</time>
      </trkpt>
      <trkpt lat="42.89944" lon="-0.60687">
        <ele>1765</ele>
        <time>2021-12-08T11:42:05.999Z</time>
      </trkpt>
      <trkpt lat="42.89942" lon="-0.60686">
        <ele>1765</ele>
        <time>2021-12-08T11:42:10.999Z</time>
      </trkpt>
      <trkpt lat="42.89939" lon="-0.60684">
        <ele>1765</ele>
        <time>2021-12-08T11:42:15.999Z</time>
      </trkpt>
      <trkpt lat="42.89935" lon="-0.60688">
        <ele>1765</ele>
        <time>2021-12-08T11:43:03.999Z</time>
      </trkpt>
      <trkpt lat="42.89937" lon="-0.60691">
        <ele>1765</ele>
        <time>2021-12-08T11:43:08.999Z</time>
      </trkpt>
      <trkpt lat="42.89936" lon="-0.60695">
        <ele>1765</ele>
        <time>2021-12-08T11:43:13.999Z</time>
      </trkpt>
      <trkpt lat="42.89936" lon="-0.60697">
        <ele>1765</ele>
        <time>2021-12-08T11:43:18.999Z</time>
      </trkpt>
      <trkpt lat="42.89938" lon="-0.607">
        <ele>1765</ele>
        <time>2021-12-08T11:43:23.999Z</time>
      </trkpt>
      <trkpt lat="42.8994" lon="-0.60703">
        <ele>1765</ele>
        <time>2021-12-08T11:43:28.999Z</time>
      </trkpt>
      <trkpt lat="42.89941" lon="-0.60706">
        <ele>1765</ele>
        <time>2021-12-08T11:43:33.999Z</time>
      </trkpt>
      <trkpt lat="42.89942" lon="-0.60709">
        <ele>1771</ele>
        <time>2021-12-08T11:43:38.999Z</time>
      </trkpt>
      <trkpt lat="42.89943" lon="-0.60711">
        <ele>1771</ele>
        <time>2021-12-08T11:43:43.999Z</time>
      </trkpt>
      <trkpt lat="42.89946" lon="-0.60714">
        <ele>1771</ele>
        <time>2021-12-08T11:43:48.999Z</time>
      </trkpt>
      <trkpt lat="42.89948" lon="-0.60717">
        <ele>1771</ele>
        <time>2021-12-08T11:43:53.999Z</time>
      </trkpt>
      <trkpt lat="42.89949" lon="-0.60719">
        <ele>1771</ele>
        <time>2021-12-08T11:43:57.999Z</time>
      </trkpt>
      <trkpt lat="42.89952" lon="-0.60722">
        <ele>1771</ele>
        <time>2021-12-08T11:44:02.999Z</time>
      </trkpt>
      <trkpt lat="42.89954" lon="-0.60722">
        <ele>1771</ele>
        <time>2021-12-08T11:44:06.999Z</time>
      </trkpt>
      <trkpt lat="42.89955" lon="-0.60725">
        <ele>1771</ele>
        <time>2021-12-08T11:44:11.999Z</time>
      </trkpt>
      <trkpt lat="42.89956" lon="-0.60728">
        <ele>1771</ele>
        <time>2021-12-08T11:44:16.999Z</time>
      </trkpt>
      <trkpt lat="42.89957" lon="-0.60732">
        <ele>1771</ele>
        <time>2021-12-08T11:44:21.999Z</time>
      </trkpt>
      <trkpt lat="42.89958" lon="-0.60736">
        <ele>1771</ele>
        <time>2021-12-08T11:44:26.999Z</time>
      </trkpt>
      <trkpt lat="42.89959" lon="-0.60739">
        <ele>1757</ele>
        <time>2021-12-08T11:44:30.999Z</time>
      </trkpt>
      <trkpt lat="42.89959" lon="-0.60742">
        <ele>1757</ele>
        <time>2021-12-08T11:44:35.999Z</time>
      </trkpt>
      <trkpt lat="42.89959" lon="-0.60745">
        <ele>1757</ele>
        <time>2021-12-08T11:44:49.999Z</time>
      </trkpt>
      <trkpt lat="42.89956" lon="-0.60746">
        <ele>1774</ele>
        <time>2021-12-08T11:44:54.999Z</time>
      </trkpt>
      <trkpt lat="42.89954" lon="-0.60742">
        <ele>1774</ele>
        <time>2021-12-08T11:44:59.999Z</time>
      </trkpt>
      <trkpt lat="42.89952" lon="-0.60739">
        <ele>1774</ele>
        <time>2021-12-08T11:45:04.999Z</time>
      </trkpt>
      <trkpt lat="42.89949" lon="-0.60739">
        <ele>1774</ele>
        <time>2021-12-08T11:45:09.999Z</time>
      </trkpt>
      <trkpt lat="42.8994" lon="-0.60751">
        <ele>1774</ele>
        <time>2021-12-08T11:46:12.999Z</time>
      </trkpt>
      <trkpt lat="42.8994" lon="-0.60751">
        <ele>1774</ele>
        <time>2021-12-08T11:46:17.999Z</time>
      </trkpt>
      <trkpt lat="42.8994" lon="-0.60751">
        <ele>1774</ele>
        <time>2021-12-08T11:46:22.999Z</time>
      </trkpt>
      <trkpt lat="42.8994" lon="-0.60752">
        <ele>1774</ele>
        <time>2021-12-08T11:46:27.999Z</time>
      </trkpt>
      <trkpt lat="42.8994" lon="-0.60752">
        <ele>1774</ele>
        <time>2021-12-08T11:46:32.999Z</time>
      </trkpt>
      <trkpt lat="42.89939" lon="-0.60754">
        <ele>1774</ele>
        <time>2021-12-08T11:46:36.999Z</time>
      </trkpt>
      <trkpt lat="42.89937" lon="-0.60757">
        <ele>1774</ele>
        <time>2021-12-08T11:46:41.999Z</time>
      </trkpt>
      <trkpt lat="42.89935" lon="-0.60759">
        <ele>1774</ele>
        <time>2021-12-08T11:46:46.999Z</time>
      </trkpt>
      <trkpt lat="42.89933" lon="-0.60758">
        <ele>1774</ele>
        <time>2021-12-08T11:46:50.999Z</time>
      </trkpt>
      <trkpt lat="42.8993" lon="-0.60759">
        <ele>1779</ele>
        <time>2021-12-08T11:46:55.999Z</time>
      </trkpt>
      <trkpt lat="42.8993" lon="-0.60764">
        <ele>1780</ele>
        <time>2021-12-08T11:47:14.999Z</time>
      </trkpt>
      <trkpt lat="42.89928" lon="-0.60766">
        <ele>1780</ele>
        <time>2021-12-08T11:47:19.999Z</time>
      </trkpt>
      <trkpt lat="42.89926" lon="-0.60766">
        <ele>1780</ele>
        <time>2021-12-08T11:47:23.999Z</time>
      </trkpt>
      <trkpt lat="42.89923" lon="-0.60767">
        <ele>1780</ele>
        <time>2021-12-08T11:47:28.999Z</time>
      </trkpt>
      <trkpt lat="42.89921" lon="-0.60769">
        <ele>1780</ele>
        <time>2021-12-08T11:47:33.999Z</time>
      </trkpt>
      <trkpt lat="42.89915" lon="-0.60774">
        <ele>1780</ele>
        <time>2021-12-08T11:48:06.999Z</time>
      </trkpt>
      <trkpt lat="42.89914" lon="-0.60775">
        <ele>1780</ele>
        <time>2021-12-08T11:48:11.999Z</time>
      </trkpt>
      <trkpt lat="42.89912" lon="-0.60776">
        <ele>1780</ele>
        <time>2021-12-08T11:48:16.999Z</time>
      </trkpt>
      <trkpt lat="42.8991" lon="-0.60777">
        <ele>1780</ele>
        <time>2021-12-08T11:48:21.999Z</time>
      </trkpt>
      <trkpt lat="42.89908" lon="-0.60779">
        <ele>1780</ele>
        <time>2021-12-08T11:48:26.999Z</time>
      </trkpt>
      <trkpt lat="42.89902" lon="-0.60781">
        <ele>1787</ele>
        <time>2021-12-08T11:49:48.999Z</time>
      </trkpt>
      <trkpt lat="42.89899" lon="-0.60781">
        <ele>1787</ele>
        <time>2021-12-08T11:49:53.999Z</time>
      </trkpt>
      <trkpt lat="42.89897" lon="-0.60781">
        <ele>1787</ele>
        <time>2021-12-08T11:49:57.999Z</time>
      </trkpt>
      <trkpt lat="42.89894" lon="-0.6078">
        <ele>1787</ele>
        <time>2021-12-08T11:50:02.999Z</time>
      </trkpt>
      <trkpt lat="42.89893" lon="-0.60783">
        <ele>1787</ele>
        <time>2021-12-08T11:50:07.999Z</time>
      </trkpt>
      <trkpt lat="42.89897" lon="-0.60783">
        <ele>1787</ele>
        <time>2021-12-08T11:51:03.999Z</time>
      </trkpt>
      <trkpt lat="42.89897" lon="-0.60783">
        <ele>1787</ele>
        <time>2021-12-08T11:51:08.999Z</time>
      </trkpt>
      <trkpt lat="42.89899" lon="-0.60781">
        <ele>1787</ele>
        <time>2021-12-08T11:51:12.999Z</time>
      </trkpt>
      <trkpt lat="42.899" lon="-0.60778">
        <ele>1787</ele>
        <time>2021-12-08T11:51:17.999Z</time>
      </trkpt>
      <trkpt lat="42.89902" lon="-0.60775">
        <ele>1787</ele>
        <time>2021-12-08T11:51:22.999Z</time>
      </trkpt>
      <trkpt lat="42.89912" lon="-0.60767">
        <ele>1780</ele>
        <time>2021-12-08T11:52:41.999Z</time>
      </trkpt>
      <trkpt lat="42.89912" lon="-0.60767">
        <ele>1780</ele>
        <time>2021-12-08T11:52:46.999Z</time>
      </trkpt>
      <trkpt lat="42.89915" lon="-0.60765">
        <ele>1780</ele>
        <time>2021-12-08T11:52:51.999Z</time>
      </trkpt>
      <trkpt lat="42.89922" lon="-0.60761">
        <ele>1779</ele>
        <time>2021-12-08T11:52:56.999Z</time>
      </trkpt>
      <trkpt lat="42.89923" lon="-0.60759">
        <ele>1779</ele>
        <time>2021-12-08T11:53:01.999Z</time>
      </trkpt>
      <trkpt lat="42.8993" lon="-0.60752">
        <ele>1779</ele>
        <time>2021-12-08T12:07:12.999Z</time>
      </trkpt>
      <trkpt lat="42.8993" lon="-0.60749">
        <ele>1779</ele>
        <time>2021-12-08T12:07:17.999Z</time>
      </trkpt>
      <trkpt lat="42.89934" lon="-0.60747">
        <ele>1774</ele>
        <time>2021-12-08T12:07:22.999Z</time>
      </trkpt>
      <trkpt lat="42.89936" lon="-0.60747">
        <ele>1774</ele>
        <time>2021-12-08T12:07:27.999Z</time>
      </trkpt>
      <trkpt lat="42.89936" lon="-0.60746">
        <ele>1774</ele>
        <time>2021-12-08T12:07:32.999Z</time>
      </trkpt>
      <trkpt lat="42.89937" lon="-0.60747">
        <ele>1774</ele>
        <time>2021-12-08T12:10:53.999Z</time>
      </trkpt>
      <trkpt lat="42.89937" lon="-0.60747">
        <ele>1774</ele>
        <time>2021-12-08T12:10:58.999Z</time>
      </trkpt>
      <trkpt lat="42.89939" lon="-0.60749">
        <ele>1774</ele>
        <time>2021-12-08T12:11:03.999Z</time>
      </trkpt>
      <trkpt lat="42.89944" lon="-0.60753">
        <ele>1774</ele>
        <time>2021-12-08T12:11:07.999Z</time>
      </trkpt>
      <trkpt lat="42.89945" lon="-0.60743">
        <ele>1774</ele>
        <time>2021-12-08T12:11:12.999Z</time>
      </trkpt>
      <trkpt lat="42.89948" lon="-0.60741">
        <ele>1774</ele>
        <time>2021-12-08T12:11:17.999Z</time>
      </trkpt>
      <trkpt lat="42.89949" lon="-0.60732">
        <ele>1771</ele>
        <time>2021-12-08T12:11:22.999Z</time>
      </trkpt>
      <trkpt lat="42.89955" lon="-0.60727">
        <ele>1771</ele>
        <time>2021-12-08T12:11:27.999Z</time>
      </trkpt>
      <trkpt lat="42.89952" lon="-0.60715">
        <ele>1771</ele>
        <time>2021-12-08T12:11:32.999Z</time>
      </trkpt>
      <trkpt lat="42.89963" lon="-0.60717">
        <ele>1756</ele>
        <time>2021-12-08T12:11:37.999Z</time>
      </trkpt>
      <trkpt lat="42.89962" lon="-0.60706">
        <ele>1752</ele>
        <time>2021-12-08T12:11:41.999Z</time>
      </trkpt>
      <trkpt lat="42.89966" lon="-0.60706">
        <ele>1752</ele>
        <time>2021-12-08T12:11:46.999Z</time>
      </trkpt>
      <trkpt lat="42.89971" lon="-0.60707">
        <ele>1752</ele>
        <time>2021-12-08T12:11:50.999Z</time>
      </trkpt>
      <trkpt lat="42.89971" lon="-0.60699">
        <ele>1752</ele>
        <time>2021-12-08T12:11:55.999Z</time>
      </trkpt>
      <trkpt lat="42.89976" lon="-0.60698">
        <ele>1752</ele>
        <time>2021-12-08T12:12:00.999Z</time>
      </trkpt>
      <trkpt lat="42.89983" lon="-0.60701">
        <ele>1752</ele>
        <time>2021-12-08T12:12:05.999Z</time>
      </trkpt>
      <trkpt lat="42.89992" lon="-0.60703">
        <ele>1741</ele>
        <time>2021-12-08T12:12:10.999Z</time>
      </trkpt>
      <trkpt lat="42.89997" lon="-0.60705">
        <ele>1741</ele>
        <time>2021-12-08T12:12:15.999Z</time>
      </trkpt>
      <trkpt lat="42.9" lon="-0.60706">
        <ele>1741</ele>
        <time>2021-12-08T12:12:19.999Z</time>
      </trkpt>
      <trkpt lat="42.90006" lon="-0.60703">
        <ele>1741</ele>
        <time>2021-12-08T12:12:24.999Z</time>
      </trkpt>
      <trkpt lat="42.90011" lon="-0.607">
        <ele>1741</ele>
        <time>2021-12-08T12:12:29.999Z</time>
      </trkpt>
      <trkpt lat="42.90015" lon="-0.60701">
        <ele>1730</ele>
        <time>2021-12-08T12:12:54.999Z</time>
      </trkpt>
      <trkpt lat="42.90015" lon="-0.60701">
        <ele>1730</ele>
        <time>2021-12-08T12:12:59.999Z</time>
      </trkpt>
      <trkpt lat="42.90015" lon="-0.60701">
        <ele>1730</ele>
        <time>2021-12-08T12:13:04.999Z</time>
      </trkpt>
      <trkpt lat="42.90018" lon="-0.607">
        <ele>1730</ele>
        <time>2021-12-08T12:13:09.999Z</time>
      </trkpt>
      <trkpt lat="42.90025" lon="-0.60692">
        <ele>1730</ele>
        <time>2021-12-08T12:13:14.999Z</time>
      </trkpt>
      <trkpt lat="42.9003" lon="-0.60685">
        <ele>1730</ele>
        <time>2021-12-08T12:13:19.999Z</time>
      </trkpt>
      <trkpt lat="42.90035" lon="-0.60681">
        <ele>1730</ele>
        <time>2021-12-08T12:13:24.999Z</time>
      </trkpt>
      <trkpt lat="42.9004" lon="-0.60673">
        <ele>1726</ele>
        <time>2021-12-08T12:13:29.999Z</time>
      </trkpt>
      <trkpt lat="42.90037" lon="-0.60667">
        <ele>1726</ele>
        <time>2021-12-08T12:13:33.999Z</time>
      </trkpt>
      <trkpt lat="42.90052" lon="-0.60641">
        <ele>1714</ele>
        <time>2021-12-08T12:13:51.999Z</time>
      </trkpt>
      <trkpt lat="42.90061" lon="-0.60639">
        <ele>1714</ele>
        <time>2021-12-08T12:13:56.999Z</time>
      </trkpt>
      <trkpt lat="42.90055" lon="-0.60625">
        <ele>1714</ele>
        <time>2021-12-08T12:14:01.999Z</time>
      </trkpt>
      <trkpt lat="42.90062" lon="-0.60617">
        <ele>1700</ele>
        <time>2021-12-08T12:14:06.999Z</time>
      </trkpt>
      <trkpt lat="42.90072" lon="-0.60619">
        <ele>1691</ele>
        <time>2021-12-08T12:14:11.999Z</time>
      </trkpt>
      <trkpt lat="42.90071" lon="-0.60621">
        <ele>1691</ele>
        <time>2021-12-08T12:14:52.999Z</time>
      </trkpt>
      <trkpt lat="42.90072" lon="-0.6062">
        <ele>1691</ele>
        <time>2021-12-08T12:14:56.999Z</time>
      </trkpt>
      <trkpt lat="42.90082" lon="-0.60616">
        <ele>1691</ele>
        <time>2021-12-08T12:15:01.999Z</time>
      </trkpt>
      <trkpt lat="42.9008" lon="-0.6061">
        <ele>1691</ele>
        <time>2021-12-08T12:15:05.999Z</time>
      </trkpt>
      <trkpt lat="42.90082" lon="-0.60603">
        <ele>1691</ele>
        <time>2021-12-08T12:15:10.999Z</time>
      </trkpt>
      <trkpt lat="42.90086" lon="-0.60595">
        <ele>1682</ele>
        <time>2021-12-08T12:15:15.999Z</time>
      </trkpt>
      <trkpt lat="42.90096" lon="-0.60588">
        <ele>1682</ele>
        <time>2021-12-08T12:15:20.999Z</time>
      </trkpt>
      <trkpt lat="42.90102" lon="-0.6058">
        <ele>1682</ele>
        <time>2021-12-08T12:15:24.999Z</time>
      </trkpt>
      <trkpt lat="42.90113" lon="-0.60578">
        <ele>1682</ele>
        <time>2021-12-08T12:15:29.999Z</time>
      </trkpt>
      <trkpt lat="42.9012" lon="-0.60573">
        <ele>1682</ele>
        <time>2021-12-08T12:15:34.999Z</time>
      </trkpt>
      <trkpt lat="42.9013" lon="-0.60576">
        <ele>1675</ele>
        <time>2021-12-08T12:15:39.999Z</time>
      </trkpt>
      <trkpt lat="42.90139" lon="-0.60568">
        <ele>1661</ele>
        <time>2021-12-08T12:15:44.999Z</time>
      </trkpt>
      <trkpt lat="42.9015" lon="-0.6058">
        <ele>1675</ele>
        <time>2021-12-08T12:15:49.999Z</time>
      </trkpt>
      <trkpt lat="42.90165" lon="-0.60587">
        <ele>1661</ele>
        <time>2021-12-08T12:15:54.999Z</time>
      </trkpt>
      <trkpt lat="42.9017" lon="-0.60588">
        <ele>1661</ele>
        <time>2021-12-08T12:15:58.999Z</time>
      </trkpt>
      <trkpt lat="42.90175" lon="-0.60588">
        <ele>1661</ele>
        <time>2021-12-08T12:16:03.999Z</time>
      </trkpt>
      <trkpt lat="42.90184" lon="-0.60592">
        <ele>1652</ele>
        <time>2021-12-08T12:16:07.999Z</time>
      </trkpt>
      <trkpt lat="42.90189" lon="-0.60592">
        <ele>1652</ele>
        <time>2021-12-08T12:16:46.999Z</time>
      </trkpt>
      <trkpt lat="42.90191" lon="-0.60592">
        <ele>1652</ele>
        <time>2021-12-08T12:16:51.999Z</time>
      </trkpt>
      <trkpt lat="42.902" lon="-0.60587">
        <ele>1652</ele>
        <time>2021-12-08T12:16:56.999Z</time>
      </trkpt>
      <trkpt lat="42.90206" lon="-0.60586">
        <ele>1652</ele>
        <time>2021-12-08T12:17:01.999Z</time>
      </trkpt>
      <trkpt lat="42.90213" lon="-0.60587">
        <ele>1649</ele>
        <time>2021-12-08T12:17:05.999Z</time>
      </trkpt>
      <trkpt lat="42.90222" lon="-0.60582">
        <ele>1649</ele>
        <time>2021-12-08T12:17:10.999Z</time>
      </trkpt>
      <trkpt lat="42.90251" lon="-0.60567">
        <ele>1637</ele>
        <time>2021-12-08T12:17:15.999Z</time>
      </trkpt>
      <trkpt lat="42.90259" lon="-0.6056">
        <ele>1637</ele>
        <time>2021-12-08T12:17:20.999Z</time>
      </trkpt>
      <trkpt lat="42.90262" lon="-0.6056">
        <ele>1637</ele>
        <time>2021-12-08T12:17:25.999Z</time>
      </trkpt>
      <trkpt lat="42.90263" lon="-0.60558">
        <ele>1637</ele>
        <time>2021-12-08T12:17:30.999Z</time>
      </trkpt>
      <trkpt lat="42.90265" lon="-0.60557">
        <ele>1635</ele>
        <time>2021-12-08T12:17:35.999Z</time>
      </trkpt>
      <trkpt lat="42.90269" lon="-0.60555">
        <ele>1635</ele>
        <time>2021-12-08T12:17:40.999Z</time>
      </trkpt>
      <trkpt lat="42.90274" lon="-0.60555">
        <ele>1635</ele>
        <time>2021-12-08T12:17:45.999Z</time>
      </trkpt>
      <trkpt lat="42.90275" lon="-0.60552">
        <ele>1635</ele>
        <time>2021-12-08T12:17:54.999Z</time>
      </trkpt>
      <trkpt lat="42.90276" lon="-0.60552">
        <ele>1635</ele>
        <time>2021-12-08T12:17:59.999Z</time>
      </trkpt>
      <trkpt lat="42.90278" lon="-0.60549">
        <ele>1635</ele>
        <time>2021-12-08T12:18:04.999Z</time>
      </trkpt>
      <trkpt lat="42.90281" lon="-0.60545">
        <ele>1635</ele>
        <time>2021-12-08T12:18:09.999Z</time>
      </trkpt>
      <trkpt lat="42.90284" lon="-0.60544">
        <ele>1635</ele>
        <time>2021-12-08T12:18:13.999Z</time>
      </trkpt>
      <trkpt lat="42.90285" lon="-0.60541">
        <ele>1631</ele>
        <time>2021-12-08T12:18:18.999Z</time>
      </trkpt>
      <trkpt lat="42.90287" lon="-0.60538">
        <ele>1631</ele>
        <time>2021-12-08T12:18:23.999Z</time>
      </trkpt>
      <trkpt lat="42.90289" lon="-0.60534">
        <ele>1631</ele>
        <time>2021-12-08T12:18:28.999Z</time>
      </trkpt>
      <trkpt lat="42.90292" lon="-0.6053">
        <ele>1630</ele>
        <time>2021-12-08T12:18:32.999Z</time>
      </trkpt>
      <trkpt lat="42.90294" lon="-0.60529">
        <ele>1630</ele>
        <time>2021-12-08T12:18:37.999Z</time>
      </trkpt>
      <trkpt lat="42.90295" lon="-0.60528">
        <ele>1630</ele>
        <time>2021-12-08T12:18:41.999Z</time>
      </trkpt>
      <trkpt lat="42.90298" lon="-0.60523">
        <ele>1630</ele>
        <time>2021-12-08T12:18:46.999Z</time>
      </trkpt>
      <trkpt lat="42.90302" lon="-0.60518">
        <ele>1630</ele>
        <time>2021-12-08T12:18:51.999Z</time>
      </trkpt>
      <trkpt lat="42.9031" lon="-0.60512">
        <ele>1625</ele>
        <time>2021-12-08T12:19:33.999Z</time>
      </trkpt>
      <trkpt lat="42.90311" lon="-0.6051">
        <ele>1625</ele>
        <time>2021-12-08T12:19:38.999Z</time>
      </trkpt>
      <trkpt lat="42.90312" lon="-0.60507">
        <ele>1625</ele>
        <time>2021-12-08T12:19:42.999Z</time>
      </trkpt>
      <trkpt lat="42.90313" lon="-0.60506">
        <ele>1625</ele>
        <time>2021-12-08T12:19:47.999Z</time>
      </trkpt>
      <trkpt lat="42.90314" lon="-0.60505">
        <ele>1625</ele>
        <time>2021-12-08T12:19:52.999Z</time>
      </trkpt>
      <trkpt lat="42.90319" lon="-0.60502">
        <ele>1625</ele>
        <time>2021-12-08T12:20:11.999Z</time>
      </trkpt>
      <trkpt lat="42.9032" lon="-0.60501">
        <ele>1627</ele>
        <time>2021-12-08T12:20:16.999Z</time>
      </trkpt>
      <trkpt lat="42.90321" lon="-0.60502">
        <ele>1627</ele>
        <time>2021-12-08T12:20:21.999Z</time>
      </trkpt>
      <trkpt lat="42.90323" lon="-0.60499">
        <ele>1627</ele>
        <time>2021-12-08T12:20:25.999Z</time>
      </trkpt>
      <trkpt lat="42.90327" lon="-0.60493">
        <ele>1627</ele>
        <time>2021-12-08T12:20:29.999Z</time>
      </trkpt>
      <trkpt lat="42.90332" lon="-0.60488">
        <ele>1627</ele>
        <time>2021-12-08T12:20:39.999Z</time>
      </trkpt>
      <trkpt lat="42.90333" lon="-0.60486">
        <ele>1626</ele>
        <time>2021-12-08T12:20:44.999Z</time>
      </trkpt>
      <trkpt lat="42.90334" lon="-0.60485">
        <ele>1626</ele>
        <time>2021-12-08T12:20:48.999Z</time>
      </trkpt>
      <trkpt lat="42.90335" lon="-0.60483">
        <ele>1626</ele>
        <time>2021-12-08T12:20:53.999Z</time>
      </trkpt>
      <trkpt lat="42.9034" lon="-0.60478">
        <ele>1626</ele>
        <time>2021-12-08T12:20:58.999Z</time>
      </trkpt>
      <trkpt lat="42.90346" lon="-0.60476">
        <ele>1626</ele>
        <time>2021-12-08T12:21:02.999Z</time>
      </trkpt>
      <trkpt lat="42.90355" lon="-0.60472">
        <ele>1626</ele>
        <time>2021-12-08T12:21:07.999Z</time>
      </trkpt>
      <trkpt lat="42.90361" lon="-0.6047">
        <ele>1626</ele>
        <time>2021-12-08T12:21:12.999Z</time>
      </trkpt>
      <trkpt lat="42.90362" lon="-0.60469">
        <ele>1626</ele>
        <time>2021-12-08T12:21:16.999Z</time>
      </trkpt>
      <trkpt lat="42.90364" lon="-0.60468">
        <ele>1626</ele>
        <time>2021-12-08T12:21:21.999Z</time>
      </trkpt>
      <trkpt lat="42.90367" lon="-0.60467">
        <ele>1626</ele>
        <time>2021-12-08T12:21:26.999Z</time>
      </trkpt>
      <trkpt lat="42.90372" lon="-0.60463">
        <ele>1626</ele>
        <time>2021-12-08T12:21:31.999Z</time>
      </trkpt>
      <trkpt lat="42.90376" lon="-0.60462">
        <ele>1618</ele>
        <time>2021-12-08T12:21:36.999Z</time>
      </trkpt>
      <trkpt lat="42.90379" lon="-0.60456">
        <ele>1617</ele>
        <time>2021-12-08T12:21:41.999Z</time>
      </trkpt>
      <trkpt lat="42.9038" lon="-0.60452">
        <ele>1617</ele>
        <time>2021-12-08T12:21:45.999Z</time>
      </trkpt>
      <trkpt lat="42.90382" lon="-0.60448">
        <ele>1617</ele>
        <time>2021-12-08T12:21:50.999Z</time>
      </trkpt>
      <trkpt lat="42.90384" lon="-0.60445">
        <ele>1617</ele>
        <time>2021-12-08T12:21:54.999Z</time>
      </trkpt>
      <trkpt lat="42.90389" lon="-0.60438">
        <ele>1617</ele>
        <time>2021-12-08T12:21:59.999Z</time>
      </trkpt>
      <trkpt lat="42.90394" lon="-0.60433">
        <ele>1617</ele>
        <time>2021-12-08T12:22:04.999Z</time>
      </trkpt>
      <trkpt lat="42.90399" lon="-0.60428">
        <ele>1613</ele>
        <time>2021-12-08T12:22:09.999Z</time>
      </trkpt>
      <trkpt lat="42.90403" lon="-0.60424">
        <ele>1608</ele>
        <time>2021-12-08T12:22:14.999Z</time>
      </trkpt>
      <trkpt lat="42.90404" lon="-0.60424">
        <ele>1608</ele>
        <time>2021-12-08T12:22:18.999Z</time>
      </trkpt>
      <trkpt lat="42.90404" lon="-0.60424">
        <ele>1608</ele>
        <time>2021-12-08T12:22:23.999Z</time>
      </trkpt>
      <trkpt lat="42.90405" lon="-0.60424">
        <ele>1608</ele>
        <time>2021-12-08T12:22:28.999Z</time>
      </trkpt>
      <trkpt lat="42.90409" lon="-0.60419">
        <ele>1608</ele>
        <time>2021-12-08T12:22:33.999Z</time>
      </trkpt>
      <trkpt lat="42.90412" lon="-0.60414">
        <ele>1608</ele>
        <time>2021-12-08T12:22:38.999Z</time>
      </trkpt>
      <trkpt lat="42.90415" lon="-0.60411">
        <ele>1608</ele>
        <time>2021-12-08T12:22:43.999Z</time>
      </trkpt>
      <trkpt lat="42.90418" lon="-0.60404">
        <ele>1608</ele>
        <time>2021-12-08T12:22:48.999Z</time>
      </trkpt>
      <trkpt lat="42.90421" lon="-0.60401">
        <ele>1605</ele>
        <time>2021-12-08T12:22:52.999Z</time>
      </trkpt>
      <trkpt lat="42.90424" lon="-0.60395">
        <ele>1605</ele>
        <time>2021-12-08T12:22:57.999Z</time>
      </trkpt>
      <trkpt lat="42.90438" lon="-0.60391">
        <ele>1604</ele>
        <time>2021-12-08T12:23:26.999Z</time>
      </trkpt>
      <trkpt lat="42.90438" lon="-0.60391">
        <ele>1604</ele>
        <time>2021-12-08T12:23:31.999Z</time>
      </trkpt>
      <trkpt lat="42.90438" lon="-0.6039">
        <ele>1604</ele>
        <time>2021-12-08T12:23:36.999Z</time>
      </trkpt>
      <trkpt lat="42.90439" lon="-0.60389">
        <ele>1604</ele>
        <time>2021-12-08T12:23:41.999Z</time>
      </trkpt>
      <trkpt lat="42.90439" lon="-0.60387">
        <ele>1604</ele>
        <time>2021-12-08T12:23:46.999Z</time>
      </trkpt>
      <trkpt lat="42.90441" lon="-0.60386">
        <ele>1604</ele>
        <time>2021-12-08T12:39:26.999Z</time>
      </trkpt>
      <trkpt lat="42.90443" lon="-0.60391">
        <ele>1604</ele>
        <time>2021-12-08T12:39:31.999Z</time>
      </trkpt>
      <trkpt lat="42.90443" lon="-0.604">
        <ele>1604</ele>
        <time>2021-12-08T12:39:36.999Z</time>
      </trkpt>
      <trkpt lat="42.90442" lon="-0.60411">
        <ele>1603</ele>
        <time>2021-12-08T12:39:41.999Z</time>
      </trkpt>
      <trkpt lat="42.90441" lon="-0.6042">
        <ele>1603</ele>
        <time>2021-12-08T12:39:46.999Z</time>
      </trkpt>
      <trkpt lat="42.90442" lon="-0.60427">
        <ele>1603</ele>
        <time>2021-12-08T12:40:09.999Z</time>
      </trkpt>
      <trkpt lat="42.90441" lon="-0.60429">
        <ele>1603</ele>
        <time>2021-12-08T12:40:14.999Z</time>
      </trkpt>
      <trkpt lat="42.90438" lon="-0.60436">
        <ele>1601</ele>
        <time>2021-12-08T12:40:18.999Z</time>
      </trkpt>
      <trkpt lat="42.90433" lon="-0.60444">
        <ele>1601</ele>
        <time>2021-12-08T12:40:23.999Z</time>
      </trkpt>
      <trkpt lat="42.9043" lon="-0.60455">
        <ele>1610</ele>
        <time>2021-12-08T12:40:28.999Z</time>
      </trkpt>
      <trkpt lat="42.90432" lon="-0.60465">
        <ele>1600</ele>
        <time>2021-12-08T12:40:43.999Z</time>
      </trkpt>
      <trkpt lat="42.90433" lon="-0.60469">
        <ele>1600</ele>
        <time>2021-12-08T12:40:48.999Z</time>
      </trkpt>
      <trkpt lat="42.90433" lon="-0.60469">
        <ele>1600</ele>
        <time>2021-12-08T12:40:53.999Z</time>
      </trkpt>
      <trkpt lat="42.90433" lon="-0.60471">
        <ele>1600</ele>
        <time>2021-12-08T12:40:58.999Z</time>
      </trkpt>
      <trkpt lat="42.90434" lon="-0.6048">
        <ele>1600</ele>
        <time>2021-12-08T12:41:03.999Z</time>
      </trkpt>
      <trkpt lat="42.90442" lon="-0.60479">
        <ele>1600</ele>
        <time>2021-12-08T12:42:28.999Z</time>
      </trkpt>
      <trkpt lat="42.90442" lon="-0.60479">
        <ele>1600</ele>
        <time>2021-12-08T12:42:33.999Z</time>
      </trkpt>
      <trkpt lat="42.90442" lon="-0.60478">
        <ele>1600</ele>
        <time>2021-12-08T12:42:38.999Z</time>
      </trkpt>
      <trkpt lat="42.90442" lon="-0.60478">
        <ele>1600</ele>
        <time>2021-12-08T12:42:42.999Z</time>
      </trkpt>
      <trkpt lat="42.90444" lon="-0.60484">
        <ele>1600</ele>
        <time>2021-12-08T12:42:47.999Z</time>
      </trkpt>
      <trkpt lat="42.90463" lon="-0.60496">
        <ele>1585</ele>
        <time>2021-12-08T12:44:15.999Z</time>
      </trkpt>
      <trkpt lat="42.90463" lon="-0.605">
        <ele>1585</ele>
        <time>2021-12-08T12:44:19.999Z</time>
      </trkpt>
      <trkpt lat="42.90471" lon="-0.60494">
        <ele>1585</ele>
        <time>2021-12-08T12:44:24.999Z</time>
      </trkpt>
      <trkpt lat="42.90472" lon="-0.60502">
        <ele>1585</ele>
        <time>2021-12-08T12:44:29.999Z</time>
      </trkpt>
      <trkpt lat="42.90473" lon="-0.60512">
        <ele>1585</ele>
        <time>2021-12-08T12:44:34.999Z</time>
      </trkpt>
      <trkpt lat="42.90475" lon="-0.6051">
        <ele>1585</ele>
        <time>2021-12-08T12:44:44.999Z</time>
      </trkpt>
      <trkpt lat="42.90475" lon="-0.6051">
        <ele>1585</ele>
        <time>2021-12-08T12:44:49.999Z</time>
      </trkpt>
      <trkpt lat="42.90475" lon="-0.6051">
        <ele>1585</ele>
        <time>2021-12-08T12:44:54.999Z</time>
      </trkpt>
      <trkpt lat="42.90477" lon="-0.60514">
        <ele>1581</ele>
        <time>2021-12-08T12:44:59.999Z</time>
      </trkpt>
      <trkpt lat="42.90478" lon="-0.60521">
        <ele>1581</ele>
        <time>2021-12-08T12:45:03.999Z</time>
      </trkpt>
      <trkpt lat="42.9049" lon="-0.60518">
        <ele>1563</ele>
        <time>2021-12-08T12:46:00.999Z</time>
      </trkpt>
      <trkpt lat="42.90492" lon="-0.60521">
        <ele>1563</ele>
        <time>2021-12-08T12:46:04.999Z</time>
      </trkpt>
      <trkpt lat="42.90496" lon="-0.60531">
        <ele>1563</ele>
        <time>2021-12-08T12:46:09.999Z</time>
      </trkpt>
      <trkpt lat="42.905" lon="-0.60527">
        <ele>1563</ele>
        <time>2021-12-08T12:46:14.999Z</time>
      </trkpt>
      <trkpt lat="42.905" lon="-0.60526">
        <ele>1563</ele>
        <time>2021-12-08T12:46:19.999Z</time>
      </trkpt>
      <trkpt lat="42.90501" lon="-0.60523">
        <ele>1563</ele>
        <time>2021-12-08T12:46:24.999Z</time>
      </trkpt>
      <trkpt lat="42.90501" lon="-0.60522">
        <ele>1563</ele>
        <time>2021-12-08T12:46:29.999Z</time>
      </trkpt>
      <trkpt lat="42.90502" lon="-0.60515">
        <ele>1563</ele>
        <time>2021-12-08T12:46:34.999Z</time>
      </trkpt>
      <trkpt lat="42.90503" lon="-0.60505">
        <ele>1568</ele>
        <time>2021-12-08T12:46:39.999Z</time>
      </trkpt>
      <trkpt lat="42.90503" lon="-0.60503">
        <ele>1568</ele>
        <time>2021-12-08T12:47:03.999Z</time>
      </trkpt>
      <trkpt lat="42.90505" lon="-0.60502">
        <ele>1568</ele>
        <time>2021-12-08T12:47:07.999Z</time>
      </trkpt>
      <trkpt lat="42.90507" lon="-0.60503">
        <ele>1568</ele>
        <time>2021-12-08T12:47:12.999Z</time>
      </trkpt>
      <trkpt lat="42.90512" lon="-0.60507">
        <ele>1568</ele>
        <time>2021-12-08T12:47:17.999Z</time>
      </trkpt>
      <trkpt lat="42.90515" lon="-0.60512">
        <ele>1558</ele>
        <time>2021-12-08T12:47:22.999Z</time>
      </trkpt>
      <trkpt lat="42.90516" lon="-0.60513">
        <ele>1558</ele>
        <time>2021-12-08T12:47:26.999Z</time>
      </trkpt>
      <trkpt lat="42.90517" lon="-0.60516">
        <ele>1556</ele>
        <time>2021-12-08T12:47:31.999Z</time>
      </trkpt>
      <trkpt lat="42.90521" lon="-0.60521">
        <ele>1556</ele>
        <time>2021-12-08T12:47:36.999Z</time>
      </trkpt>
      <trkpt lat="42.90525" lon="-0.60527">
        <ele>1556</ele>
        <time>2021-12-08T12:47:41.999Z</time>
      </trkpt>
      <trkpt lat="42.9053" lon="-0.60533">
        <ele>1556</ele>
        <time>2021-12-08T12:47:46.999Z</time>
      </trkpt>
      <trkpt lat="42.90544" lon="-0.6054">
        <ele>1547</ele>
        <time>2021-12-08T12:47:51.999Z</time>
      </trkpt>
      <trkpt lat="42.90548" lon="-0.60546">
        <ele>1546</ele>
        <time>2021-12-08T12:47:56.999Z</time>
      </trkpt>
      <trkpt lat="42.90549" lon="-0.60547">
        <ele>1546</ele>
        <time>2021-12-08T12:48:00.999Z</time>
      </trkpt>
      <trkpt lat="42.90551" lon="-0.60549">
        <ele>1546</ele>
        <time>2021-12-08T12:48:05.999Z</time>
      </trkpt>
      <trkpt lat="42.90556" lon="-0.60554">
        <ele>1546</ele>
        <time>2021-12-08T12:48:10.999Z</time>
      </trkpt>
      <trkpt lat="42.90559" lon="-0.60558">
        <ele>1546</ele>
        <time>2021-12-08T12:48:15.999Z</time>
      </trkpt>
      <trkpt lat="42.9056" lon="-0.60559">
        <ele>1546</ele>
        <time>2021-12-08T12:48:20.999Z</time>
      </trkpt>
      <trkpt lat="42.90565" lon="-0.60564">
        <ele>1546</ele>
        <time>2021-12-08T12:48:25.999Z</time>
      </trkpt>
      <trkpt lat="42.90567" lon="-0.60565">
        <ele>1546</ele>
        <time>2021-12-08T12:48:29.999Z</time>
      </trkpt>
      <trkpt lat="42.90574" lon="-0.6057">
        <ele>1536</ele>
        <time>2021-12-08T12:48:34.999Z</time>
      </trkpt>
      <trkpt lat="42.90577" lon="-0.60576">
        <ele>1536</ele>
        <time>2021-12-08T12:48:39.999Z</time>
      </trkpt>
      <trkpt lat="42.90582" lon="-0.6058">
        <ele>1536</ele>
        <time>2021-12-08T12:48:43.999Z</time>
      </trkpt>
      <trkpt lat="42.90581" lon="-0.60586">
        <ele>1536</ele>
        <time>2021-12-08T12:48:48.999Z</time>
      </trkpt>
      <trkpt lat="42.90585" lon="-0.60592">
        <ele>1536</ele>
        <time>2021-12-08T12:48:53.999Z</time>
      </trkpt>
      <trkpt lat="42.90598" lon="-0.60611">
        <ele>1532</ele>
        <time>2021-12-08T12:48:58.999Z</time>
      </trkpt>
      <trkpt lat="42.90601" lon="-0.60625">
        <ele>1530</ele>
        <time>2021-12-08T12:49:56.999Z</time>
      </trkpt>
      <trkpt lat="42.90602" lon="-0.60625">
        <ele>1530</ele>
        <time>2021-12-08T12:50:01.999Z</time>
      </trkpt>
      <trkpt lat="42.90604" lon="-0.60628">
        <ele>1530</ele>
        <time>2021-12-08T12:50:06.999Z</time>
      </trkpt>
      <trkpt lat="42.90607" lon="-0.60632">
        <ele>1530</ele>
        <time>2021-12-08T12:50:11.999Z</time>
      </trkpt>
      <trkpt lat="42.90608" lon="-0.60633">
        <ele>1530</ele>
        <time>2021-12-08T12:50:16.999Z</time>
      </trkpt>
      <trkpt lat="42.90609" lon="-0.60636">
        <ele>1530</ele>
        <time>2021-12-08T12:50:21.999Z</time>
      </trkpt>
      <trkpt lat="42.90609" lon="-0.60636">
        <ele>1530</ele>
        <time>2021-12-08T12:50:25.999Z</time>
      </trkpt>
      <trkpt lat="42.90611" lon="-0.60641">
        <ele>1530</ele>
        <time>2021-12-08T12:50:30.999Z</time>
      </trkpt>
      <trkpt lat="42.90614" lon="-0.60647">
        <ele>1530</ele>
        <time>2021-12-08T12:50:35.999Z</time>
      </trkpt>
      <trkpt lat="42.90619" lon="-0.60654">
        <ele>1528</ele>
        <time>2021-12-08T12:50:40.999Z</time>
      </trkpt>
      <trkpt lat="42.90625" lon="-0.60664">
        <ele>1528</ele>
        <time>2021-12-08T12:50:45.999Z</time>
      </trkpt>
      <trkpt lat="42.90629" lon="-0.60673">
        <ele>1525</ele>
        <time>2021-12-08T12:50:49.999Z</time>
      </trkpt>
      <trkpt lat="42.90632" lon="-0.60682">
        <ele>1521</ele>
        <time>2021-12-08T12:50:54.999Z</time>
      </trkpt>
      <trkpt lat="42.90633" lon="-0.60691">
        <ele>1521</ele>
        <time>2021-12-08T12:50:59.999Z</time>
      </trkpt>
      <trkpt lat="42.90635" lon="-0.60698">
        <ele>1521</ele>
        <time>2021-12-08T12:51:04.999Z</time>
      </trkpt>
      <trkpt lat="42.90636" lon="-0.60705">
        <ele>1521</ele>
        <time>2021-12-08T12:51:09.999Z</time>
      </trkpt>
      <trkpt lat="42.90639" lon="-0.60711">
        <ele>1515</ele>
        <time>2021-12-08T12:51:14.999Z</time>
      </trkpt>
      <trkpt lat="42.90639" lon="-0.60716">
        <ele>1515</ele>
        <time>2021-12-08T12:51:19.999Z</time>
      </trkpt>
      <trkpt lat="42.9064" lon="-0.6072">
        <ele>1515</ele>
        <time>2021-12-08T12:51:24.999Z</time>
      </trkpt>
      <trkpt lat="42.90638" lon="-0.60726">
        <ele>1515</ele>
        <time>2021-12-08T12:51:29.999Z</time>
      </trkpt>
      <trkpt lat="42.90636" lon="-0.60733">
        <ele>1515</ele>
        <time>2021-12-08T12:51:34.999Z</time>
      </trkpt>
      <trkpt lat="42.90636" lon="-0.60747">
        <ele>1508</ele>
        <time>2021-12-08T12:51:39.999Z</time>
      </trkpt>
      <trkpt lat="42.90637" lon="-0.60744">
        <ele>1508</ele>
        <time>2021-12-08T12:51:44.999Z</time>
      </trkpt>
      <trkpt lat="42.90637" lon="-0.60744">
        <ele>1508</ele>
        <time>2021-12-08T12:51:49.999Z</time>
      </trkpt>
      <trkpt lat="42.90637" lon="-0.60744">
        <ele>1508</ele>
        <time>2021-12-08T12:51:54.999Z</time>
      </trkpt>
      <trkpt lat="42.9064" lon="-0.60759">
        <ele>1508</ele>
        <time>2021-12-08T12:51:59.999Z</time>
      </trkpt>
      <trkpt lat="42.90643" lon="-0.6077">
        <ele>1502</ele>
        <time>2021-12-08T12:52:32.999Z</time>
      </trkpt>
      <trkpt lat="42.90646" lon="-0.60767">
        <ele>1502</ele>
        <time>2021-12-08T12:52:37.999Z</time>
      </trkpt>
      <trkpt lat="42.90649" lon="-0.60766">
        <ele>1502</ele>
        <time>2021-12-08T12:52:42.999Z</time>
      </trkpt>
      <trkpt lat="42.90649" lon="-0.60767">
        <ele>1502</ele>
        <time>2021-12-08T12:52:47.999Z</time>
      </trkpt>
      <trkpt lat="42.90653" lon="-0.60767">
        <ele>1488</ele>
        <time>2021-12-08T12:52:52.999Z</time>
      </trkpt>
      <trkpt lat="42.90673" lon="-0.60767">
        <ele>1488</ele>
        <time>2021-12-08T12:54:00.999Z</time>
      </trkpt>
      <trkpt lat="42.90672" lon="-0.6077">
        <ele>1488</ele>
        <time>2021-12-08T12:54:05.999Z</time>
      </trkpt>
      <trkpt lat="42.90669" lon="-0.60774">
        <ele>1488</ele>
        <time>2021-12-08T12:54:10.999Z</time>
      </trkpt>
      <trkpt lat="42.90668" lon="-0.60777">
        <ele>1488</ele>
        <time>2021-12-08T12:54:15.999Z</time>
      </trkpt>
      <trkpt lat="42.90672" lon="-0.60781">
        <ele>1488</ele>
        <time>2021-12-08T12:54:20.999Z</time>
      </trkpt>
      <trkpt lat="42.90676" lon="-0.6078">
        <ele>1488</ele>
        <time>2021-12-08T12:54:25.999Z</time>
      </trkpt>
      <trkpt lat="42.90682" lon="-0.60779">
        <ele>1486</ele>
        <time>2021-12-08T12:54:30.999Z</time>
      </trkpt>
      <trkpt lat="42.90689" lon="-0.60776">
        <ele>1486</ele>
        <time>2021-12-08T12:54:35.999Z</time>
      </trkpt>
      <trkpt lat="42.90689" lon="-0.60776">
        <ele>1486</ele>
        <time>2021-12-08T12:54:40.999Z</time>
      </trkpt>
      <trkpt lat="42.9069" lon="-0.60776">
        <ele>1486</ele>
        <time>2021-12-08T12:54:45.999Z</time>
      </trkpt>
      <trkpt lat="42.90697" lon="-0.60774">
        <ele>1486</ele>
        <time>2021-12-08T12:54:50.999Z</time>
      </trkpt>
      <trkpt lat="42.90701" lon="-0.60772">
        <ele>1486</ele>
        <time>2021-12-08T12:54:54.999Z</time>
      </trkpt>
      <trkpt lat="42.90707" lon="-0.60771">
        <ele>1486</ele>
        <time>2021-12-08T12:54:59.999Z</time>
      </trkpt>
      <trkpt lat="42.90714" lon="-0.60769">
        <ele>1484</ele>
        <time>2021-12-08T12:55:04.999Z</time>
      </trkpt>
      <trkpt lat="42.90718" lon="-0.60767">
        <ele>1484</ele>
        <time>2021-12-08T12:55:09.999Z</time>
      </trkpt>
      <trkpt lat="42.90721" lon="-0.60766">
        <ele>1484</ele>
        <time>2021-12-08T12:55:14.999Z</time>
      </trkpt>
      <trkpt lat="42.90726" lon="-0.60763">
        <ele>1490</ele>
        <time>2021-12-08T12:55:19.999Z</time>
      </trkpt>
      <trkpt lat="42.90731" lon="-0.60762">
        <ele>1490</ele>
        <time>2021-12-08T12:55:24.999Z</time>
      </trkpt>
      <trkpt lat="42.90747" lon="-0.6076">
        <ele>1485</ele>
        <time>2021-12-08T12:55:29.999Z</time>
      </trkpt>
      <trkpt lat="42.90758" lon="-0.60769">
        <ele>1480</ele>
        <time>2021-12-08T12:55:34.999Z</time>
      </trkpt>
      <trkpt lat="42.90768" lon="-0.60782">
        <ele>1477</ele>
        <time>2021-12-08T12:55:39.999Z</time>
      </trkpt>
      <trkpt lat="42.90769" lon="-0.60787">
        <ele>1477</ele>
        <time>2021-12-08T12:55:44.999Z</time>
      </trkpt>
      <trkpt lat="42.90769" lon="-0.60791">
        <ele>1477</ele>
        <time>2021-12-08T12:55:49.999Z</time>
      </trkpt>
      <trkpt lat="42.90769" lon="-0.60796">
        <ele>1475</ele>
        <time>2021-12-08T12:55:54.999Z</time>
      </trkpt>
      <trkpt lat="42.90768" lon="-0.60803">
        <ele>1475</ele>
        <time>2021-12-08T12:55:59.999Z</time>
      </trkpt>
      <trkpt lat="42.90764" lon="-0.60811">
        <ele>1475</ele>
        <time>2021-12-08T12:56:04.999Z</time>
      </trkpt>
      <trkpt lat="42.9076" lon="-0.60817">
        <ele>1478</ele>
        <time>2021-12-08T12:56:09.999Z</time>
      </trkpt>
      <trkpt lat="42.90754" lon="-0.60826">
        <ele>1474</ele>
        <time>2021-12-08T12:56:14.999Z</time>
      </trkpt>
      <trkpt lat="42.90744" lon="-0.60836">
        <ele>1474</ele>
        <time>2021-12-08T12:56:19.999Z</time>
      </trkpt>
      <trkpt lat="42.90739" lon="-0.60845">
        <ele>1474</ele>
        <time>2021-12-08T12:56:24.999Z</time>
      </trkpt>
      <trkpt lat="42.90737" lon="-0.60849">
        <ele>1467</ele>
        <time>2021-12-08T12:56:29.999Z</time>
      </trkpt>
      <trkpt lat="42.90732" lon="-0.60853">
        <ele>1470</ele>
        <time>2021-12-08T12:56:34.999Z</time>
      </trkpt>
      <trkpt lat="42.90728" lon="-0.60859">
        <ele>1470</ele>
        <time>2021-12-08T12:56:39.999Z</time>
      </trkpt>
      <trkpt lat="42.90722" lon="-0.60871">
        <ele>1470</ele>
        <time>2021-12-08T12:56:44.999Z</time>
      </trkpt>
      <trkpt lat="42.90717" lon="-0.60881">
        <ele>1463</ele>
        <time>2021-12-08T12:56:49.999Z</time>
      </trkpt>
      <trkpt lat="42.9071" lon="-0.60897">
        <ele>1463</ele>
        <time>2021-12-08T12:56:54.999Z</time>
      </trkpt>
      <trkpt lat="42.90703" lon="-0.60909">
        <ele>1462</ele>
        <time>2021-12-08T12:56:59.999Z</time>
      </trkpt>
      <trkpt lat="42.907" lon="-0.60916">
        <ele>1462</ele>
        <time>2021-12-08T12:57:04.999Z</time>
      </trkpt>
      <trkpt lat="42.90696" lon="-0.60926">
        <ele>1462</ele>
        <time>2021-12-08T12:57:09.999Z</time>
      </trkpt>
      <trkpt lat="42.90689" lon="-0.60943">
        <ele>1455</ele>
        <time>2021-12-08T12:57:14.999Z</time>
      </trkpt>
      <trkpt lat="42.90682" lon="-0.6096">
        <ele>1446</ele>
        <time>2021-12-08T12:57:19.999Z</time>
      </trkpt>
      <trkpt lat="42.90679" lon="-0.60971">
        <ele>1457</ele>
        <time>2021-12-08T12:57:24.999Z</time>
      </trkpt>
      <trkpt lat="42.90675" lon="-0.60984">
        <ele>1457</ele>
        <time>2021-12-08T12:57:29.999Z</time>
      </trkpt>
      <trkpt lat="42.90672" lon="-0.60992">
        <ele>1448</ele>
        <time>2021-12-08T12:57:34.999Z</time>
      </trkpt>
      <trkpt lat="42.90672" lon="-0.60993">
        <ele>1448</ele>
        <time>2021-12-08T12:57:39.999Z</time>
      </trkpt>
      <trkpt lat="42.90671" lon="-0.60998">
        <ele>1448</ele>
        <time>2021-12-08T12:57:44.999Z</time>
      </trkpt>
      <trkpt lat="42.90669" lon="-0.61004">
        <ele>1448</ele>
        <time>2021-12-08T12:57:48.999Z</time>
      </trkpt>
      <trkpt lat="42.90666" lon="-0.6101">
        <ele>1448</ele>
        <time>2021-12-08T12:57:53.999Z</time>
      </trkpt>
      <trkpt lat="42.90663" lon="-0.61019">
        <ele>1441</ele>
        <time>2021-12-08T12:57:58.999Z</time>
      </trkpt>
      <trkpt lat="42.90659" lon="-0.61035">
        <ele>1441</ele>
        <time>2021-12-08T12:58:03.999Z</time>
      </trkpt>
      <trkpt lat="42.90655" lon="-0.61048">
        <ele>1435</ele>
        <time>2021-12-08T12:58:08.999Z</time>
      </trkpt>
      <trkpt lat="42.90654" lon="-0.61054">
        <ele>1435</ele>
        <time>2021-12-08T12:58:13.999Z</time>
      </trkpt>
      <trkpt lat="42.90651" lon="-0.61071">
        <ele>1439</ele>
        <time>2021-12-08T12:58:18.999Z</time>
      </trkpt>
      <trkpt lat="42.90649" lon="-0.61081">
        <ele>1439</ele>
        <time>2021-12-08T12:58:22.999Z</time>
      </trkpt>
      <trkpt lat="42.90642" lon="-0.61104">
        <ele>1428</ele>
        <time>2021-12-08T12:58:27.999Z</time>
      </trkpt>
      <trkpt lat="42.90638" lon="-0.61112">
        <ele>1428</ele>
        <time>2021-12-08T12:58:32.999Z</time>
      </trkpt>
      <trkpt lat="42.90638" lon="-0.61112">
        <ele>1428</ele>
        <time>2021-12-08T12:58:37.999Z</time>
      </trkpt>
      <trkpt lat="42.90638" lon="-0.61113">
        <ele>1428</ele>
        <time>2021-12-08T12:58:51.999Z</time>
      </trkpt>
      <trkpt lat="42.90638" lon="-0.61113">
        <ele>1428</ele>
        <time>2021-12-08T12:58:56.999Z</time>
      </trkpt>
      <trkpt lat="42.90638" lon="-0.61115">
        <ele>1428</ele>
        <time>2021-12-08T12:59:01.999Z</time>
      </trkpt>
      <trkpt lat="42.90638" lon="-0.61118">
        <ele>1428</ele>
        <time>2021-12-08T12:59:06.999Z</time>
      </trkpt>
      <trkpt lat="42.90635" lon="-0.61135">
        <ele>1422</ele>
        <time>2021-12-08T12:59:11.999Z</time>
      </trkpt>
      <trkpt lat="42.90637" lon="-0.61154">
        <ele>1415</ele>
        <time>2021-12-08T12:59:16.999Z</time>
      </trkpt>
      <trkpt lat="42.90637" lon="-0.61169">
        <ele>1415</ele>
        <time>2021-12-08T12:59:21.999Z</time>
      </trkpt>
      <trkpt lat="42.90636" lon="-0.61182">
        <ele>1411</ele>
        <time>2021-12-08T12:59:26.999Z</time>
      </trkpt>
      <trkpt lat="42.90634" lon="-0.61187">
        <ele>1411</ele>
        <time>2021-12-08T12:59:31.999Z</time>
      </trkpt>
      <trkpt lat="42.90634" lon="-0.61188">
        <ele>1411</ele>
        <time>2021-12-08T12:59:36.999Z</time>
      </trkpt>
      <trkpt lat="42.90632" lon="-0.61194">
        <ele>1411</ele>
        <time>2021-12-08T12:59:41.999Z</time>
      </trkpt>
      <trkpt lat="42.90628" lon="-0.61202">
        <ele>1411</ele>
        <time>2021-12-08T12:59:46.999Z</time>
      </trkpt>
      <trkpt lat="42.90624" lon="-0.61205">
        <ele>1421</ele>
        <time>2021-12-08T12:59:51.999Z</time>
      </trkpt>
      <trkpt lat="42.90618" lon="-0.61216">
        <ele>1412</ele>
        <time>2021-12-08T12:59:56.999Z</time>
      </trkpt>
      <trkpt lat="42.90622" lon="-0.61223">
        <ele>1412</ele>
        <time>2021-12-08T13:00:00.999Z</time>
      </trkpt>
      <trkpt lat="42.90626" lon="-0.61223">
        <ele>1407</ele>
        <time>2021-12-08T13:00:05.999Z</time>
      </trkpt>
      <trkpt lat="42.90627" lon="-0.61227">
        <ele>1407</ele>
        <time>2021-12-08T13:00:09.999Z</time>
      </trkpt>
      <trkpt lat="42.90629" lon="-0.61229">
        <ele>1407</ele>
        <time>2021-12-08T13:00:14.999Z</time>
      </trkpt>
      <trkpt lat="42.90631" lon="-0.61232">
        <ele>1407</ele>
        <time>2021-12-08T13:00:19.999Z</time>
      </trkpt>
      <trkpt lat="42.90633" lon="-0.61236">
        <ele>1407</ele>
        <time>2021-12-08T13:00:24.999Z</time>
      </trkpt>
      <trkpt lat="42.90634" lon="-0.61237">
        <ele>1399</ele>
        <time>2021-12-08T13:00:29.999Z</time>
      </trkpt>
      <trkpt lat="42.90637" lon="-0.61237">
        <ele>1399</ele>
        <time>2021-12-08T13:00:34.999Z</time>
      </trkpt>
      <trkpt lat="42.9064" lon="-0.61237">
        <ele>1399</ele>
        <time>2021-12-08T13:00:39.999Z</time>
      </trkpt>
      <trkpt lat="42.90643" lon="-0.61234">
        <ele>1407</ele>
        <time>2021-12-08T13:00:44.999Z</time>
      </trkpt>
      <trkpt lat="42.9065" lon="-0.6123">
        <ele>1407</ele>
        <time>2021-12-08T13:00:48.999Z</time>
      </trkpt>
      <trkpt lat="42.90659" lon="-0.61224">
        <ele>1399</ele>
        <time>2021-12-08T13:00:53.999Z</time>
      </trkpt>
      <trkpt lat="42.90664" lon="-0.61221">
        <ele>1399</ele>
        <time>2021-12-08T13:00:57.999Z</time>
      </trkpt>
      <trkpt lat="42.9067" lon="-0.61218">
        <ele>1399</ele>
        <time>2021-12-08T13:01:02.999Z</time>
      </trkpt>
      <trkpt lat="42.90675" lon="-0.61211">
        <ele>1399</ele>
        <time>2021-12-08T13:01:07.999Z</time>
      </trkpt>
      <trkpt lat="42.90678" lon="-0.61205">
        <ele>1403</ele>
        <time>2021-12-08T13:01:12.999Z</time>
      </trkpt>
      <trkpt lat="42.90682" lon="-0.61193">
        <ele>1397</ele>
        <time>2021-12-08T13:01:17.999Z</time>
      </trkpt>
      <trkpt lat="42.90688" lon="-0.61177">
        <ele>1398</ele>
        <time>2021-12-08T13:01:22.999Z</time>
      </trkpt>
      <trkpt lat="42.90696" lon="-0.61164">
        <ele>1398</ele>
        <time>2021-12-08T13:01:27.999Z</time>
      </trkpt>
      <trkpt lat="42.90699" lon="-0.61156">
        <ele>1398</ele>
        <time>2021-12-08T13:01:32.999Z</time>
      </trkpt>
      <trkpt lat="42.90705" lon="-0.61143">
        <ele>1400</ele>
        <time>2021-12-08T13:01:37.999Z</time>
      </trkpt>
      <trkpt lat="42.90713" lon="-0.61132">
        <ele>1393</ele>
        <time>2021-12-08T13:01:41.999Z</time>
      </trkpt>
      <trkpt lat="42.90727" lon="-0.61112">
        <ele>1396</ele>
        <time>2021-12-08T13:01:46.999Z</time>
      </trkpt>
      <trkpt lat="42.90742" lon="-0.61095">
        <ele>1389</ele>
        <time>2021-12-08T13:01:50.999Z</time>
      </trkpt>
      <trkpt lat="42.90773" lon="-0.61074">
        <ele>1379</ele>
        <time>2021-12-08T13:01:55.999Z</time>
      </trkpt>
      <trkpt lat="42.90779" lon="-0.61068">
        <ele>1387</ele>
        <time>2021-12-08T13:01:59.999Z</time>
      </trkpt>
      <trkpt lat="42.90784" lon="-0.61059">
        <ele>1387</ele>
        <time>2021-12-08T13:02:04.999Z</time>
      </trkpt>
      <trkpt lat="42.90791" lon="-0.61053">
        <ele>1387</ele>
        <time>2021-12-08T13:02:09.999Z</time>
      </trkpt>
      <trkpt lat="42.908" lon="-0.61051">
        <ele>1376</ele>
        <time>2021-12-08T13:02:14.999Z</time>
      </trkpt>
      <trkpt lat="42.90815" lon="-0.61043">
        <ele>1376</ele>
        <time>2021-12-08T13:02:19.999Z</time>
      </trkpt>
      <trkpt lat="42.90827" lon="-0.61033">
        <ele>1372</ele>
        <time>2021-12-08T13:02:23.999Z</time>
      </trkpt>
      <trkpt lat="42.90838" lon="-0.61027">
        <ele>1372</ele>
        <time>2021-12-08T13:02:28.999Z</time>
      </trkpt>
      <trkpt lat="42.9085" lon="-0.61023">
        <ele>1361</ele>
        <time>2021-12-08T13:02:32.999Z</time>
      </trkpt>
      <trkpt lat="42.90859" lon="-0.61017">
        <ele>1361</ele>
        <time>2021-12-08T13:02:37.999Z</time>
      </trkpt>
      <trkpt lat="42.90873" lon="-0.61008">
        <ele>1378</ele>
        <time>2021-12-08T13:02:41.999Z</time>
      </trkpt>
      <trkpt lat="42.90887" lon="-0.61007">
        <ele>1366</ele>
        <time>2021-12-08T13:02:46.999Z</time>
      </trkpt>
      <trkpt lat="42.909" lon="-0.60996">
        <ele>1366</ele>
        <time>2021-12-08T13:02:51.999Z</time>
      </trkpt>
      <trkpt lat="42.9091" lon="-0.60992">
        <ele>1357</ele>
        <time>2021-12-08T13:02:56.999Z</time>
      </trkpt>
      <trkpt lat="42.90915" lon="-0.60989">
        <ele>1357</ele>
        <time>2021-12-08T13:03:01.999Z</time>
      </trkpt>
      <trkpt lat="42.90916" lon="-0.6099">
        <ele>1357</ele>
        <time>2021-12-08T13:03:05.999Z</time>
      </trkpt>
      <trkpt lat="42.90918" lon="-0.6099">
        <ele>1357</ele>
        <time>2021-12-08T13:03:25.999Z</time>
      </trkpt>
      <trkpt lat="42.90933" lon="-0.6099">
        <ele>1351</ele>
        <time>2021-12-08T13:03:30.999Z</time>
      </trkpt>
      <trkpt lat="42.90947" lon="-0.6099">
        <ele>1351</ele>
        <time>2021-12-08T13:03:35.999Z</time>
      </trkpt>
      <trkpt lat="42.90961" lon="-0.60992">
        <ele>1343</ele>
        <time>2021-12-08T13:03:40.999Z</time>
      </trkpt>
      <trkpt lat="42.90975" lon="-0.60988">
        <ele>1343</ele>
        <time>2021-12-08T13:03:45.999Z</time>
      </trkpt>
      <trkpt lat="42.90985" lon="-0.60984">
        <ele>1359</ele>
        <time>2021-12-08T13:03:50.999Z</time>
      </trkpt>
      <trkpt lat="42.90997" lon="-0.60981">
        <ele>1345</ele>
        <time>2021-12-08T13:03:55.999Z</time>
      </trkpt>
      <trkpt lat="42.91005" lon="-0.60975">
        <ele>1345</ele>
        <time>2021-12-08T13:04:00.999Z</time>
      </trkpt>
      <trkpt lat="42.91013" lon="-0.60969">
        <ele>1345</ele>
        <time>2021-12-08T13:04:05.999Z</time>
      </trkpt>
      <trkpt lat="42.91019" lon="-0.60965">
        <ele>1337</ele>
        <time>2021-12-08T13:06:42.999Z</time>
      </trkpt>
      <trkpt lat="42.91019" lon="-0.60965">
        <ele>1337</ele>
        <time>2021-12-08T13:06:47.999Z</time>
      </trkpt>
      <trkpt lat="42.91015" lon="-0.60978">
        <ele>1337</ele>
        <time>2021-12-08T13:06:52.999Z</time>
      </trkpt>
      <trkpt lat="42.91005" lon="-0.6099">
        <ele>1334</ele>
        <time>2021-12-08T13:06:57.999Z</time>
      </trkpt>
      <trkpt lat="42.90994" lon="-0.60999">
        <ele>1334</ele>
        <time>2021-12-08T13:07:02.999Z</time>
      </trkpt>
      <trkpt lat="42.90987" lon="-0.61006">
        <ele>1334</ele>
        <time>2021-12-08T13:07:07.999Z</time>
      </trkpt>
      <trkpt lat="42.90979" lon="-0.61012">
        <ele>1343</ele>
        <time>2021-12-08T13:07:12.999Z</time>
      </trkpt>
      <trkpt lat="42.9097" lon="-0.61022">
        <ele>1332</ele>
        <time>2021-12-08T13:07:17.999Z</time>
      </trkpt>
      <trkpt lat="42.9096" lon="-0.61029">
        <ele>1332</ele>
        <time>2021-12-08T13:07:22.999Z</time>
      </trkpt>
      <trkpt lat="42.90948" lon="-0.61041">
        <ele>1337</ele>
        <time>2021-12-08T13:07:27.999Z</time>
      </trkpt>
      <trkpt lat="42.90937" lon="-0.61052">
        <ele>1326</ele>
        <time>2021-12-08T13:07:32.999Z</time>
      </trkpt>
      <trkpt lat="42.90925" lon="-0.6106">
        <ele>1333</ele>
        <time>2021-12-08T13:07:37.999Z</time>
      </trkpt>
      <trkpt lat="42.90916" lon="-0.61065">
        <ele>1333</ele>
        <time>2021-12-08T13:07:42.999Z</time>
      </trkpt>
      <trkpt lat="42.90908" lon="-0.61071">
        <ele>1321</ele>
        <time>2021-12-08T13:07:47.999Z</time>
      </trkpt>
      <trkpt lat="42.90898" lon="-0.61076">
        <ele>1328</ele>
        <time>2021-12-08T13:07:51.999Z</time>
      </trkpt>
      <trkpt lat="42.9088" lon="-0.61083">
        <ele>1328</ele>
        <time>2021-12-08T13:07:56.999Z</time>
      </trkpt>
      <trkpt lat="42.90865" lon="-0.61093">
        <ele>1330</ele>
        <time>2021-12-08T13:08:01.999Z</time>
      </trkpt>
      <trkpt lat="42.90855" lon="-0.61117">
        <ele>1319</ele>
        <time>2021-12-08T13:08:06.999Z</time>
      </trkpt>
      <trkpt lat="42.9085" lon="-0.61135">
        <ele>1311</ele>
        <time>2021-12-08T13:08:11.999Z</time>
      </trkpt>
      <trkpt lat="42.90845" lon="-0.6115">
        <ele>1322</ele>
        <time>2021-12-08T13:08:16.999Z</time>
      </trkpt>
      <trkpt lat="42.90848" lon="-0.61162">
        <ele>1307</ele>
        <time>2021-12-08T13:08:21.999Z</time>
      </trkpt>
      <trkpt lat="42.90855" lon="-0.61163">
        <ele>1307</ele>
        <time>2021-12-08T13:08:26.999Z</time>
      </trkpt>
      <trkpt lat="42.90859" lon="-0.61154">
        <ele>1307</ele>
        <time>2021-12-08T13:08:31.999Z</time>
      </trkpt>
      <trkpt lat="42.90869" lon="-0.61143">
        <ele>1311</ele>
        <time>2021-12-08T13:08:36.999Z</time>
      </trkpt>
      <trkpt lat="42.90878" lon="-0.61135">
        <ele>1306</ele>
        <time>2021-12-08T13:08:41.999Z</time>
      </trkpt>
      <trkpt lat="42.90887" lon="-0.6113">
        <ele>1306</ele>
        <time>2021-12-08T13:08:46.999Z</time>
      </trkpt>
      <trkpt lat="42.90895" lon="-0.61128">
        <ele>1306</ele>
        <time>2021-12-08T13:08:50.999Z</time>
      </trkpt>
      <trkpt lat="42.90899" lon="-0.61127">
        <ele>1306</ele>
        <time>2021-12-08T13:08:54.999Z</time>
      </trkpt>
      <trkpt lat="42.90907" lon="-0.61124">
        <ele>1309</ele>
        <time>2021-12-08T13:08:59.999Z</time>
      </trkpt>
      <trkpt lat="42.90916" lon="-0.61121">
        <ele>1309</ele>
        <time>2021-12-08T13:09:04.999Z</time>
      </trkpt>
      <trkpt lat="42.90925" lon="-0.61119">
        <ele>1309</ele>
        <time>2021-12-08T13:09:08.999Z</time>
      </trkpt>
      <trkpt lat="42.90935" lon="-0.61114">
        <ele>1300</ele>
        <time>2021-12-08T13:09:13.999Z</time>
      </trkpt>
      <trkpt lat="42.90939" lon="-0.61112">
        <ele>1300</ele>
        <time>2021-12-08T13:09:17.999Z</time>
      </trkpt>
      <trkpt lat="42.90943" lon="-0.61111">
        <ele>1300</ele>
        <time>2021-12-08T13:09:22.999Z</time>
      </trkpt>
      <trkpt lat="42.90957" lon="-0.61109">
        <ele>1300</ele>
        <time>2021-12-08T13:09:27.999Z</time>
      </trkpt>
      <trkpt lat="42.90965" lon="-0.61112">
        <ele>1293</ele>
        <time>2021-12-08T13:09:32.999Z</time>
      </trkpt>
      <trkpt lat="42.90968" lon="-0.61113">
        <ele>1293</ele>
        <time>2021-12-08T13:09:37.999Z</time>
      </trkpt>
      <trkpt lat="42.90968" lon="-0.61114">
        <ele>1293</ele>
        <time>2021-12-08T13:09:46.999Z</time>
      </trkpt>
      <trkpt lat="42.90968" lon="-0.61115">
        <ele>1293</ele>
        <time>2021-12-08T13:09:51.999Z</time>
      </trkpt>
      <trkpt lat="42.90967" lon="-0.61115">
        <ele>1293</ele>
        <time>2021-12-08T13:09:56.999Z</time>
      </trkpt>
      <trkpt lat="42.90972" lon="-0.61115">
        <ele>1293</ele>
        <time>2021-12-08T13:10:01.999Z</time>
      </trkpt>
      <trkpt lat="42.90981" lon="-0.61116">
        <ele>1293</ele>
        <time>2021-12-08T13:10:06.999Z</time>
      </trkpt>
      <trkpt lat="42.9099" lon="-0.61114">
        <ele>1287</ele>
        <time>2021-12-08T13:10:11.999Z</time>
      </trkpt>
      <trkpt lat="42.90997" lon="-0.61104">
        <ele>1287</ele>
        <time>2021-12-08T13:10:16.999Z</time>
      </trkpt>
      <trkpt lat="42.91006" lon="-0.61096">
        <ele>1296</ele>
        <time>2021-12-08T13:10:21.999Z</time>
      </trkpt>
      <trkpt lat="42.91018" lon="-0.61094">
        <ele>1290</ele>
        <time>2021-12-08T13:10:26.999Z</time>
      </trkpt>
      <trkpt lat="42.91029" lon="-0.61091">
        <ele>1290</ele>
        <time>2021-12-08T13:10:31.999Z</time>
      </trkpt>
      <trkpt lat="42.91037" lon="-0.61089">
        <ele>1290</ele>
        <time>2021-12-08T13:10:36.999Z</time>
      </trkpt>
      <trkpt lat="42.91045" lon="-0.61085">
        <ele>1283</ele>
        <time>2021-12-08T13:10:41.999Z</time>
      </trkpt>
      <trkpt lat="42.91058" lon="-0.61081">
        <ele>1283</ele>
        <time>2021-12-08T13:10:46.999Z</time>
      </trkpt>
      <trkpt lat="42.91065" lon="-0.61077">
        <ele>1283</ele>
        <time>2021-12-08T13:10:51.999Z</time>
      </trkpt>
      <trkpt lat="42.91069" lon="-0.61071">
        <ele>1283</ele>
        <time>2021-12-08T13:10:55.999Z</time>
      </trkpt>
      <trkpt lat="42.91077" lon="-0.6106">
        <ele>1284</ele>
        <time>2021-12-08T13:11:00.999Z</time>
      </trkpt>
      <trkpt lat="42.91086" lon="-0.6105">
        <ele>1284</ele>
        <time>2021-12-08T13:11:05.999Z</time>
      </trkpt>
      <trkpt lat="42.9111" lon="-0.61045">
        <ele>1267</ele>
        <time>2021-12-08T13:11:29.999Z</time>
      </trkpt>
      <trkpt lat="42.91103" lon="-0.61059">
        <ele>1267</ele>
        <time>2021-12-08T13:11:34.999Z</time>
      </trkpt>
      <trkpt lat="42.91096" lon="-0.61075">
        <ele>1272</ele>
        <time>2021-12-08T13:11:39.999Z</time>
      </trkpt>
      <trkpt lat="42.9109" lon="-0.61087">
        <ele>1272</ele>
        <time>2021-12-08T13:11:44.999Z</time>
      </trkpt>
      <trkpt lat="42.91082" lon="-0.61101">
        <ele>1260</ele>
        <time>2021-12-08T13:11:49.999Z</time>
      </trkpt>
      <trkpt lat="42.91074" lon="-0.6111">
        <ele>1260</ele>
        <time>2021-12-08T13:11:54.999Z</time>
      </trkpt>
      <trkpt lat="42.91062" lon="-0.61126">
        <ele>1261</ele>
        <time>2021-12-08T13:11:59.999Z</time>
      </trkpt>
      <trkpt lat="42.91057" lon="-0.61142">
        <ele>1261</ele>
        <time>2021-12-08T13:12:03.999Z</time>
      </trkpt>
      <trkpt lat="42.91056" lon="-0.61163">
        <ele>1253</ele>
        <time>2021-12-08T13:12:08.999Z</time>
      </trkpt>
      <trkpt lat="42.91065" lon="-0.61176">
        <ele>1253</ele>
        <time>2021-12-08T13:12:43.999Z</time>
      </trkpt>
      <trkpt lat="42.91068" lon="-0.61161">
        <ele>1253</ele>
        <time>2021-12-08T13:12:48.999Z</time>
      </trkpt>
      <trkpt lat="42.91077" lon="-0.61147">
        <ele>1251</ele>
        <time>2021-12-08T13:12:53.999Z</time>
      </trkpt>
      <trkpt lat="42.91096" lon="-0.61142">
        <ele>1251</ele>
        <time>2021-12-08T13:12:58.999Z</time>
      </trkpt>
      <trkpt lat="42.91112" lon="-0.61139">
        <ele>1240</ele>
        <time>2021-12-08T13:13:03.999Z</time>
      </trkpt>
      <trkpt lat="42.91119" lon="-0.61138">
        <ele>1240</ele>
        <time>2021-12-08T13:13:08.999Z</time>
      </trkpt>
      <trkpt lat="42.91131" lon="-0.61134">
        <ele>1228</ele>
        <time>2021-12-08T13:13:13.999Z</time>
      </trkpt>
      <trkpt lat="42.91142" lon="-0.61128">
        <ele>1228</ele>
        <time>2021-12-08T13:13:18.999Z</time>
      </trkpt>
      <trkpt lat="42.91153" lon="-0.61122">
        <ele>1240</ele>
        <time>2021-12-08T13:13:23.999Z</time>
      </trkpt>
      <trkpt lat="42.91166" lon="-0.6112">
        <ele>1224</ele>
        <time>2021-12-08T13:14:45.999Z</time>
      </trkpt>
      <trkpt lat="42.91166" lon="-0.61119">
        <ele>1224</ele>
        <time>2021-12-08T13:14:50.999Z</time>
      </trkpt>
      <trkpt lat="42.91163" lon="-0.61127">
        <ele>1211</ele>
        <time>2021-12-08T13:14:55.999Z</time>
      </trkpt>
      <trkpt lat="42.91159" lon="-0.61133">
        <ele>1211</ele>
        <time>2021-12-08T13:15:00.999Z</time>
      </trkpt>
      <trkpt lat="42.91157" lon="-0.61138">
        <ele>1211</ele>
        <time>2021-12-08T13:15:05.999Z</time>
      </trkpt>
      <trkpt lat="42.91157" lon="-0.61143">
        <ele>1211</ele>
        <time>2021-12-08T13:15:09.999Z</time>
      </trkpt>
      <trkpt lat="42.91152" lon="-0.61148">
        <ele>1228</ele>
        <time>2021-12-08T13:15:14.999Z</time>
      </trkpt>
      <trkpt lat="42.91146" lon="-0.61152">
        <ele>1228</ele>
        <time>2021-12-08T13:15:18.999Z</time>
      </trkpt>
      <trkpt lat="42.91141" lon="-0.61155">
        <ele>1215</ele>
        <time>2021-12-08T13:15:23.999Z</time>
      </trkpt>
      <trkpt lat="42.91131" lon="-0.61161">
        <ele>1215</ele>
        <time>2021-12-08T13:15:32.999Z</time>
      </trkpt>
      <trkpt lat="42.91131" lon="-0.61162">
        <ele>1215</ele>
        <time>2021-12-08T13:15:37.999Z</time>
      </trkpt>
      <trkpt lat="42.91131" lon="-0.61163">
        <ele>1215</ele>
        <time>2021-12-08T13:15:42.999Z</time>
      </trkpt>
      <trkpt lat="42.91131" lon="-0.61163">
        <ele>1215</ele>
        <time>2021-12-08T13:15:47.999Z</time>
      </trkpt>
      <trkpt lat="42.91128" lon="-0.61167">
        <ele>1215</ele>
        <time>2021-12-08T13:15:51.999Z</time>
      </trkpt>
      <trkpt lat="42.91123" lon="-0.61181">
        <ele>1224</ele>
        <time>2021-12-08T13:15:56.999Z</time>
      </trkpt>
      <trkpt lat="42.9112" lon="-0.61192">
        <ele>1224</ele>
        <time>2021-12-08T13:16:01.999Z</time>
      </trkpt>
      <trkpt lat="42.9112" lon="-0.61193">
        <ele>1224</ele>
        <time>2021-12-08T13:16:06.999Z</time>
      </trkpt>
      <trkpt lat="42.9112" lon="-0.61194">
        <ele>1224</ele>
        <time>2021-12-08T13:16:11.999Z</time>
      </trkpt>
      <trkpt lat="42.91122" lon="-0.61199">
        <ele>1224</ele>
        <time>2021-12-08T13:16:16.999Z</time>
      </trkpt>
      <trkpt lat="42.9113" lon="-0.612">
        <ele>1207</ele>
        <time>2021-12-08T13:16:20.999Z</time>
      </trkpt>
      <trkpt lat="42.91134" lon="-0.61198">
        <ele>1207</ele>
        <time>2021-12-08T13:16:25.999Z</time>
      </trkpt>
      <trkpt lat="42.91138" lon="-0.61198">
        <ele>1207</ele>
        <time>2021-12-08T13:16:30.999Z</time>
      </trkpt>
      <trkpt lat="42.91139" lon="-0.61209">
        <ele>1199</ele>
        <time>2021-12-08T13:16:55.999Z</time>
      </trkpt>
      <trkpt lat="42.91141" lon="-0.61206">
        <ele>1207</ele>
        <time>2021-12-08T13:17:00.999Z</time>
      </trkpt>
      <trkpt lat="42.91146" lon="-0.612">
        <ele>1207</ele>
        <time>2021-12-08T13:17:05.999Z</time>
      </trkpt>
      <trkpt lat="42.91151" lon="-0.61193">
        <ele>1207</ele>
        <time>2021-12-08T13:17:10.999Z</time>
      </trkpt>
      <trkpt lat="42.91156" lon="-0.61189">
        <ele>1190</ele>
        <time>2021-12-08T13:17:14.999Z</time>
      </trkpt>
      <trkpt lat="42.9116" lon="-0.61185">
        <ele>1190</ele>
        <time>2021-12-08T13:17:19.999Z</time>
      </trkpt>
      <trkpt lat="42.9117" lon="-0.6118">
        <ele>1199</ele>
        <time>2021-12-08T13:17:24.999Z</time>
      </trkpt>
      <trkpt lat="42.91178" lon="-0.61174">
        <ele>1199</ele>
        <time>2021-12-08T13:17:29.999Z</time>
      </trkpt>
      <trkpt lat="42.91182" lon="-0.61173">
        <ele>1182</ele>
        <time>2021-12-08T13:17:34.999Z</time>
      </trkpt>
      <trkpt lat="42.91191" lon="-0.61169">
        <ele>1182</ele>
        <time>2021-12-08T13:17:38.999Z</time>
      </trkpt>
      <trkpt lat="42.91202" lon="-0.6116">
        <ele>1182</ele>
        <time>2021-12-08T13:17:43.999Z</time>
      </trkpt>
      <trkpt lat="42.91213" lon="-0.61151">
        <ele>1184</ele>
        <time>2021-12-08T13:17:48.999Z</time>
      </trkpt>
      <trkpt lat="42.91221" lon="-0.61145">
        <ele>1184</ele>
        <time>2021-12-08T13:17:53.999Z</time>
      </trkpt>
      <trkpt lat="42.91237" lon="-0.61133">
        <ele>1173</ele>
        <time>2021-12-08T13:18:17.999Z</time>
      </trkpt>
      <trkpt lat="42.91237" lon="-0.61133">
        <ele>1173</ele>
        <time>2021-12-08T13:18:22.999Z</time>
      </trkpt>
      <trkpt lat="42.91237" lon="-0.61133">
        <ele>1173</ele>
        <time>2021-12-08T13:18:27.999Z</time>
      </trkpt>
      <trkpt lat="42.91237" lon="-0.61133">
        <ele>1173</ele>
        <time>2021-12-08T13:18:32.999Z</time>
      </trkpt>
      <trkpt lat="42.91241" lon="-0.6113">
        <ele>1173</ele>
        <time>2021-12-08T13:18:37.999Z</time>
      </trkpt>
      <trkpt lat="42.91241" lon="-0.61136">
        <ele>1173</ele>
        <time>2021-12-08T13:18:42.999Z</time>
      </trkpt>
      <trkpt lat="42.91238" lon="-0.61142">
        <ele>1173</ele>
        <time>2021-12-08T13:18:46.999Z</time>
      </trkpt>
      <trkpt lat="42.91233" lon="-0.61149">
        <ele>1184</ele>
        <time>2021-12-08T13:18:51.999Z</time>
      </trkpt>
      <trkpt lat="42.91228" lon="-0.61157">
        <ele>1172</ele>
        <time>2021-12-08T13:18:56.999Z</time>
      </trkpt>
      <trkpt lat="42.91224" lon="-0.61163">
        <ele>1172</ele>
        <time>2021-12-08T13:19:01.999Z</time>
      </trkpt>
      <trkpt lat="42.91222" lon="-0.6117">
        <ele>1172</ele>
        <time>2021-12-08T13:19:06.999Z</time>
      </trkpt>
      <trkpt lat="42.91219" lon="-0.61176">
        <ele>1172</ele>
        <time>2021-12-08T13:19:10.999Z</time>
      </trkpt>
      <trkpt lat="42.91216" lon="-0.61183">
        <ele>1162</ele>
        <time>2021-12-08T13:19:15.999Z</time>
      </trkpt>
      <trkpt lat="42.91213" lon="-0.61193">
        <ele>1162</ele>
        <time>2021-12-08T13:19:20.999Z</time>
      </trkpt>
      <trkpt lat="42.91209" lon="-0.61202">
        <ele>1162</ele>
        <time>2021-12-08T13:19:25.999Z</time>
      </trkpt>
      <trkpt lat="42.91208" lon="-0.61204">
        <ele>1175</ele>
        <time>2021-12-08T13:19:30.999Z</time>
      </trkpt>
      <trkpt lat="42.91207" lon="-0.61204">
        <ele>1175</ele>
        <time>2021-12-08T13:19:34.999Z</time>
      </trkpt>
      <trkpt lat="42.91206" lon="-0.61209">
        <ele>1167</ele>
        <time>2021-12-08T13:19:39.999Z</time>
      </trkpt>
      <trkpt lat="42.91205" lon="-0.61215">
        <ele>1167</ele>
        <time>2021-12-08T13:19:44.999Z</time>
      </trkpt>
      <trkpt lat="42.91218" lon="-0.61209">
        <ele>1154</ele>
        <time>2021-12-08T13:19:49.999Z</time>
      </trkpt>
      <trkpt lat="42.91228" lon="-0.612">
        <ele>1162</ele>
        <time>2021-12-08T13:19:54.999Z</time>
      </trkpt>
      <trkpt lat="42.91235" lon="-0.61195">
        <ele>1162</ele>
        <time>2021-12-08T13:19:59.999Z</time>
      </trkpt>
      <trkpt lat="42.91244" lon="-0.61191">
        <ele>1154</ele>
        <time>2021-12-08T13:20:03.999Z</time>
      </trkpt>
      <trkpt lat="42.91246" lon="-0.61192">
        <ele>1154</ele>
        <time>2021-12-08T13:20:08.999Z</time>
      </trkpt>
      <trkpt lat="42.91246" lon="-0.61192">
        <ele>1154</ele>
        <time>2021-12-08T13:20:13.999Z</time>
      </trkpt>
      <trkpt lat="42.91246" lon="-0.61192">
        <ele>1154</ele>
        <time>2021-12-08T13:20:18.999Z</time>
      </trkpt>
      <trkpt lat="42.91247" lon="-0.61192">
        <ele>1154</ele>
        <time>2021-12-08T13:20:23.999Z</time>
      </trkpt>
      <trkpt lat="42.91252" lon="-0.61192">
        <ele>1154</ele>
        <time>2021-12-08T13:20:28.999Z</time>
      </trkpt>
      <trkpt lat="42.91252" lon="-0.61198">
        <ele>1154</ele>
        <time>2021-12-08T13:20:33.999Z</time>
      </trkpt>
      <trkpt lat="42.91247" lon="-0.61206">
        <ele>1154</ele>
        <time>2021-12-08T13:20:38.999Z</time>
      </trkpt>
      <trkpt lat="42.91242" lon="-0.61218">
        <ele>1143</ele>
        <time>2021-12-08T13:20:43.999Z</time>
      </trkpt>
      <trkpt lat="42.91238" lon="-0.6123">
        <ele>1143</ele>
        <time>2021-12-08T13:20:48.999Z</time>
      </trkpt>
      <trkpt lat="42.91234" lon="-0.6124">
        <ele>1143</ele>
        <time>2021-12-08T13:20:53.999Z</time>
      </trkpt>
      <trkpt lat="42.91229" lon="-0.61252">
        <ele>1143</ele>
        <time>2021-12-08T13:20:58.999Z</time>
      </trkpt>
      <trkpt lat="42.9122" lon="-0.61265">
        <ele>1133</ele>
        <time>2021-12-08T13:21:41.999Z</time>
      </trkpt>
      <trkpt lat="42.91219" lon="-0.61268">
        <ele>1133</ele>
        <time>2021-12-08T13:21:45.999Z</time>
      </trkpt>
      <trkpt lat="42.91217" lon="-0.61273">
        <ele>1133</ele>
        <time>2021-12-08T13:21:50.999Z</time>
      </trkpt>
      <trkpt lat="42.91221" lon="-0.61276">
        <ele>1133</ele>
        <time>2021-12-08T13:21:55.999Z</time>
      </trkpt>
      <trkpt lat="42.91227" lon="-0.61275">
        <ele>1133</ele>
        <time>2021-12-08T13:21:59.999Z</time>
      </trkpt>
      <trkpt lat="42.91231" lon="-0.61275">
        <ele>1133</ele>
        <time>2021-12-08T13:22:04.999Z</time>
      </trkpt>
      <trkpt lat="42.91236" lon="-0.61275">
        <ele>1126</ele>
        <time>2021-12-08T13:22:09.999Z</time>
      </trkpt>
      <trkpt lat="42.91236" lon="-0.61275">
        <ele>1126</ele>
        <time>2021-12-08T13:22:14.999Z</time>
      </trkpt>
      <trkpt lat="42.91242" lon="-0.61274">
        <ele>1126</ele>
        <time>2021-12-08T13:22:19.999Z</time>
      </trkpt>
      <trkpt lat="42.91252" lon="-0.61272">
        <ele>1126</ele>
        <time>2021-12-08T13:22:24.999Z</time>
      </trkpt>
      <trkpt lat="42.91255" lon="-0.61272">
        <ele>1126</ele>
        <time>2021-12-08T13:22:29.999Z</time>
      </trkpt>
      <trkpt lat="42.91262" lon="-0.6127">
        <ele>1126</ele>
        <time>2021-12-08T13:22:34.999Z</time>
      </trkpt>
      <trkpt lat="42.91269" lon="-0.61267">
        <ele>1116</ele>
        <time>2021-12-08T13:22:38.999Z</time>
      </trkpt>
      <trkpt lat="42.91277" lon="-0.61261">
        <ele>1121</ele>
        <time>2021-12-08T13:22:43.999Z</time>
      </trkpt>
      <trkpt lat="42.91284" lon="-0.61255">
        <ele>1121</ele>
        <time>2021-12-08T13:22:47.999Z</time>
      </trkpt>
      <trkpt lat="42.91287" lon="-0.6125">
        <ele>1121</ele>
        <time>2021-12-08T13:22:52.999Z</time>
      </trkpt>
      <trkpt lat="42.91295" lon="-0.61243">
        <ele>1109</ele>
        <time>2021-12-08T13:22:57.999Z</time>
      </trkpt>
      <trkpt lat="42.91298" lon="-0.6124">
        <ele>1109</ele>
        <time>2021-12-08T13:23:02.999Z</time>
      </trkpt>
      <trkpt lat="42.91298" lon="-0.6124">
        <ele>1109</ele>
        <time>2021-12-08T13:23:07.999Z</time>
      </trkpt>
      <trkpt lat="42.91302" lon="-0.61239">
        <ele>1109</ele>
        <time>2021-12-08T13:23:12.999Z</time>
      </trkpt>
      <trkpt lat="42.91305" lon="-0.61226">
        <ele>1119</ele>
        <time>2021-12-08T13:23:17.999Z</time>
      </trkpt>
      <trkpt lat="42.91315" lon="-0.6122">
        <ele>1119</ele>
        <time>2021-12-08T13:23:27.999Z</time>
      </trkpt>
      <trkpt lat="42.91317" lon="-0.61219">
        <ele>1119</ele>
        <time>2021-12-08T13:23:31.999Z</time>
      </trkpt>
      <trkpt lat="42.91318" lon="-0.61219">
        <ele>1119</ele>
        <time>2021-12-08T13:23:36.999Z</time>
      </trkpt>
      <trkpt lat="42.91319" lon="-0.6122">
        <ele>1119</ele>
        <time>2021-12-08T13:23:41.999Z</time>
      </trkpt>
      <trkpt lat="42.91322" lon="-0.61222">
        <ele>1113</ele>
        <time>2021-12-08T13:23:46.999Z</time>
      </trkpt>
      <trkpt lat="42.91326" lon="-0.61221">
        <ele>1113</ele>
        <time>2021-12-08T13:24:05.999Z</time>
      </trkpt>
      <trkpt lat="42.91327" lon="-0.61222">
        <ele>1113</ele>
        <time>2021-12-08T13:24:10.999Z</time>
      </trkpt>
      <trkpt lat="42.91327" lon="-0.61223">
        <ele>1113</ele>
        <time>2021-12-08T13:24:15.999Z</time>
      </trkpt>
      <trkpt lat="42.91324" lon="-0.61227">
        <ele>1113</ele>
        <time>2021-12-08T13:24:19.999Z</time>
      </trkpt>
      <trkpt lat="42.9132" lon="-0.61235">
        <ele>1113</ele>
        <time>2021-12-08T13:24:24.999Z</time>
      </trkpt>
      <trkpt lat="42.91321" lon="-0.61254">
        <ele>1103</ele>
        <time>2021-12-08T13:25:12.999Z</time>
      </trkpt>
      <trkpt lat="42.91321" lon="-0.61256">
        <ele>1103</ele>
        <time>2021-12-08T13:25:17.999Z</time>
      </trkpt>
      <trkpt lat="42.91318" lon="-0.61266">
        <ele>1104</ele>
        <time>2021-12-08T13:25:22.999Z</time>
      </trkpt>
      <trkpt lat="42.91317" lon="-0.61271">
        <ele>1104</ele>
        <time>2021-12-08T13:25:27.999Z</time>
      </trkpt>
      <trkpt lat="42.91317" lon="-0.61272">
        <ele>1104</ele>
        <time>2021-12-08T13:25:32.999Z</time>
      </trkpt>
      <trkpt lat="42.91327" lon="-0.61271">
        <ele>1096</ele>
        <time>2021-12-08T13:25:51.999Z</time>
      </trkpt>
      <trkpt lat="42.91327" lon="-0.6127">
        <ele>1096</ele>
        <time>2021-12-08T13:25:56.999Z</time>
      </trkpt>
      <trkpt lat="42.91328" lon="-0.6127">
        <ele>1096</ele>
        <time>2021-12-08T13:26:00.999Z</time>
      </trkpt>
      <trkpt lat="42.91328" lon="-0.6127">
        <ele>1096</ele>
        <time>2021-12-08T13:26:05.999Z</time>
      </trkpt>
      <trkpt lat="42.91328" lon="-0.61278">
        <ele>1096</ele>
        <time>2021-12-08T13:26:10.999Z</time>
      </trkpt>
      <trkpt lat="42.91331" lon="-0.61289">
        <ele>1096</ele>
        <time>2021-12-08T13:26:34.999Z</time>
      </trkpt>
      <trkpt lat="42.91333" lon="-0.6129">
        <ele>1096</ele>
        <time>2021-12-08T13:26:39.999Z</time>
      </trkpt>
      <trkpt lat="42.91329" lon="-0.61293">
        <ele>1088</ele>
        <time>2021-12-08T13:26:44.999Z</time>
      </trkpt>
      <trkpt lat="42.91328" lon="-0.61294">
        <ele>1088</ele>
        <time>2021-12-08T13:26:48.999Z</time>
      </trkpt>
      <trkpt lat="42.91331" lon="-0.61301">
        <ele>1088</ele>
        <time>2021-12-08T13:26:53.999Z</time>
      </trkpt>
      <trkpt lat="42.91336" lon="-0.61302">
        <ele>1088</ele>
        <time>2021-12-08T13:27:12.999Z</time>
      </trkpt>
      <trkpt lat="42.91336" lon="-0.61312">
        <ele>1088</ele>
        <time>2021-12-08T13:27:17.999Z</time>
      </trkpt>
      <trkpt lat="42.91335" lon="-0.61313">
        <ele>1088</ele>
        <time>2021-12-08T13:27:22.999Z</time>
      </trkpt>
      <trkpt lat="42.91337" lon="-0.61319">
        <ele>1088</ele>
        <time>2021-12-08T13:27:27.999Z</time>
      </trkpt>
      <trkpt lat="42.91337" lon="-0.61327">
        <ele>1081</ele>
        <time>2021-12-08T13:27:32.999Z</time>
      </trkpt>
      <trkpt lat="42.91333" lon="-0.61325">
        <ele>1081</ele>
        <time>2021-12-08T13:27:36.999Z</time>
      </trkpt>
      <trkpt lat="42.91329" lon="-0.61329">
        <ele>1081</ele>
        <time>2021-12-08T13:27:41.999Z</time>
      </trkpt>
      <trkpt lat="42.91314" lon="-0.61334">
        <ele>1084</ele>
        <time>2021-12-08T13:27:46.999Z</time>
      </trkpt>
      <trkpt lat="42.91311" lon="-0.6134">
        <ele>1084</ele>
        <time>2021-12-08T13:27:51.999Z</time>
      </trkpt>
      <trkpt lat="42.91318" lon="-0.6135">
        <ele>1076</ele>
        <time>2021-12-08T13:29:04.999Z</time>
      </trkpt>
      <trkpt lat="42.91318" lon="-0.6135">
        <ele>1076</ele>
        <time>2021-12-08T13:29:09.999Z</time>
      </trkpt>
      <trkpt lat="42.9132" lon="-0.6135">
        <ele>1074</ele>
        <time>2021-12-08T13:29:13.999Z</time>
      </trkpt>
      <trkpt lat="42.91324" lon="-0.61352">
        <ele>1074</ele>
        <time>2021-12-08T13:29:18.999Z</time>
      </trkpt>
      <trkpt lat="42.91329" lon="-0.61353">
        <ele>1074</ele>
        <time>2021-12-08T13:29:23.999Z</time>
      </trkpt>
      <trkpt lat="42.91334" lon="-0.61359">
        <ele>1074</ele>
        <time>2021-12-08T13:29:42.999Z</time>
      </trkpt>
      <trkpt lat="42.91338" lon="-0.6136">
        <ele>1074</ele>
        <time>2021-12-08T13:29:47.999Z</time>
      </trkpt>
      <trkpt lat="42.91344" lon="-0.6136">
        <ele>1074</ele>
        <time>2021-12-08T13:29:52.999Z</time>
      </trkpt>
      <trkpt lat="42.91348" lon="-0.61359">
        <ele>1073</ele>
        <time>2021-12-08T13:29:57.999Z</time>
      </trkpt>
      <trkpt lat="42.91353" lon="-0.61358">
        <ele>1073</ele>
        <time>2021-12-08T13:30:01.999Z</time>
      </trkpt>
      <trkpt lat="42.91354" lon="-0.61359">
        <ele>1073</ele>
        <time>2021-12-08T13:30:06.999Z</time>
      </trkpt>
      <trkpt lat="42.91354" lon="-0.61359">
        <ele>1073</ele>
        <time>2021-12-08T13:30:11.999Z</time>
      </trkpt>
      <trkpt lat="42.91359" lon="-0.61362">
        <ele>1073</ele>
        <time>2021-12-08T13:30:16.999Z</time>
      </trkpt>
      <trkpt lat="42.91362" lon="-0.61367">
        <ele>1073</ele>
        <time>2021-12-08T13:30:21.999Z</time>
      </trkpt>
      <trkpt lat="42.91365" lon="-0.61372">
        <ele>1073</ele>
        <time>2021-12-08T13:30:26.999Z</time>
      </trkpt>
      <trkpt lat="42.91369" lon="-0.61374">
        <ele>1073</ele>
        <time>2021-12-08T13:30:31.999Z</time>
      </trkpt>
      <trkpt lat="42.91371" lon="-0.61379">
        <ele>1060</ele>
        <time>2021-12-08T13:30:36.999Z</time>
      </trkpt>
      <trkpt lat="42.91375" lon="-0.61383">
        <ele>1060</ele>
        <time>2021-12-08T13:30:41.999Z</time>
      </trkpt>
      <trkpt lat="42.91386" lon="-0.61388">
        <ele>1062</ele>
        <time>2021-12-08T13:30:46.999Z</time>
      </trkpt>
      <trkpt lat="42.91395" lon="-0.6139">
        <ele>1062</ele>
        <time>2021-12-08T13:30:51.999Z</time>
      </trkpt>
      <trkpt lat="42.91401" lon="-0.61392">
        <ele>1062</ele>
        <time>2021-12-08T13:30:56.999Z</time>
      </trkpt>
      <trkpt lat="42.91409" lon="-0.61396">
        <ele>1065</ele>
        <time>2021-12-08T13:31:01.999Z</time>
      </trkpt>
      <trkpt lat="42.91418" lon="-0.61403">
        <ele>1065</ele>
        <time>2021-12-08T13:31:06.999Z</time>
      </trkpt>
      <trkpt lat="42.91428" lon="-0.61408">
        <ele>1053</ele>
        <time>2021-12-08T13:31:11.999Z</time>
      </trkpt>
      <trkpt lat="42.9144" lon="-0.61419">
        <ele>1057</ele>
        <time>2021-12-08T13:31:16.999Z</time>
      </trkpt>
      <trkpt lat="42.91451" lon="-0.61429">
        <ele>1057</ele>
        <time>2021-12-08T13:31:21.999Z</time>
      </trkpt>
      <trkpt lat="42.91452" lon="-0.61429">
        <ele>1057</ele>
        <time>2021-12-08T13:31:26.999Z</time>
      </trkpt>
      <trkpt lat="42.91453" lon="-0.61431">
        <ele>1045</ele>
        <time>2021-12-08T13:31:31.999Z</time>
      </trkpt>
      <trkpt lat="42.91458" lon="-0.61436">
        <ele>1045</ele>
        <time>2021-12-08T13:31:36.999Z</time>
      </trkpt>
      <trkpt lat="42.91457" lon="-0.61442">
        <ele>1045</ele>
        <time>2021-12-08T13:31:41.999Z</time>
      </trkpt>
      <trkpt lat="42.91452" lon="-0.61448">
        <ele>1045</ele>
        <time>2021-12-08T13:31:46.999Z</time>
      </trkpt>
      <trkpt lat="42.91446" lon="-0.61449">
        <ele>1045</ele>
        <time>2021-12-08T13:31:51.999Z</time>
      </trkpt>
      <trkpt lat="42.91447" lon="-0.61458">
        <ele>1035</ele>
        <time>2021-12-08T13:31:56.999Z</time>
      </trkpt>
      <trkpt lat="42.91448" lon="-0.61462">
        <ele>1035</ele>
        <time>2021-12-08T13:32:00.999Z</time>
      </trkpt>
      <trkpt lat="42.91446" lon="-0.61471">
        <ele>1035</ele>
        <time>2021-12-08T13:32:25.999Z</time>
      </trkpt>
      <trkpt lat="42.91446" lon="-0.61474">
        <ele>1035</ele>
        <time>2021-12-08T13:32:30.999Z</time>
      </trkpt>
      <trkpt lat="42.9144" lon="-0.61483">
        <ele>1035</ele>
        <time>2021-12-08T13:32:35.999Z</time>
      </trkpt>
      <trkpt lat="42.91437" lon="-0.61491">
        <ele>1028</ele>
        <time>2021-12-08T13:32:40.999Z</time>
      </trkpt>
      <trkpt lat="42.91439" lon="-0.61503">
        <ele>1028</ele>
        <time>2021-12-08T13:32:45.999Z</time>
      </trkpt>
      <trkpt lat="42.91444" lon="-0.61509">
        <ele>1028</ele>
        <time>2021-12-08T13:32:50.999Z</time>
      </trkpt>
      <trkpt lat="42.91455" lon="-0.61512">
        <ele>1028</ele>
        <time>2021-12-08T13:32:55.999Z</time>
      </trkpt>
      <trkpt lat="42.91461" lon="-0.61521">
        <ele>1024</ele>
        <time>2021-12-08T13:33:00.999Z</time>
      </trkpt>
      <trkpt lat="42.91463" lon="-0.61526">
        <ele>1024</ele>
        <time>2021-12-08T13:33:04.999Z</time>
      </trkpt>
      <trkpt lat="42.91464" lon="-0.61534">
        <ele>1024</ele>
        <time>2021-12-08T13:33:28.999Z</time>
      </trkpt>
      <trkpt lat="42.91463" lon="-0.61534">
        <ele>1024</ele>
        <time>2021-12-08T13:33:33.999Z</time>
      </trkpt>
      <trkpt lat="42.91464" lon="-0.61535">
        <ele>1024</ele>
        <time>2021-12-08T13:33:38.999Z</time>
      </trkpt>
      <trkpt lat="42.91463" lon="-0.6154">
        <ele>1024</ele>
        <time>2021-12-08T13:33:43.999Z</time>
      </trkpt>
      <trkpt lat="42.91458" lon="-0.61546">
        <ele>1019</ele>
        <time>2021-12-08T13:33:48.999Z</time>
      </trkpt>
      <trkpt lat="42.91452" lon="-0.61552">
        <ele>1019</ele>
        <time>2021-12-08T13:33:53.999Z</time>
      </trkpt>
      <trkpt lat="42.91447" lon="-0.61559">
        <ele>1019</ele>
        <time>2021-12-08T13:33:58.999Z</time>
      </trkpt>
      <trkpt lat="42.91444" lon="-0.61563">
        <ele>1019</ele>
        <time>2021-12-08T13:34:03.999Z</time>
      </trkpt>
      <trkpt lat="42.9144" lon="-0.61568">
        <ele>1019</ele>
        <time>2021-12-08T13:34:08.999Z</time>
      </trkpt>
      <trkpt lat="42.91434" lon="-0.61576">
        <ele>1016</ele>
        <time>2021-12-08T13:35:10.999Z</time>
      </trkpt>
      <trkpt lat="42.91434" lon="-0.61578">
        <ele>1016</ele>
        <time>2021-12-08T13:35:15.999Z</time>
      </trkpt>
      <trkpt lat="42.91433" lon="-0.61579">
        <ele>1016</ele>
        <time>2021-12-08T13:35:19.999Z</time>
      </trkpt>
      <trkpt lat="42.91432" lon="-0.61584">
        <ele>1016</ele>
        <time>2021-12-08T13:35:24.999Z</time>
      </trkpt>
      <trkpt lat="42.91428" lon="-0.61589">
        <ele>1018</ele>
        <time>2021-12-08T13:35:29.999Z</time>
      </trkpt>
      <trkpt lat="42.91426" lon="-0.61583">
        <ele>1018</ele>
        <time>2021-12-08T13:44:36.999Z</time>
      </trkpt>
      <trkpt lat="42.91427" lon="-0.61581">
        <ele>1018</ele>
        <time>2021-12-08T13:44:41.999Z</time>
      </trkpt>
      <trkpt lat="42.91429" lon="-0.61583">
        <ele>1018</ele>
        <time>2021-12-08T13:44:46.999Z</time>
      </trkpt>
      <trkpt lat="42.91433" lon="-0.61583">
        <ele>1016</ele>
        <time>2021-12-08T13:44:50.999Z</time>
      </trkpt>
      <trkpt lat="42.91434" lon="-0.61582">
        <ele>1016</ele>
        <time>2021-12-08T13:44:55.999Z</time>
      </trkpt>
    </trkseg>
  </trk>
</gpx>